<?xml version="1.0" encoding="UTF-8" standalone="no" ?>
<gpx xmlns="http://www.topografix.com/GPX/1/1" xmlns:xsi="http://www.w3.org/2001/XMLSchema-instance" xsi:schemaLocation="http://www.topografix.com/GPX/1/1 http://www.topografix.com/GPX/1/1/gpx.xsd" version="1.1" creator="VisuGPX - https://www.visugpx.com">
  <metadata>
    <name>TRAIL DE MONTAGNOLE</name>
    <desc><![CDATA[TRAIL COURTE DISTANCE AMBIANCE SUPER SYMPA AVEC UNE BONNE SOUPE A L\'ARRIVEE.A FAIRE ABSOLUMENT]]></desc>
  </metadata>
  <trk>
    <name><![CDATA[TRAIL DE MONTAGNOLE_1]]></name>
    <trkseg>
      <trkpt lat="45.53935" lon="5.90903">
        <ele>557.79998779297</ele>
        <time>2011-11-13T08:03:18Z</time>
      </trkpt>
      <trkpt lat="45.53939" lon="5.90904">
        <ele>557.79998779297</ele>
        <time>2011-11-13T08:03:22Z</time>
      </trkpt>
      <trkpt lat="45.53943" lon="5.90906">
        <ele>557.79998779297</ele>
        <time>2011-11-13T08:03:25Z</time>
      </trkpt>
      <trkpt lat="45.53949" lon="5.90913">
        <ele>557.79998779297</ele>
        <time>2011-11-13T08:03:29Z</time>
      </trkpt>
      <trkpt lat="45.53959" lon="5.9092">
        <ele>557.79998779297</ele>
        <time>2011-11-13T08:03:32Z</time>
      </trkpt>
      <trkpt lat="45.53968" lon="5.9093">
        <ele>557.79998779297</ele>
        <time>2011-11-13T08:03:37Z</time>
      </trkpt>
      <trkpt lat="45.5397" lon="5.90931">
        <ele>557.79998779297</ele>
        <time>2011-11-13T08:03:38Z</time>
      </trkpt>
      <trkpt lat="45.53976" lon="5.90939">
        <ele>557.79998779297</ele>
        <time>2011-11-13T08:03:42Z</time>
      </trkpt>
      <trkpt lat="45.53978" lon="5.90941">
        <ele>557.79998779297</ele>
        <time>2011-11-13T08:03:43Z</time>
      </trkpt>
      <trkpt lat="45.53981" lon="5.90945">
        <ele>557.79998779297</ele>
        <time>2011-11-13T08:03:45Z</time>
      </trkpt>
      <trkpt lat="45.53996" lon="5.90957">
        <ele>557.79998779297</ele>
        <time>2011-11-13T08:03:51Z</time>
      </trkpt>
      <trkpt lat="45.54006" lon="5.90963">
        <ele>557.79998779297</ele>
        <time>2011-11-13T08:03:55Z</time>
      </trkpt>
      <trkpt lat="45.54015" lon="5.90965">
        <ele>557.79998779297</ele>
        <time>2011-11-13T08:03:59Z</time>
      </trkpt>
      <trkpt lat="45.54032" lon="5.90967">
        <ele>557.79998779297</ele>
        <time>2011-11-13T08:04:05Z</time>
      </trkpt>
      <trkpt lat="45.54042" lon="5.90967">
        <ele>557.79998779297</ele>
        <time>2011-11-13T08:04:09Z</time>
      </trkpt>
      <trkpt lat="45.54052" lon="5.90967">
        <ele>557.79998779297</ele>
        <time>2011-11-13T08:04:14Z</time>
      </trkpt>
      <trkpt lat="45.54062" lon="5.9097">
        <ele>557.79998779297</ele>
        <time>2011-11-13T08:04:18Z</time>
      </trkpt>
      <trkpt lat="45.54069" lon="5.90975">
        <ele>557.79998779297</ele>
        <time>2011-11-13T08:04:22Z</time>
      </trkpt>
      <trkpt lat="45.54078" lon="5.90982">
        <ele>557.79998779297</ele>
        <time>2011-11-13T08:04:26Z</time>
      </trkpt>
      <trkpt lat="45.54086" lon="5.90992">
        <ele>557.79998779297</ele>
        <time>2011-11-13T08:04:31Z</time>
      </trkpt>
      <trkpt lat="45.54095" lon="5.91002">
        <ele>557.79998779297</ele>
        <time>2011-11-13T08:04:35Z</time>
      </trkpt>
      <trkpt lat="45.54104" lon="5.91012">
        <ele>557.20001220703</ele>
        <time>2011-11-13T08:04:40Z</time>
      </trkpt>
      <trkpt lat="45.54109" lon="5.91015">
        <ele>556.79998779297</ele>
        <time>2011-11-13T08:04:42Z</time>
      </trkpt>
      <trkpt lat="45.54124" lon="5.91023">
        <ele>556.20001220703</ele>
        <time>2011-11-13T08:04:48Z</time>
      </trkpt>
      <trkpt lat="45.54139" lon="5.91033">
        <ele>556</ele>
        <time>2011-11-13T08:04:54Z</time>
      </trkpt>
      <trkpt lat="45.54148" lon="5.91038">
        <ele>555.79998779297</ele>
        <time>2011-11-13T08:04:58Z</time>
      </trkpt>
      <trkpt lat="45.54159" lon="5.91044">
        <ele>555.79998779297</ele>
        <time>2011-11-13T08:05:02Z</time>
      </trkpt>
      <trkpt lat="45.54173" lon="5.91053">
        <ele>555.79998779297</ele>
        <time>2011-11-13T08:05:06Z</time>
      </trkpt>
      <trkpt lat="45.54183" lon="5.91056">
        <ele>555.59997558594</ele>
        <time>2011-11-13T08:05:10Z</time>
      </trkpt>
      <trkpt lat="45.54185" lon="5.91054">
        <ele>555.59997558594</ele>
        <time>2011-11-13T08:05:11Z</time>
      </trkpt>
      <trkpt lat="45.54191" lon="5.91043">
        <ele>555.59997558594</ele>
        <time>2011-11-13T08:05:15Z</time>
      </trkpt>
      <trkpt lat="45.54193" lon="5.91032">
        <ele>555.59997558594</ele>
        <time>2011-11-13T08:05:18Z</time>
      </trkpt>
      <trkpt lat="45.54201" lon="5.91015">
        <ele>555.59997558594</ele>
        <time>2011-11-13T08:05:23Z</time>
      </trkpt>
      <trkpt lat="45.54211" lon="5.90993">
        <ele>555.59997558594</ele>
        <time>2011-11-13T08:05:29Z</time>
      </trkpt>
      <trkpt lat="45.54219" lon="5.90977">
        <ele>555.59997558594</ele>
        <time>2011-11-13T08:05:34Z</time>
      </trkpt>
      <trkpt lat="45.54229" lon="5.90956">
        <ele>555.59997558594</ele>
        <time>2011-11-13T08:05:40Z</time>
      </trkpt>
      <trkpt lat="45.5424" lon="5.90935">
        <ele>554.59997558594</ele>
        <time>2011-11-13T08:05:46Z</time>
      </trkpt>
      <trkpt lat="45.5425" lon="5.9092">
        <ele>554.20001220703</ele>
        <time>2011-11-13T08:05:51Z</time>
      </trkpt>
      <trkpt lat="45.54259" lon="5.90901">
        <ele>553.59997558594</ele>
        <time>2011-11-13T08:05:56Z</time>
      </trkpt>
      <trkpt lat="45.54266" lon="5.90879">
        <ele>552.59997558594</ele>
        <time>2011-11-13T08:06:02Z</time>
      </trkpt>
      <trkpt lat="45.54266" lon="5.90875">
        <ele>552.40002441406</ele>
        <time>2011-11-13T08:06:03Z</time>
      </trkpt>
      <trkpt lat="45.54271" lon="5.90865">
        <ele>552.20001220703</ele>
        <time>2011-11-13T08:06:06Z</time>
      </trkpt>
      <trkpt lat="45.5428" lon="5.90846">
        <ele>551</ele>
        <time>2011-11-13T08:06:12Z</time>
      </trkpt>
      <trkpt lat="45.54281" lon="5.90843">
        <ele>550.79998779297</ele>
        <time>2011-11-13T08:06:13Z</time>
      </trkpt>
      <trkpt lat="45.54284" lon="5.90832">
        <ele>550.40002441406</ele>
        <time>2011-11-13T08:06:16Z</time>
      </trkpt>
      <trkpt lat="45.54285" lon="5.90821">
        <ele>549.59997558594</ele>
        <time>2011-11-13T08:06:19Z</time>
      </trkpt>
      <trkpt lat="45.54282" lon="5.90805">
        <ele>548.59997558594</ele>
        <time>2011-11-13T08:06:24Z</time>
      </trkpt>
      <trkpt lat="45.54278" lon="5.908">
        <ele>548.40002441406</ele>
        <time>2011-11-13T08:06:26Z</time>
      </trkpt>
      <trkpt lat="45.54268" lon="5.90791">
        <ele>547.40002441406</ele>
        <time>2011-11-13T08:06:31Z</time>
      </trkpt>
      <trkpt lat="45.54262" lon="5.90793">
        <ele>546.40002441406</ele>
        <time>2011-11-13T08:06:36Z</time>
      </trkpt>
      <trkpt lat="45.54261" lon="5.90794">
        <ele>546.20001220703</ele>
        <time>2011-11-13T08:06:37Z</time>
      </trkpt>
      <trkpt lat="45.54254" lon="5.90795">
        <ele>545.40002441406</ele>
        <time>2011-11-13T08:06:41Z</time>
      </trkpt>
      <trkpt lat="45.54247" lon="5.90794">
        <ele>544.59997558594</ele>
        <time>2011-11-13T08:06:44Z</time>
      </trkpt>
      <trkpt lat="45.54243" lon="5.90794">
        <ele>544.40002441406</ele>
        <time>2011-11-13T08:06:46Z</time>
      </trkpt>
      <trkpt lat="45.54233" lon="5.90792">
        <ele>543.40002441406</ele>
        <time>2011-11-13T08:06:50Z</time>
      </trkpt>
      <trkpt lat="45.54226" lon="5.9079">
        <ele>542.79998779297</ele>
        <time>2011-11-13T08:06:53Z</time>
      </trkpt>
      <trkpt lat="45.54218" lon="5.90789">
        <ele>542</ele>
        <time>2011-11-13T08:06:57Z</time>
      </trkpt>
      <trkpt lat="45.54213" lon="5.90788">
        <ele>541.20001220703</ele>
        <time>2011-11-13T08:07:00Z</time>
      </trkpt>
      <trkpt lat="45.54209" lon="5.90788">
        <ele>540.79998779297</ele>
        <time>2011-11-13T08:07:02Z</time>
      </trkpt>
      <trkpt lat="45.54201" lon="5.90789">
        <ele>540</ele>
        <time>2011-11-13T08:07:06Z</time>
      </trkpt>
      <trkpt lat="45.54189" lon="5.90791">
        <ele>538.40002441406</ele>
        <time>2011-11-13T08:07:12Z</time>
      </trkpt>
      <trkpt lat="45.54187" lon="5.90792">
        <ele>538.20001220703</ele>
        <time>2011-11-13T08:07:13Z</time>
      </trkpt>
      <trkpt lat="45.54173" lon="5.90793">
        <ele>537.40002441406</ele>
        <time>2011-11-13T08:07:19Z</time>
      </trkpt>
      <trkpt lat="45.54161" lon="5.90793">
        <ele>537</ele>
        <time>2011-11-13T08:07:24Z</time>
      </trkpt>
      <trkpt lat="45.54152" lon="5.90795">
        <ele>536.79998779297</ele>
        <time>2011-11-13T08:07:28Z</time>
      </trkpt>
      <trkpt lat="45.54138" lon="5.90793">
        <ele>536.79998779297</ele>
        <time>2011-11-13T08:07:34Z</time>
      </trkpt>
      <trkpt lat="45.5413" lon="5.90795">
        <ele>536.59997558594</ele>
        <time>2011-11-13T08:07:38Z</time>
      </trkpt>
      <trkpt lat="45.54118" lon="5.90796">
        <ele>536.59997558594</ele>
        <time>2011-11-13T08:07:43Z</time>
      </trkpt>
      <trkpt lat="45.54111" lon="5.90795">
        <ele>536.59997558594</ele>
        <time>2011-11-13T08:07:47Z</time>
      </trkpt>
      <trkpt lat="45.54103" lon="5.90796">
        <ele>536.59997558594</ele>
        <time>2011-11-13T08:07:52Z</time>
      </trkpt>
      <trkpt lat="45.5409" lon="5.90797">
        <ele>536.59997558594</ele>
        <time>2011-11-13T08:07:57Z</time>
      </trkpt>
      <trkpt lat="45.54076" lon="5.90797">
        <ele>535.59997558594</ele>
        <time>2011-11-13T08:08:02Z</time>
      </trkpt>
      <trkpt lat="45.5406" lon="5.90797">
        <ele>534.40002441406</ele>
        <time>2011-11-13T08:08:08Z</time>
      </trkpt>
      <trkpt lat="45.54047" lon="5.90795">
        <ele>533.40002441406</ele>
        <time>2011-11-13T08:08:14Z</time>
      </trkpt>
      <trkpt lat="45.54036" lon="5.90789">
        <ele>532.20001220703</ele>
        <time>2011-11-13T08:08:19Z</time>
      </trkpt>
      <trkpt lat="45.54025" lon="5.90782">
        <ele>531.20001220703</ele>
        <time>2011-11-13T08:08:24Z</time>
      </trkpt>
      <trkpt lat="45.54023" lon="5.90781">
        <ele>531.20001220703</ele>
        <time>2011-11-13T08:08:25Z</time>
      </trkpt>
      <trkpt lat="45.54017" lon="5.90777">
        <ele>530.79998779297</ele>
        <time>2011-11-13T08:08:28Z</time>
      </trkpt>
      <trkpt lat="45.54002" lon="5.9077">
        <ele>530.40002441406</ele>
        <time>2011-11-13T08:08:34Z</time>
      </trkpt>
      <trkpt lat="45.53994" lon="5.90767">
        <ele>530.40002441406</ele>
        <time>2011-11-13T08:08:38Z</time>
      </trkpt>
      <trkpt lat="45.53986" lon="5.90763">
        <ele>530.20001220703</ele>
        <time>2011-11-13T08:08:42Z</time>
      </trkpt>
      <trkpt lat="45.53974" lon="5.90754">
        <ele>530.20001220703</ele>
        <time>2011-11-13T08:08:49Z</time>
      </trkpt>
      <trkpt lat="45.53971" lon="5.90753">
        <ele>530.20001220703</ele>
        <time>2011-11-13T08:08:50Z</time>
      </trkpt>
      <trkpt lat="45.53961" lon="5.90746">
        <ele>530.20001220703</ele>
        <time>2011-11-13T08:08:55Z</time>
      </trkpt>
      <trkpt lat="45.53954" lon="5.9074">
        <ele>530.20001220703</ele>
        <time>2011-11-13T08:08:59Z</time>
      </trkpt>
      <trkpt lat="45.5395" lon="5.90737">
        <ele>530</ele>
        <time>2011-11-13T08:09:01Z</time>
      </trkpt>
      <trkpt lat="45.53936" lon="5.90729">
        <ele>530</ele>
        <time>2011-11-13T08:09:08Z</time>
      </trkpt>
      <trkpt lat="45.53927" lon="5.90724">
        <ele>530</ele>
        <time>2011-11-13T08:09:13Z</time>
      </trkpt>
      <trkpt lat="45.53918" lon="5.90718">
        <ele>530</ele>
        <time>2011-11-13T08:09:18Z</time>
      </trkpt>
      <trkpt lat="45.53917" lon="5.90718">
        <ele>530</ele>
        <time>2011-11-13T08:09:19Z</time>
      </trkpt>
      <trkpt lat="45.53907" lon="5.90717">
        <ele>530.59997558594</ele>
        <time>2011-11-13T08:09:24Z</time>
      </trkpt>
      <trkpt lat="45.53899" lon="5.90715">
        <ele>531.20001220703</ele>
        <time>2011-11-13T08:09:28Z</time>
      </trkpt>
      <trkpt lat="45.53897" lon="5.90715">
        <ele>531.20001220703</ele>
        <time>2011-11-13T08:09:29Z</time>
      </trkpt>
      <trkpt lat="45.53893" lon="5.90714">
        <ele>531.40002441406</ele>
        <time>2011-11-13T08:09:31Z</time>
      </trkpt>
      <trkpt lat="45.53883" lon="5.90714">
        <ele>531.59997558594</ele>
        <time>2011-11-13T08:09:36Z</time>
      </trkpt>
      <trkpt lat="45.53882" lon="5.90713">
        <ele>531.79998779297</ele>
        <time>2011-11-13T08:09:37Z</time>
      </trkpt>
      <trkpt lat="45.53873" lon="5.90715">
        <ele>532.40002441406</ele>
        <time>2011-11-13T08:09:42Z</time>
      </trkpt>
      <trkpt lat="45.53868" lon="5.90714">
        <ele>533</ele>
        <time>2011-11-13T08:09:46Z</time>
      </trkpt>
      <trkpt lat="45.53862" lon="5.90711">
        <ele>533.20001220703</ele>
        <time>2011-11-13T08:09:49Z</time>
      </trkpt>
      <trkpt lat="45.53861" lon="5.9071">
        <ele>533.40002441406</ele>
        <time>2011-11-13T08:09:51Z</time>
      </trkpt>
      <trkpt lat="45.5386" lon="5.90711">
        <ele>534.20001220703</ele>
        <time>2011-11-13T08:09:56Z</time>
      </trkpt>
      <trkpt lat="45.53857" lon="5.9071">
        <ele>534.59997558594</ele>
        <time>2011-11-13T08:09:57Z</time>
      </trkpt>
      <trkpt lat="45.53845" lon="5.90703">
        <ele>535.59997558594</ele>
        <time>2011-11-13T08:10:03Z</time>
      </trkpt>
      <trkpt lat="45.53835" lon="5.90699">
        <ele>536.79998779297</ele>
        <time>2011-11-13T08:10:08Z</time>
      </trkpt>
      <trkpt lat="45.53833" lon="5.90698">
        <ele>537</ele>
        <time>2011-11-13T08:10:09Z</time>
      </trkpt>
      <trkpt lat="45.53827" lon="5.90696">
        <ele>538</ele>
        <time>2011-11-13T08:10:13Z</time>
      </trkpt>
      <trkpt lat="45.5382" lon="5.90697">
        <ele>539</ele>
        <time>2011-11-13T08:10:17Z</time>
      </trkpt>
      <trkpt lat="45.53814" lon="5.90701">
        <ele>540.59997558594</ele>
        <time>2011-11-13T08:10:22Z</time>
      </trkpt>
      <trkpt lat="45.53807" lon="5.90708">
        <ele>541.79998779297</ele>
        <time>2011-11-13T08:10:26Z</time>
      </trkpt>
      <trkpt lat="45.53801" lon="5.90713">
        <ele>542.59997558594</ele>
        <time>2011-11-13T08:10:29Z</time>
      </trkpt>
      <trkpt lat="45.53793" lon="5.90722">
        <ele>544.40002441406</ele>
        <time>2011-11-13T08:10:34Z</time>
      </trkpt>
      <trkpt lat="45.53791" lon="5.90724">
        <ele>544.79998779297</ele>
        <time>2011-11-13T08:10:35Z</time>
      </trkpt>
      <trkpt lat="45.53785" lon="5.90735">
        <ele>546.59997558594</ele>
        <time>2011-11-13T08:10:40Z</time>
      </trkpt>
      <trkpt lat="45.53783" lon="5.90737">
        <ele>547</ele>
        <time>2011-11-13T08:10:41Z</time>
      </trkpt>
      <trkpt lat="45.53775" lon="5.90748">
        <ele>548.79998779297</ele>
        <time>2011-11-13T08:10:46Z</time>
      </trkpt>
      <trkpt lat="45.53769" lon="5.90762">
        <ele>550.40002441406</ele>
        <time>2011-11-13T08:10:51Z</time>
      </trkpt>
      <trkpt lat="45.53767" lon="5.90764">
        <ele>550.59997558594</ele>
        <time>2011-11-13T08:10:52Z</time>
      </trkpt>
      <trkpt lat="45.53757" lon="5.90764">
        <ele>552</ele>
        <time>2011-11-13T08:10:57Z</time>
      </trkpt>
      <trkpt lat="45.53751" lon="5.90766">
        <ele>553</ele>
        <time>2011-11-13T08:11:00Z</time>
      </trkpt>
      <trkpt lat="45.53746" lon="5.90774">
        <ele>554</ele>
        <time>2011-11-13T08:11:04Z</time>
      </trkpt>
      <trkpt lat="45.53737" lon="5.90792">
        <ele>555.59997558594</ele>
        <time>2011-11-13T08:11:10Z</time>
      </trkpt>
      <trkpt lat="45.53732" lon="5.90805">
        <ele>556.40002441406</ele>
        <time>2011-11-13T08:11:14Z</time>
      </trkpt>
      <trkpt lat="45.53725" lon="5.90821">
        <ele>557.59997558594</ele>
        <time>2011-11-13T08:11:19Z</time>
      </trkpt>
      <trkpt lat="45.53716" lon="5.9084">
        <ele>558.79998779297</ele>
        <time>2011-11-13T08:11:25Z</time>
      </trkpt>
      <trkpt lat="45.53705" lon="5.90858">
        <ele>560.20001220703</ele>
        <time>2011-11-13T08:11:31Z</time>
      </trkpt>
      <trkpt lat="45.53693" lon="5.90861">
        <ele>561</ele>
        <time>2011-11-13T08:11:36Z</time>
      </trkpt>
      <trkpt lat="45.53679" lon="5.90851">
        <ele>562.59997558594</ele>
        <time>2011-11-13T08:11:42Z</time>
      </trkpt>
      <trkpt lat="45.53667" lon="5.9084">
        <ele>563.40002441406</ele>
        <time>2011-11-13T08:11:48Z</time>
      </trkpt>
      <trkpt lat="45.53658" lon="5.9083">
        <ele>564.20001220703</ele>
        <time>2011-11-13T08:11:53Z</time>
      </trkpt>
      <trkpt lat="45.53643" lon="5.90815">
        <ele>565.40002441406</ele>
        <time>2011-11-13T08:12:00Z</time>
      </trkpt>
      <trkpt lat="45.53631" lon="5.90801">
        <ele>566.59997558594</ele>
        <time>2011-11-13T08:12:06Z</time>
      </trkpt>
      <trkpt lat="45.53623" lon="5.90794">
        <ele>567.20001220703</ele>
        <time>2011-11-13T08:12:10Z</time>
      </trkpt>
      <trkpt lat="45.53614" lon="5.90784">
        <ele>568.20001220703</ele>
        <time>2011-11-13T08:12:15Z</time>
      </trkpt>
      <trkpt lat="45.53603" lon="5.90772">
        <ele>569.20001220703</ele>
        <time>2011-11-13T08:12:21Z</time>
      </trkpt>
      <trkpt lat="45.53594" lon="5.90765">
        <ele>569.79998779297</ele>
        <time>2011-11-13T08:12:27Z</time>
      </trkpt>
      <trkpt lat="45.53586" lon="5.90759">
        <ele>570</ele>
        <time>2011-11-13T08:12:31Z</time>
      </trkpt>
      <trkpt lat="45.53573" lon="5.90753">
        <ele>570.59997558594</ele>
        <time>2011-11-13T08:12:36Z</time>
      </trkpt>
      <trkpt lat="45.5356" lon="5.9075">
        <ele>571.40002441406</ele>
        <time>2011-11-13T08:12:41Z</time>
      </trkpt>
      <trkpt lat="45.53548" lon="5.9075">
        <ele>571.79998779297</ele>
        <time>2011-11-13T08:12:46Z</time>
      </trkpt>
      <trkpt lat="45.53534" lon="5.90752">
        <ele>573</ele>
        <time>2011-11-13T08:12:52Z</time>
      </trkpt>
      <trkpt lat="45.53519" lon="5.90757">
        <ele>573.79998779297</ele>
        <time>2011-11-13T08:12:58Z</time>
      </trkpt>
      <trkpt lat="45.53505" lon="5.90763">
        <ele>574.20001220703</ele>
        <time>2011-11-13T08:13:04Z</time>
      </trkpt>
      <trkpt lat="45.53492" lon="5.90767">
        <ele>575</ele>
        <time>2011-11-13T08:13:09Z</time>
      </trkpt>
      <trkpt lat="45.53476" lon="5.90771">
        <ele>575.79998779297</ele>
        <time>2011-11-13T08:13:15Z</time>
      </trkpt>
      <trkpt lat="45.5346" lon="5.90774">
        <ele>576.20001220703</ele>
        <time>2011-11-13T08:13:21Z</time>
      </trkpt>
      <trkpt lat="45.53447" lon="5.90776">
        <ele>576.40002441406</ele>
        <time>2011-11-13T08:13:26Z</time>
      </trkpt>
      <trkpt lat="45.53432" lon="5.90777">
        <ele>576.59997558594</ele>
        <time>2011-11-13T08:13:32Z</time>
      </trkpt>
      <trkpt lat="45.53417" lon="5.90779">
        <ele>576.59997558594</ele>
        <time>2011-11-13T08:13:38Z</time>
      </trkpt>
      <trkpt lat="45.53402" lon="5.90781">
        <ele>576.59997558594</ele>
        <time>2011-11-13T08:13:44Z</time>
      </trkpt>
      <trkpt lat="45.53387" lon="5.90783">
        <ele>576.79998779297</ele>
        <time>2011-11-13T08:13:50Z</time>
      </trkpt>
      <trkpt lat="45.53371" lon="5.90786">
        <ele>576.79998779297</ele>
        <time>2011-11-13T08:13:56Z</time>
      </trkpt>
      <trkpt lat="45.53358" lon="5.90789">
        <ele>576.79998779297</ele>
        <time>2011-11-13T08:14:01Z</time>
      </trkpt>
      <trkpt lat="45.53344" lon="5.90795">
        <ele>576.79998779297</ele>
        <time>2011-11-13T08:14:07Z</time>
      </trkpt>
      <trkpt lat="45.53329" lon="5.908">
        <ele>576.79998779297</ele>
        <time>2011-11-13T08:14:13Z</time>
      </trkpt>
      <trkpt lat="45.53313" lon="5.90805">
        <ele>577.59997558594</ele>
        <time>2011-11-13T08:14:19Z</time>
      </trkpt>
      <trkpt lat="45.53298" lon="5.90806">
        <ele>578.20001220703</ele>
        <time>2011-11-13T08:14:25Z</time>
      </trkpt>
      <trkpt lat="45.53284" lon="5.90798">
        <ele>578.40002441406</ele>
        <time>2011-11-13T08:14:31Z</time>
      </trkpt>
      <trkpt lat="45.53273" lon="5.90782">
        <ele>579.20001220703</ele>
        <time>2011-11-13T08:14:38Z</time>
      </trkpt>
      <trkpt lat="45.53266" lon="5.90766">
        <ele>580</ele>
        <time>2011-11-13T08:14:44Z</time>
      </trkpt>
      <trkpt lat="45.53262" lon="5.90754">
        <ele>580.20001220703</ele>
        <time>2011-11-13T08:14:48Z</time>
      </trkpt>
      <trkpt lat="45.53259" lon="5.90745">
        <ele>580.40002441406</ele>
        <time>2011-11-13T08:14:51Z</time>
      </trkpt>
      <trkpt lat="45.5325" lon="5.90731">
        <ele>580.59997558594</ele>
        <time>2011-11-13T08:14:57Z</time>
      </trkpt>
      <trkpt lat="45.53238" lon="5.9072">
        <ele>580.59997558594</ele>
        <time>2011-11-13T08:15:03Z</time>
      </trkpt>
      <trkpt lat="45.53225" lon="5.90707">
        <ele>581.59997558594</ele>
        <time>2011-11-13T08:15:10Z</time>
      </trkpt>
      <trkpt lat="45.53214" lon="5.90697">
        <ele>582.20001220703</ele>
        <time>2011-11-13T08:15:16Z</time>
      </trkpt>
      <trkpt lat="45.53202" lon="5.9069">
        <ele>582.40002441406</ele>
        <time>2011-11-13T08:15:21Z</time>
      </trkpt>
      <trkpt lat="45.5319" lon="5.90681">
        <ele>582.59997558594</ele>
        <time>2011-11-13T08:15:27Z</time>
      </trkpt>
      <trkpt lat="45.53175" lon="5.90671">
        <ele>583.20001220703</ele>
        <time>2011-11-13T08:15:34Z</time>
      </trkpt>
      <trkpt lat="45.53165" lon="5.90664">
        <ele>584</ele>
        <time>2011-11-13T08:15:39Z</time>
      </trkpt>
      <trkpt lat="45.53157" lon="5.90672">
        <ele>584.40002441406</ele>
        <time>2011-11-13T08:15:44Z</time>
      </trkpt>
      <trkpt lat="45.53155" lon="5.90677">
        <ele>584.79998779297</ele>
        <time>2011-11-13T08:15:46Z</time>
      </trkpt>
      <trkpt lat="45.53148" lon="5.90693">
        <ele>585.79998779297</ele>
        <time>2011-11-13T08:15:52Z</time>
      </trkpt>
      <trkpt lat="45.53142" lon="5.90706">
        <ele>587.20001220703</ele>
        <time>2011-11-13T08:15:57Z</time>
      </trkpt>
      <trkpt lat="45.53135" lon="5.9072">
        <ele>588.79998779297</ele>
        <time>2011-11-13T08:16:03Z</time>
      </trkpt>
      <trkpt lat="45.5312" lon="5.90725">
        <ele>590.79998779297</ele>
        <time>2011-11-13T08:16:11Z</time>
      </trkpt>
      <trkpt lat="45.53113" lon="5.90724">
        <ele>591.59997558594</ele>
        <time>2011-11-13T08:16:15Z</time>
      </trkpt>
      <trkpt lat="45.53103" lon="5.90725">
        <ele>593.20001220703</ele>
        <time>2011-11-13T08:16:20Z</time>
      </trkpt>
      <trkpt lat="45.53094" lon="5.90726">
        <ele>594.59997558594</ele>
        <time>2011-11-13T08:16:25Z</time>
      </trkpt>
      <trkpt lat="45.53085" lon="5.90728">
        <ele>595.79998779297</ele>
        <time>2011-11-13T08:16:30Z</time>
      </trkpt>
      <trkpt lat="45.53075" lon="5.90731">
        <ele>597</ele>
        <time>2011-11-13T08:16:35Z</time>
      </trkpt>
      <trkpt lat="45.53067" lon="5.90733">
        <ele>598</ele>
        <time>2011-11-13T08:16:40Z</time>
      </trkpt>
      <trkpt lat="45.53055" lon="5.90735">
        <ele>599.59997558594</ele>
        <time>2011-11-13T08:16:46Z</time>
      </trkpt>
      <trkpt lat="45.53041" lon="5.90738">
        <ele>600.79998779297</ele>
        <time>2011-11-13T08:16:53Z</time>
      </trkpt>
      <trkpt lat="45.53032" lon="5.90741">
        <ele>601.59997558594</ele>
        <time>2011-11-13T08:16:58Z</time>
      </trkpt>
      <trkpt lat="45.53022" lon="5.90744">
        <ele>602.59997558594</ele>
        <time>2011-11-13T08:17:04Z</time>
      </trkpt>
      <trkpt lat="45.5301" lon="5.90747">
        <ele>603.79998779297</ele>
        <time>2011-11-13T08:17:10Z</time>
      </trkpt>
      <trkpt lat="45.52998" lon="5.9075">
        <ele>605</ele>
        <time>2011-11-13T08:17:16Z</time>
      </trkpt>
      <trkpt lat="45.52991" lon="5.90757">
        <ele>606</ele>
        <time>2011-11-13T08:17:20Z</time>
      </trkpt>
      <trkpt lat="45.52983" lon="5.90764">
        <ele>607</ele>
        <time>2011-11-13T08:17:26Z</time>
      </trkpt>
      <trkpt lat="45.52974" lon="5.90777">
        <ele>608.79998779297</ele>
        <time>2011-11-13T08:17:33Z</time>
      </trkpt>
      <trkpt lat="45.52966" lon="5.90786">
        <ele>610</ele>
        <time>2011-11-13T08:17:39Z</time>
      </trkpt>
      <trkpt lat="45.52958" lon="5.90796">
        <ele>611.20001220703</ele>
        <time>2011-11-13T08:17:45Z</time>
      </trkpt>
      <trkpt lat="45.52951" lon="5.90805">
        <ele>612.59997558594</ele>
        <time>2011-11-13T08:17:51Z</time>
      </trkpt>
      <trkpt lat="45.52944" lon="5.90813">
        <ele>613.79998779297</ele>
        <time>2011-11-13T08:17:57Z</time>
      </trkpt>
      <trkpt lat="45.52941" lon="5.90818">
        <ele>614.59997558594</ele>
        <time>2011-11-13T08:18:00Z</time>
      </trkpt>
      <trkpt lat="45.52934" lon="5.90823">
        <ele>615.59997558594</ele>
        <time>2011-11-13T08:18:05Z</time>
      </trkpt>
      <trkpt lat="45.52929" lon="5.90826">
        <ele>616</ele>
        <time>2011-11-13T08:18:09Z</time>
      </trkpt>
      <trkpt lat="45.52922" lon="5.90828">
        <ele>616.79998779297</ele>
        <time>2011-11-13T08:18:14Z</time>
      </trkpt>
      <trkpt lat="45.52911" lon="5.90835">
        <ele>618.20001220703</ele>
        <time>2011-11-13T08:18:23Z</time>
      </trkpt>
      <trkpt lat="45.52909" lon="5.90836">
        <ele>618.20001220703</ele>
        <time>2011-11-13T08:18:24Z</time>
      </trkpt>
      <trkpt lat="45.52906" lon="5.90838">
        <ele>618.40002441406</ele>
        <time>2011-11-13T08:18:27Z</time>
      </trkpt>
      <trkpt lat="45.52895" lon="5.90846">
        <ele>619.79998779297</ele>
        <time>2011-11-13T08:18:35Z</time>
      </trkpt>
      <trkpt lat="45.52888" lon="5.9085">
        <ele>620.79998779297</ele>
        <time>2011-11-13T08:18:39Z</time>
      </trkpt>
      <trkpt lat="45.5288" lon="5.90856">
        <ele>621.79998779297</ele>
        <time>2011-11-13T08:18:44Z</time>
      </trkpt>
      <trkpt lat="45.52868" lon="5.90861">
        <ele>623.79998779297</ele>
        <time>2011-11-13T08:18:51Z</time>
      </trkpt>
      <trkpt lat="45.52856" lon="5.90867">
        <ele>625.59997558594</ele>
        <time>2011-11-13T08:18:57Z</time>
      </trkpt>
      <trkpt lat="45.52843" lon="5.90878">
        <ele>626.59997558594</ele>
        <time>2011-11-13T08:19:03Z</time>
      </trkpt>
      <trkpt lat="45.52833" lon="5.90889">
        <ele>627</ele>
        <time>2011-11-13T08:19:08Z</time>
      </trkpt>
      <trkpt lat="45.52821" lon="5.90901">
        <ele>627.40002441406</ele>
        <time>2011-11-13T08:19:14Z</time>
      </trkpt>
      <trkpt lat="45.52805" lon="5.9091">
        <ele>627.59997558594</ele>
        <time>2011-11-13T08:19:21Z</time>
      </trkpt>
      <trkpt lat="45.52791" lon="5.90914">
        <ele>628.40002441406</ele>
        <time>2011-11-13T08:19:26Z</time>
      </trkpt>
      <trkpt lat="45.52774" lon="5.90916">
        <ele>629</ele>
        <time>2011-11-13T08:19:33Z</time>
      </trkpt>
      <trkpt lat="45.52761" lon="5.90917">
        <ele>629.40002441406</ele>
        <time>2011-11-13T08:19:39Z</time>
      </trkpt>
      <trkpt lat="45.52747" lon="5.90918">
        <ele>629.59997558594</ele>
        <time>2011-11-13T08:19:46Z</time>
      </trkpt>
      <trkpt lat="45.52744" lon="5.90918">
        <ele>629.59997558594</ele>
        <time>2011-11-13T08:19:48Z</time>
      </trkpt>
      <trkpt lat="45.52736" lon="5.9091">
        <ele>629.79998779297</ele>
        <time>2011-11-13T08:19:53Z</time>
      </trkpt>
      <trkpt lat="45.52736" lon="5.90906">
        <ele>629.79998779297</ele>
        <time>2011-11-13T08:19:54Z</time>
      </trkpt>
      <trkpt lat="45.52737" lon="5.90878">
        <ele>629.79998779297</ele>
        <time>2011-11-13T08:20:02Z</time>
      </trkpt>
      <trkpt lat="45.52738" lon="5.90864">
        <ele>629.79998779297</ele>
        <time>2011-11-13T08:20:06Z</time>
      </trkpt>
      <trkpt lat="45.52738" lon="5.90847">
        <ele>629.79998779297</ele>
        <time>2011-11-13T08:20:11Z</time>
      </trkpt>
      <trkpt lat="45.52736" lon="5.9083">
        <ele>629.79998779297</ele>
        <time>2011-11-13T08:20:16Z</time>
      </trkpt>
      <trkpt lat="45.52735" lon="5.90826">
        <ele>629.79998779297</ele>
        <time>2011-11-13T08:20:17Z</time>
      </trkpt>
      <trkpt lat="45.52735" lon="5.90813">
        <ele>629.79998779297</ele>
        <time>2011-11-13T08:20:21Z</time>
      </trkpt>
      <trkpt lat="45.52735" lon="5.90809">
        <ele>629.79998779297</ele>
        <time>2011-11-13T08:20:22Z</time>
      </trkpt>
      <trkpt lat="45.52734" lon="5.90787">
        <ele>629.79998779297</ele>
        <time>2011-11-13T08:20:29Z</time>
      </trkpt>
      <trkpt lat="45.52733" lon="5.90765">
        <ele>629.79998779297</ele>
        <time>2011-11-13T08:20:36Z</time>
      </trkpt>
      <trkpt lat="45.52731" lon="5.90745">
        <ele>629.79998779297</ele>
        <time>2011-11-13T08:20:42Z</time>
      </trkpt>
      <trkpt lat="45.5273" lon="5.90731">
        <ele>629.79998779297</ele>
        <time>2011-11-13T08:20:46Z</time>
      </trkpt>
      <trkpt lat="45.52731" lon="5.90715">
        <ele>629.79998779297</ele>
        <time>2011-11-13T08:20:51Z</time>
      </trkpt>
      <trkpt lat="45.52732" lon="5.90682">
        <ele>630.79998779297</ele>
        <time>2011-11-13T08:21:02Z</time>
      </trkpt>
      <trkpt lat="45.52734" lon="5.90676">
        <ele>631</ele>
        <time>2011-11-13T08:21:04Z</time>
      </trkpt>
      <trkpt lat="45.52735" lon="5.90655">
        <ele>631.40002441406</ele>
        <time>2011-11-13T08:21:10Z</time>
      </trkpt>
      <trkpt lat="45.52733" lon="5.90638">
        <ele>631.59997558594</ele>
        <time>2011-11-13T08:21:15Z</time>
      </trkpt>
      <trkpt lat="45.52732" lon="5.90627">
        <ele>631.59997558594</ele>
        <time>2011-11-13T08:21:19Z</time>
      </trkpt>
      <trkpt lat="45.5273" lon="5.9061">
        <ele>631.79998779297</ele>
        <time>2011-11-13T08:21:25Z</time>
      </trkpt>
      <trkpt lat="45.52729" lon="5.90592">
        <ele>631.79998779297</ele>
        <time>2011-11-13T08:21:32Z</time>
      </trkpt>
      <trkpt lat="45.52725" lon="5.90582">
        <ele>631.79998779297</ele>
        <time>2011-11-13T08:21:35Z</time>
      </trkpt>
      <trkpt lat="45.52722" lon="5.90565">
        <ele>631.79998779297</ele>
        <time>2011-11-13T08:21:41Z</time>
      </trkpt>
      <trkpt lat="45.52717" lon="5.90551">
        <ele>631.79998779297</ele>
        <time>2011-11-13T08:21:46Z</time>
      </trkpt>
      <trkpt lat="45.52709" lon="5.90532">
        <ele>632.79998779297</ele>
        <time>2011-11-13T08:21:55Z</time>
      </trkpt>
      <trkpt lat="45.52703" lon="5.90515">
        <ele>633.59997558594</ele>
        <time>2011-11-13T08:22:03Z</time>
      </trkpt>
      <trkpt lat="45.52699" lon="5.90505">
        <ele>634.79998779297</ele>
        <time>2011-11-13T08:22:09Z</time>
      </trkpt>
      <trkpt lat="45.52697" lon="5.90501">
        <ele>635</ele>
        <time>2011-11-13T08:22:11Z</time>
      </trkpt>
      <trkpt lat="45.52692" lon="5.90494">
        <ele>635.40002441406</ele>
        <time>2011-11-13T08:22:16Z</time>
      </trkpt>
      <trkpt lat="45.52688" lon="5.90487">
        <ele>636</ele>
        <time>2011-11-13T08:22:20Z</time>
      </trkpt>
      <trkpt lat="45.52682" lon="5.90478">
        <ele>637</ele>
        <time>2011-11-13T08:22:27Z</time>
      </trkpt>
      <trkpt lat="45.52676" lon="5.90465">
        <ele>638.20001220703</ele>
        <time>2011-11-13T08:22:34Z</time>
      </trkpt>
      <trkpt lat="45.52671" lon="5.90456">
        <ele>639.20001220703</ele>
        <time>2011-11-13T08:22:40Z</time>
      </trkpt>
      <trkpt lat="45.52671" lon="5.90454">
        <ele>639.20001220703</ele>
        <time>2011-11-13T08:22:41Z</time>
      </trkpt>
      <trkpt lat="45.52667" lon="5.90447">
        <ele>639.59997558594</ele>
        <time>2011-11-13T08:22:46Z</time>
      </trkpt>
      <trkpt lat="45.52659" lon="5.90435">
        <ele>641</ele>
        <time>2011-11-13T08:22:54Z</time>
      </trkpt>
      <trkpt lat="45.52651" lon="5.90426">
        <ele>641.59997558594</ele>
        <time>2011-11-13T08:23:02Z</time>
      </trkpt>
      <trkpt lat="45.52649" lon="5.90424">
        <ele>641.79998779297</ele>
        <time>2011-11-13T08:23:04Z</time>
      </trkpt>
      <trkpt lat="45.52642" lon="5.90414">
        <ele>642.40002441406</ele>
        <time>2011-11-13T08:23:10Z</time>
      </trkpt>
      <trkpt lat="45.52633" lon="5.90407">
        <ele>643.20001220703</ele>
        <time>2011-11-13T08:23:15Z</time>
      </trkpt>
      <trkpt lat="45.5262" lon="5.90398">
        <ele>644.40002441406</ele>
        <time>2011-11-13T08:23:21Z</time>
      </trkpt>
      <trkpt lat="45.52608" lon="5.90394">
        <ele>645.20001220703</ele>
        <time>2011-11-13T08:23:26Z</time>
      </trkpt>
      <trkpt lat="45.52596" lon="5.90393">
        <ele>646.40002441406</ele>
        <time>2011-11-13T08:23:31Z</time>
      </trkpt>
      <trkpt lat="45.5258" lon="5.90391">
        <ele>647.20001220703</ele>
        <time>2011-11-13T08:23:36Z</time>
      </trkpt>
      <trkpt lat="45.52567" lon="5.90391">
        <ele>648.20001220703</ele>
        <time>2011-11-13T08:23:40Z</time>
      </trkpt>
      <trkpt lat="45.52554" lon="5.9039">
        <ele>649</ele>
        <time>2011-11-13T08:23:44Z</time>
      </trkpt>
      <trkpt lat="45.52551" lon="5.90391">
        <ele>649</ele>
        <time>2011-11-13T08:23:45Z</time>
      </trkpt>
      <trkpt lat="45.52539" lon="5.90391">
        <ele>649.59997558594</ele>
        <time>2011-11-13T08:23:49Z</time>
      </trkpt>
      <trkpt lat="45.52526" lon="5.90389">
        <ele>650.59997558594</ele>
        <time>2011-11-13T08:23:53Z</time>
      </trkpt>
      <trkpt lat="45.52512" lon="5.90385">
        <ele>651.40002441406</ele>
        <time>2011-11-13T08:23:58Z</time>
      </trkpt>
      <trkpt lat="45.52502" lon="5.90377">
        <ele>651.79998779297</ele>
        <time>2011-11-13T08:24:02Z</time>
      </trkpt>
      <trkpt lat="45.52494" lon="5.90368">
        <ele>652.79998779297</ele>
        <time>2011-11-13T08:24:07Z</time>
      </trkpt>
      <trkpt lat="45.52492" lon="5.90366">
        <ele>653</ele>
        <time>2011-11-13T08:24:08Z</time>
      </trkpt>
      <trkpt lat="45.5249" lon="5.90363">
        <ele>653.40002441406</ele>
        <time>2011-11-13T08:24:10Z</time>
      </trkpt>
      <trkpt lat="45.52487" lon="5.90353">
        <ele>654.59997558594</ele>
        <time>2011-11-13T08:24:15Z</time>
      </trkpt>
      <trkpt lat="45.52486" lon="5.90349">
        <ele>655</ele>
        <time>2011-11-13T08:24:17Z</time>
      </trkpt>
      <trkpt lat="45.52485" lon="5.90341">
        <ele>656.40002441406</ele>
        <time>2011-11-13T08:24:21Z</time>
      </trkpt>
      <trkpt lat="45.52479" lon="5.90326">
        <ele>658.20001220703</ele>
        <time>2011-11-13T08:24:27Z</time>
      </trkpt>
      <trkpt lat="45.52477" lon="5.90323">
        <ele>658.59997558594</ele>
        <time>2011-11-13T08:24:29Z</time>
      </trkpt>
      <trkpt lat="45.52471" lon="5.90309">
        <ele>659.79998779297</ele>
        <time>2011-11-13T08:24:36Z</time>
      </trkpt>
      <trkpt lat="45.52467" lon="5.903">
        <ele>661.20001220703</ele>
        <time>2011-11-13T08:24:41Z</time>
      </trkpt>
      <trkpt lat="45.52459" lon="5.90287">
        <ele>662.20001220703</ele>
        <time>2011-11-13T08:24:48Z</time>
      </trkpt>
      <trkpt lat="45.52457" lon="5.90285">
        <ele>662.20001220703</ele>
        <time>2011-11-13T08:24:49Z</time>
      </trkpt>
      <trkpt lat="45.52454" lon="5.90279">
        <ele>662.59997558594</ele>
        <time>2011-11-13T08:24:52Z</time>
      </trkpt>
      <trkpt lat="45.52448" lon="5.90264">
        <ele>662.79998779297</ele>
        <time>2011-11-13T08:24:59Z</time>
      </trkpt>
      <trkpt lat="45.52444" lon="5.90258">
        <ele>663</ele>
        <time>2011-11-13T08:25:02Z</time>
      </trkpt>
      <trkpt lat="45.5244" lon="5.90249">
        <ele>663</ele>
        <time>2011-11-13T08:25:06Z</time>
      </trkpt>
      <trkpt lat="45.52434" lon="5.90237">
        <ele>663.40002441406</ele>
        <time>2011-11-13T08:25:12Z</time>
      </trkpt>
      <trkpt lat="45.52428" lon="5.90225">
        <ele>664.20001220703</ele>
        <time>2011-11-13T08:25:18Z</time>
      </trkpt>
      <trkpt lat="45.52423" lon="5.90213">
        <ele>664.79998779297</ele>
        <time>2011-11-13T08:25:25Z</time>
      </trkpt>
      <trkpt lat="45.52417" lon="5.902">
        <ele>666</ele>
        <time>2011-11-13T08:25:32Z</time>
      </trkpt>
      <trkpt lat="45.52413" lon="5.90189">
        <ele>666.59997558594</ele>
        <time>2011-11-13T08:25:38Z</time>
      </trkpt>
      <trkpt lat="45.52412" lon="5.90188">
        <ele>666.79998779297</ele>
        <time>2011-11-13T08:25:39Z</time>
      </trkpt>
      <trkpt lat="45.52406" lon="5.90179">
        <ele>667.79998779297</ele>
        <time>2011-11-13T08:25:45Z</time>
      </trkpt>
      <trkpt lat="45.52405" lon="5.90177">
        <ele>667.79998779297</ele>
        <time>2011-11-13T08:25:46Z</time>
      </trkpt>
      <trkpt lat="45.52398" lon="5.90168">
        <ele>668.59997558594</ele>
        <time>2011-11-13T08:25:52Z</time>
      </trkpt>
      <trkpt lat="45.52387" lon="5.90152">
        <ele>669</ele>
        <time>2011-11-13T08:26:02Z</time>
      </trkpt>
      <trkpt lat="45.52377" lon="5.90141">
        <ele>669.20001220703</ele>
        <time>2011-11-13T08:26:08Z</time>
      </trkpt>
      <trkpt lat="45.52367" lon="5.90131">
        <ele>669.59997558594</ele>
        <time>2011-11-13T08:26:13Z</time>
      </trkpt>
      <trkpt lat="45.52355" lon="5.90117">
        <ele>670.59997558594</ele>
        <time>2011-11-13T08:26:19Z</time>
      </trkpt>
      <trkpt lat="45.52344" lon="5.90102">
        <ele>672</ele>
        <time>2011-11-13T08:26:26Z</time>
      </trkpt>
      <trkpt lat="45.52335" lon="5.90086">
        <ele>673.79998779297</ele>
        <time>2011-11-13T08:26:33Z</time>
      </trkpt>
      <trkpt lat="45.5233" lon="5.90074">
        <ele>675.59997558594</ele>
        <time>2011-11-13T08:26:39Z</time>
      </trkpt>
      <trkpt lat="45.52325" lon="5.9006">
        <ele>677.40002441406</ele>
        <time>2011-11-13T08:26:47Z</time>
      </trkpt>
      <trkpt lat="45.52319" lon="5.90048">
        <ele>678.79998779297</ele>
        <time>2011-11-13T08:26:54Z</time>
      </trkpt>
      <trkpt lat="45.5231" lon="5.90025">
        <ele>680.40002441406</ele>
        <time>2011-11-13T08:27:06Z</time>
      </trkpt>
      <trkpt lat="45.52306" lon="5.90011">
        <ele>681.20001220703</ele>
        <time>2011-11-13T08:27:11Z</time>
      </trkpt>
      <trkpt lat="45.52301" lon="5.89995">
        <ele>681.59997558594</ele>
        <time>2011-11-13T08:27:16Z</time>
      </trkpt>
      <trkpt lat="45.52295" lon="5.89977">
        <ele>681.79998779297</ele>
        <time>2011-11-13T08:27:21Z</time>
      </trkpt>
      <trkpt lat="45.52288" lon="5.89956">
        <ele>682.59997558594</ele>
        <time>2011-11-13T08:27:27Z</time>
      </trkpt>
      <trkpt lat="45.52281" lon="5.89934">
        <ele>683.40002441406</ele>
        <time>2011-11-13T08:27:34Z</time>
      </trkpt>
      <trkpt lat="45.52277" lon="5.89917">
        <ele>684.40002441406</ele>
        <time>2011-11-13T08:27:39Z</time>
      </trkpt>
      <trkpt lat="45.52273" lon="5.89902">
        <ele>685.20001220703</ele>
        <time>2011-11-13T08:27:44Z</time>
      </trkpt>
      <trkpt lat="45.52272" lon="5.89895">
        <ele>685.40002441406</ele>
        <time>2011-11-13T08:27:46Z</time>
      </trkpt>
      <trkpt lat="45.52268" lon="5.89882">
        <ele>686</ele>
        <time>2011-11-13T08:27:51Z</time>
      </trkpt>
      <trkpt lat="45.52267" lon="5.8988">
        <ele>686.20001220703</ele>
        <time>2011-11-13T08:27:52Z</time>
      </trkpt>
      <trkpt lat="45.52264" lon="5.89865">
        <ele>687.20001220703</ele>
        <time>2011-11-13T08:27:57Z</time>
      </trkpt>
      <trkpt lat="45.52258" lon="5.89844">
        <ele>687.79998779297</ele>
        <time>2011-11-13T08:28:03Z</time>
      </trkpt>
      <trkpt lat="45.52258" lon="5.89841">
        <ele>687.79998779297</ele>
        <time>2011-11-13T08:28:04Z</time>
      </trkpt>
      <trkpt lat="45.52257" lon="5.89829">
        <ele>688</ele>
        <time>2011-11-13T08:28:08Z</time>
      </trkpt>
      <trkpt lat="45.52249" lon="5.89806">
        <ele>688.20001220703</ele>
        <time>2011-11-13T08:28:15Z</time>
      </trkpt>
      <trkpt lat="45.52248" lon="5.89803">
        <ele>688.20001220703</ele>
        <time>2011-11-13T08:28:16Z</time>
      </trkpt>
      <trkpt lat="45.52238" lon="5.89785">
        <ele>688.40002441406</ele>
        <time>2011-11-13T08:28:23Z</time>
      </trkpt>
      <trkpt lat="45.52236" lon="5.89779">
        <ele>688.40002441406</ele>
        <time>2011-11-13T08:28:25Z</time>
      </trkpt>
      <trkpt lat="45.52232" lon="5.89766">
        <ele>688.40002441406</ele>
        <time>2011-11-13T08:28:29Z</time>
      </trkpt>
      <trkpt lat="45.52224" lon="5.89756">
        <ele>688.40002441406</ele>
        <time>2011-11-13T08:28:33Z</time>
      </trkpt>
      <trkpt lat="45.52222" lon="5.89746">
        <ele>688.40002441406</ele>
        <time>2011-11-13T08:28:36Z</time>
      </trkpt>
      <trkpt lat="45.52216" lon="5.89737">
        <ele>688.40002441406</ele>
        <time>2011-11-13T08:28:39Z</time>
      </trkpt>
      <trkpt lat="45.52213" lon="5.89733">
        <ele>688.40002441406</ele>
        <time>2011-11-13T08:28:40Z</time>
      </trkpt>
      <trkpt lat="45.52211" lon="5.8973">
        <ele>688.40002441406</ele>
        <time>2011-11-13T08:28:41Z</time>
      </trkpt>
      <trkpt lat="45.52201" lon="5.89716">
        <ele>688.40002441406</ele>
        <time>2011-11-13T08:28:46Z</time>
      </trkpt>
      <trkpt lat="45.52198" lon="5.89714">
        <ele>688.40002441406</ele>
        <time>2011-11-13T08:28:47Z</time>
      </trkpt>
      <trkpt lat="45.52186" lon="5.89704">
        <ele>688.40002441406</ele>
        <time>2011-11-13T08:28:52Z</time>
      </trkpt>
      <trkpt lat="45.52179" lon="5.89701">
        <ele>688.40002441406</ele>
        <time>2011-11-13T08:28:54Z</time>
      </trkpt>
      <trkpt lat="45.52165" lon="5.89695">
        <ele>688.40002441406</ele>
        <time>2011-11-13T08:28:58Z</time>
      </trkpt>
      <trkpt lat="45.52148" lon="5.89697">
        <ele>688.40002441406</ele>
        <time>2011-11-13T08:29:04Z</time>
      </trkpt>
      <trkpt lat="45.5214" lon="5.897">
        <ele>688.40002441406</ele>
        <time>2011-11-13T08:29:07Z</time>
      </trkpt>
      <trkpt lat="45.52128" lon="5.89702">
        <ele>688.40002441406</ele>
        <time>2011-11-13T08:29:11Z</time>
      </trkpt>
      <trkpt lat="45.52118" lon="5.89696">
        <ele>688.40002441406</ele>
        <time>2011-11-13T08:29:15Z</time>
      </trkpt>
      <trkpt lat="45.52116" lon="5.89681">
        <ele>688.40002441406</ele>
        <time>2011-11-13T08:29:19Z</time>
      </trkpt>
      <trkpt lat="45.52116" lon="5.89677">
        <ele>688.40002441406</ele>
        <time>2011-11-13T08:29:20Z</time>
      </trkpt>
      <trkpt lat="45.52118" lon="5.89662">
        <ele>688.40002441406</ele>
        <time>2011-11-13T08:29:24Z</time>
      </trkpt>
      <trkpt lat="45.52119" lon="5.89653">
        <ele>688.40002441406</ele>
        <time>2011-11-13T08:29:27Z</time>
      </trkpt>
      <trkpt lat="45.52122" lon="5.89643">
        <ele>688.40002441406</ele>
        <time>2011-11-13T08:29:31Z</time>
      </trkpt>
      <trkpt lat="45.52126" lon="5.89624">
        <ele>688.40002441406</ele>
        <time>2011-11-13T08:29:37Z</time>
      </trkpt>
      <trkpt lat="45.52129" lon="5.89612">
        <ele>688.40002441406</ele>
        <time>2011-11-13T08:29:41Z</time>
      </trkpt>
      <trkpt lat="45.52133" lon="5.89603">
        <ele>688.40002441406</ele>
        <time>2011-11-13T08:29:45Z</time>
      </trkpt>
      <trkpt lat="45.52138" lon="5.89596">
        <ele>689.20001220703</ele>
        <time>2011-11-13T08:29:50Z</time>
      </trkpt>
      <trkpt lat="45.5214" lon="5.89594">
        <ele>689.40002441406</ele>
        <time>2011-11-13T08:29:52Z</time>
      </trkpt>
      <trkpt lat="45.52142" lon="5.89592">
        <ele>689.79998779297</ele>
        <time>2011-11-13T08:29:54Z</time>
      </trkpt>
      <trkpt lat="45.52144" lon="5.89586">
        <ele>690.59997558594</ele>
        <time>2011-11-13T08:29:57Z</time>
      </trkpt>
      <trkpt lat="45.52147" lon="5.8958">
        <ele>691.40002441406</ele>
        <time>2011-11-13T08:30:02Z</time>
      </trkpt>
      <trkpt lat="45.52147" lon="5.89574">
        <ele>691.79998779297</ele>
        <time>2011-11-13T08:30:05Z</time>
      </trkpt>
      <trkpt lat="45.52147" lon="5.89571">
        <ele>692.20001220703</ele>
        <time>2011-11-13T08:30:07Z</time>
      </trkpt>
      <trkpt lat="45.52143" lon="5.89562">
        <ele>693.40002441406</ele>
        <time>2011-11-13T08:30:12Z</time>
      </trkpt>
      <trkpt lat="45.52142" lon="5.8956">
        <ele>693.40002441406</ele>
        <time>2011-11-13T08:30:13Z</time>
      </trkpt>
      <trkpt lat="45.52135" lon="5.89553">
        <ele>694.20001220703</ele>
        <time>2011-11-13T08:30:19Z</time>
      </trkpt>
      <trkpt lat="45.5213" lon="5.89542">
        <ele>694.40002441406</ele>
        <time>2011-11-13T08:30:26Z</time>
      </trkpt>
      <trkpt lat="45.52124" lon="5.8953">
        <ele>694.59997558594</ele>
        <time>2011-11-13T08:30:31Z</time>
      </trkpt>
      <trkpt lat="45.52116" lon="5.89519">
        <ele>694.79998779297</ele>
        <time>2011-11-13T08:30:36Z</time>
      </trkpt>
      <trkpt lat="45.5211" lon="5.89507">
        <ele>694.79998779297</ele>
        <time>2011-11-13T08:30:41Z</time>
      </trkpt>
      <trkpt lat="45.52099" lon="5.89491">
        <ele>695.40002441406</ele>
        <time>2011-11-13T08:30:47Z</time>
      </trkpt>
      <trkpt lat="45.52089" lon="5.89476">
        <ele>696</ele>
        <time>2011-11-13T08:30:52Z</time>
      </trkpt>
      <trkpt lat="45.52079" lon="5.89461">
        <ele>696.40002441406</ele>
        <time>2011-11-13T08:30:58Z</time>
      </trkpt>
      <trkpt lat="45.52077" lon="5.89459">
        <ele>696.40002441406</ele>
        <time>2011-11-13T08:30:59Z</time>
      </trkpt>
      <trkpt lat="45.52066" lon="5.8945">
        <ele>696.59997558594</ele>
        <time>2011-11-13T08:31:04Z</time>
      </trkpt>
      <trkpt lat="45.52055" lon="5.89446">
        <ele>697.20001220703</ele>
        <time>2011-11-13T08:31:09Z</time>
      </trkpt>
      <trkpt lat="45.52046" lon="5.89444">
        <ele>697.79998779297</ele>
        <time>2011-11-13T08:31:12Z</time>
      </trkpt>
      <trkpt lat="45.52035" lon="5.8944">
        <ele>698.20001220703</ele>
        <time>2011-11-13T08:31:16Z</time>
      </trkpt>
      <trkpt lat="45.52029" lon="5.89437">
        <ele>698.40002441406</ele>
        <time>2011-11-13T08:31:19Z</time>
      </trkpt>
      <trkpt lat="45.52019" lon="5.89434">
        <ele>698.59997558594</ele>
        <time>2011-11-13T08:31:23Z</time>
      </trkpt>
      <trkpt lat="45.52009" lon="5.89429">
        <ele>698.59997558594</ele>
        <time>2011-11-13T08:31:27Z</time>
      </trkpt>
      <trkpt lat="45.52" lon="5.89423">
        <ele>698.79998779297</ele>
        <time>2011-11-13T08:31:31Z</time>
      </trkpt>
      <trkpt lat="45.51993" lon="5.89421">
        <ele>698.79998779297</ele>
        <time>2011-11-13T08:31:34Z</time>
      </trkpt>
      <trkpt lat="45.51977" lon="5.89411">
        <ele>698.79998779297</ele>
        <time>2011-11-13T08:31:40Z</time>
      </trkpt>
      <trkpt lat="45.51965" lon="5.89407">
        <ele>698.79998779297</ele>
        <time>2011-11-13T08:31:44Z</time>
      </trkpt>
      <trkpt lat="45.5196" lon="5.89406">
        <ele>698.59997558594</ele>
        <time>2011-11-13T08:31:46Z</time>
      </trkpt>
      <trkpt lat="45.5195" lon="5.89403">
        <ele>698</ele>
        <time>2011-11-13T08:31:50Z</time>
      </trkpt>
      <trkpt lat="45.51939" lon="5.89391">
        <ele>697.59997558594</ele>
        <time>2011-11-13T08:31:55Z</time>
      </trkpt>
      <trkpt lat="45.5193" lon="5.89381">
        <ele>697.20001220703</ele>
        <time>2011-11-13T08:32:00Z</time>
      </trkpt>
      <trkpt lat="45.51928" lon="5.8938">
        <ele>697.20001220703</ele>
        <time>2011-11-13T08:32:01Z</time>
      </trkpt>
      <trkpt lat="45.5192" lon="5.89373">
        <ele>696.79998779297</ele>
        <time>2011-11-13T08:32:05Z</time>
      </trkpt>
      <trkpt lat="45.51912" lon="5.89363">
        <ele>696.20001220703</ele>
        <time>2011-11-13T08:32:09Z</time>
      </trkpt>
      <trkpt lat="45.51904" lon="5.89349">
        <ele>695.59997558594</ele>
        <time>2011-11-13T08:32:14Z</time>
      </trkpt>
      <trkpt lat="45.51903" lon="5.89347">
        <ele>695.59997558594</ele>
        <time>2011-11-13T08:32:15Z</time>
      </trkpt>
      <trkpt lat="45.51901" lon="5.89345">
        <ele>695.40002441406</ele>
        <time>2011-11-13T08:32:16Z</time>
      </trkpt>
      <trkpt lat="45.51894" lon="5.89335">
        <ele>694.59997558594</ele>
        <time>2011-11-13T08:32:20Z</time>
      </trkpt>
      <trkpt lat="45.51883" lon="5.89324">
        <ele>693.79998779297</ele>
        <time>2011-11-13T08:32:25Z</time>
      </trkpt>
      <trkpt lat="45.51877" lon="5.89318">
        <ele>693</ele>
        <time>2011-11-13T08:32:29Z</time>
      </trkpt>
      <trkpt lat="45.51868" lon="5.89309">
        <ele>692</ele>
        <time>2011-11-13T08:32:34Z</time>
      </trkpt>
      <trkpt lat="45.51867" lon="5.89307">
        <ele>691.79998779297</ele>
        <time>2011-11-13T08:32:35Z</time>
      </trkpt>
      <trkpt lat="45.51863" lon="5.89299">
        <ele>691.40002441406</ele>
        <time>2011-11-13T08:32:40Z</time>
      </trkpt>
      <trkpt lat="45.51858" lon="5.89291">
        <ele>691.79998779297</ele>
        <time>2011-11-13T08:32:44Z</time>
      </trkpt>
      <trkpt lat="45.51855" lon="5.8928">
        <ele>692.20001220703</ele>
        <time>2011-11-13T08:32:48Z</time>
      </trkpt>
      <trkpt lat="45.51855" lon="5.89279">
        <ele>692.20001220703</ele>
        <time>2011-11-13T08:32:49Z</time>
      </trkpt>
      <trkpt lat="45.51853" lon="5.89275">
        <ele>692.79998779297</ele>
        <time>2011-11-13T08:32:51Z</time>
      </trkpt>
      <trkpt lat="45.51846" lon="5.89266">
        <ele>693.79998779297</ele>
        <time>2011-11-13T08:32:56Z</time>
      </trkpt>
      <trkpt lat="45.51844" lon="5.89263">
        <ele>694</ele>
        <time>2011-11-13T08:32:57Z</time>
      </trkpt>
      <trkpt lat="45.51837" lon="5.89254">
        <ele>694.79998779297</ele>
        <time>2011-11-13T08:33:02Z</time>
      </trkpt>
      <trkpt lat="45.51834" lon="5.89249">
        <ele>695.20001220703</ele>
        <time>2011-11-13T08:33:04Z</time>
      </trkpt>
      <trkpt lat="45.51829" lon="5.89239">
        <ele>695.79998779297</ele>
        <time>2011-11-13T08:33:08Z</time>
      </trkpt>
      <trkpt lat="45.51817" lon="5.89235">
        <ele>696.40002441406</ele>
        <time>2011-11-13T08:33:13Z</time>
      </trkpt>
      <trkpt lat="45.51814" lon="5.89236">
        <ele>696.40002441406</ele>
        <time>2011-11-13T08:33:14Z</time>
      </trkpt>
      <trkpt lat="45.51808" lon="5.89235">
        <ele>696.59997558594</ele>
        <time>2011-11-13T08:33:16Z</time>
      </trkpt>
      <trkpt lat="45.51801" lon="5.89236">
        <ele>696.79998779297</ele>
        <time>2011-11-13T08:33:19Z</time>
      </trkpt>
      <trkpt lat="45.51792" lon="5.89234">
        <ele>697.40002441406</ele>
        <time>2011-11-13T08:33:22Z</time>
      </trkpt>
      <trkpt lat="45.51779" lon="5.89227">
        <ele>698.20001220703</ele>
        <time>2011-11-13T08:33:27Z</time>
      </trkpt>
      <trkpt lat="45.51771" lon="5.89213">
        <ele>698.40002441406</ele>
        <time>2011-11-13T08:33:31Z</time>
      </trkpt>
      <trkpt lat="45.51765" lon="5.89197">
        <ele>698.79998779297</ele>
        <time>2011-11-13T08:33:35Z</time>
      </trkpt>
      <trkpt lat="45.51759" lon="5.89187">
        <ele>698.79998779297</ele>
        <time>2011-11-13T08:33:39Z</time>
      </trkpt>
      <trkpt lat="45.51753" lon="5.89178">
        <ele>699.40002441406</ele>
        <time>2011-11-13T08:33:43Z</time>
      </trkpt>
      <trkpt lat="45.51752" lon="5.89176">
        <ele>699.59997558594</ele>
        <time>2011-11-13T08:33:44Z</time>
      </trkpt>
      <trkpt lat="45.51741" lon="5.89164">
        <ele>700.40002441406</ele>
        <time>2011-11-13T08:33:50Z</time>
      </trkpt>
      <trkpt lat="45.51731" lon="5.89158">
        <ele>700.79998779297</ele>
        <time>2011-11-13T08:33:55Z</time>
      </trkpt>
      <trkpt lat="45.51722" lon="5.89149">
        <ele>701.40002441406</ele>
        <time>2011-11-13T08:34:00Z</time>
      </trkpt>
      <trkpt lat="45.51715" lon="5.89145">
        <ele>701.79998779297</ele>
        <time>2011-11-13T08:34:03Z</time>
      </trkpt>
      <trkpt lat="45.51704" lon="5.89137">
        <ele>702.40002441406</ele>
        <time>2011-11-13T08:34:08Z</time>
      </trkpt>
      <trkpt lat="45.51698" lon="5.89137">
        <ele>702.79998779297</ele>
        <time>2011-11-13T08:34:11Z</time>
      </trkpt>
      <trkpt lat="45.51685" lon="5.89132">
        <ele>703</ele>
        <time>2011-11-13T08:34:17Z</time>
      </trkpt>
      <trkpt lat="45.51675" lon="5.89127">
        <ele>703.20001220703</ele>
        <time>2011-11-13T08:34:26Z</time>
      </trkpt>
      <trkpt lat="45.51674" lon="5.89127">
        <ele>703.20001220703</ele>
        <time>2011-11-13T08:34:27Z</time>
      </trkpt>
      <trkpt lat="45.51668" lon="5.89125">
        <ele>704.20001220703</ele>
        <time>2011-11-13T08:34:33Z</time>
      </trkpt>
      <trkpt lat="45.51667" lon="5.89124">
        <ele>704.40002441406</ele>
        <time>2011-11-13T08:34:34Z</time>
      </trkpt>
      <trkpt lat="45.5166" lon="5.89122">
        <ele>704.79998779297</ele>
        <time>2011-11-13T08:34:41Z</time>
      </trkpt>
      <trkpt lat="45.51658" lon="5.89122">
        <ele>705</ele>
        <time>2011-11-13T08:34:42Z</time>
      </trkpt>
      <trkpt lat="45.51651" lon="5.89121">
        <ele>705.20001220703</ele>
        <time>2011-11-13T08:34:48Z</time>
      </trkpt>
      <trkpt lat="45.51647" lon="5.89121">
        <ele>705.79998779297</ele>
        <time>2011-11-13T08:34:51Z</time>
      </trkpt>
      <trkpt lat="45.51642" lon="5.89121">
        <ele>706.20001220703</ele>
        <time>2011-11-13T08:34:55Z</time>
      </trkpt>
      <trkpt lat="45.5163" lon="5.89122">
        <ele>706.79998779297</ele>
        <time>2011-11-13T08:35:03Z</time>
      </trkpt>
      <trkpt lat="45.51617" lon="5.89123">
        <ele>707.40002441406</ele>
        <time>2011-11-13T08:35:09Z</time>
      </trkpt>
      <trkpt lat="45.51606" lon="5.89121">
        <ele>708.20001220703</ele>
        <time>2011-11-13T08:35:14Z</time>
      </trkpt>
      <trkpt lat="45.51596" lon="5.89119">
        <ele>708.59997558594</ele>
        <time>2011-11-13T08:35:18Z</time>
      </trkpt>
      <trkpt lat="45.51578" lon="5.89113">
        <ele>709</ele>
        <time>2011-11-13T08:35:24Z</time>
      </trkpt>
      <trkpt lat="45.51565" lon="5.89106">
        <ele>709.79998779297</ele>
        <time>2011-11-13T08:35:29Z</time>
      </trkpt>
      <trkpt lat="45.51552" lon="5.89097">
        <ele>710.40002441406</ele>
        <time>2011-11-13T08:35:34Z</time>
      </trkpt>
      <trkpt lat="45.51543" lon="5.89088">
        <ele>710.79998779297</ele>
        <time>2011-11-13T08:35:38Z</time>
      </trkpt>
      <trkpt lat="45.51536" lon="5.89076">
        <ele>711</ele>
        <time>2011-11-13T08:35:42Z</time>
      </trkpt>
      <trkpt lat="45.51526" lon="5.89066">
        <ele>711.20001220703</ele>
        <time>2011-11-13T08:35:46Z</time>
      </trkpt>
      <trkpt lat="45.51514" lon="5.8906">
        <ele>711.40002441406</ele>
        <time>2011-11-13T08:35:51Z</time>
      </trkpt>
      <trkpt lat="45.51509" lon="5.8906">
        <ele>711.40002441406</ele>
        <time>2011-11-13T08:35:53Z</time>
      </trkpt>
      <trkpt lat="45.51499" lon="5.89056">
        <ele>711.40002441406</ele>
        <time>2011-11-13T08:35:57Z</time>
      </trkpt>
      <trkpt lat="45.51487" lon="5.8905">
        <ele>711.79998779297</ele>
        <time>2011-11-13T08:36:02Z</time>
      </trkpt>
      <trkpt lat="45.51477" lon="5.89045">
        <ele>712.40002441406</ele>
        <time>2011-11-13T08:36:06Z</time>
      </trkpt>
      <trkpt lat="45.51466" lon="5.8904">
        <ele>712.79998779297</ele>
        <time>2011-11-13T08:36:11Z</time>
      </trkpt>
      <trkpt lat="45.51459" lon="5.89034">
        <ele>713.20001220703</ele>
        <time>2011-11-13T08:36:16Z</time>
      </trkpt>
      <trkpt lat="45.51452" lon="5.89031">
        <ele>713.20001220703</ele>
        <time>2011-11-13T08:36:20Z</time>
      </trkpt>
      <trkpt lat="45.51445" lon="5.89027">
        <ele>713.40002441406</ele>
        <time>2011-11-13T08:36:25Z</time>
      </trkpt>
      <trkpt lat="45.51439" lon="5.89025">
        <ele>713.40002441406</ele>
        <time>2011-11-13T08:36:30Z</time>
      </trkpt>
      <trkpt lat="45.51433" lon="5.89021">
        <ele>714.20001220703</ele>
        <time>2011-11-13T08:36:36Z</time>
      </trkpt>
      <trkpt lat="45.51431" lon="5.89021">
        <ele>714.40002441406</ele>
        <time>2011-11-13T08:36:37Z</time>
      </trkpt>
      <trkpt lat="45.51427" lon="5.8902">
        <ele>714.59997558594</ele>
        <time>2011-11-13T08:36:40Z</time>
      </trkpt>
      <trkpt lat="45.51421" lon="5.89017">
        <ele>715.40002441406</ele>
        <time>2011-11-13T08:36:45Z</time>
      </trkpt>
      <trkpt lat="45.51418" lon="5.89015">
        <ele>716</ele>
        <time>2011-11-13T08:36:47Z</time>
      </trkpt>
      <trkpt lat="45.51411" lon="5.89013">
        <ele>717.40002441406</ele>
        <time>2011-11-13T08:36:53Z</time>
      </trkpt>
      <trkpt lat="45.51403" lon="5.89012">
        <ele>718.59997558594</ele>
        <time>2011-11-13T08:36:59Z</time>
      </trkpt>
      <trkpt lat="45.51393" lon="5.89009">
        <ele>720.40002441406</ele>
        <time>2011-11-13T08:37:06Z</time>
      </trkpt>
      <trkpt lat="45.51386" lon="5.89008">
        <ele>721</ele>
        <time>2011-11-13T08:37:11Z</time>
      </trkpt>
      <trkpt lat="45.51377" lon="5.89003">
        <ele>721.79998779297</ele>
        <time>2011-11-13T08:37:17Z</time>
      </trkpt>
      <trkpt lat="45.51373" lon="5.89">
        <ele>722.40002441406</ele>
        <time>2011-11-13T08:37:20Z</time>
      </trkpt>
      <trkpt lat="45.51365" lon="5.88996">
        <ele>723.20001220703</ele>
        <time>2011-11-13T08:37:25Z</time>
      </trkpt>
      <trkpt lat="45.51364" lon="5.88996">
        <ele>723.20001220703</ele>
        <time>2011-11-13T08:37:26Z</time>
      </trkpt>
      <trkpt lat="45.51361" lon="5.88995">
        <ele>723.40002441406</ele>
        <time>2011-11-13T08:37:28Z</time>
      </trkpt>
      <trkpt lat="45.51352" lon="5.8899">
        <ele>723.79998779297</ele>
        <time>2011-11-13T08:37:34Z</time>
      </trkpt>
      <trkpt lat="45.51344" lon="5.88985">
        <ele>724.59997558594</ele>
        <time>2011-11-13T08:37:40Z</time>
      </trkpt>
      <trkpt lat="45.5134" lon="5.88982">
        <ele>725.20001220703</ele>
        <time>2011-11-13T08:37:44Z</time>
      </trkpt>
      <trkpt lat="45.51334" lon="5.88979">
        <ele>725.59997558594</ele>
        <time>2011-11-13T08:37:50Z</time>
      </trkpt>
      <trkpt lat="45.51333" lon="5.88979">
        <ele>725.59997558594</ele>
        <time>2011-11-13T08:37:51Z</time>
      </trkpt>
      <trkpt lat="45.5133" lon="5.88977">
        <ele>725.79998779297</ele>
        <time>2011-11-13T08:37:54Z</time>
      </trkpt>
      <trkpt lat="45.51324" lon="5.88973">
        <ele>726.79998779297</ele>
        <time>2011-11-13T08:37:59Z</time>
      </trkpt>
      <trkpt lat="45.51316" lon="5.88969">
        <ele>727.40002441406</ele>
        <time>2011-11-13T08:38:05Z</time>
      </trkpt>
      <trkpt lat="45.51306" lon="5.88966">
        <ele>728.59997558594</ele>
        <time>2011-11-13T08:38:11Z</time>
      </trkpt>
      <trkpt lat="45.513" lon="5.88965">
        <ele>729.59997558594</ele>
        <time>2011-11-13T08:38:15Z</time>
      </trkpt>
      <trkpt lat="45.51291" lon="5.88961">
        <ele>731.20001220703</ele>
        <time>2011-11-13T08:38:20Z</time>
      </trkpt>
      <trkpt lat="45.51287" lon="5.8896">
        <ele>731.79998779297</ele>
        <time>2011-11-13T08:38:22Z</time>
      </trkpt>
      <trkpt lat="45.51278" lon="5.88958">
        <ele>734.40002441406</ele>
        <time>2011-11-13T08:38:28Z</time>
      </trkpt>
      <trkpt lat="45.51274" lon="5.88957">
        <ele>735.20001220703</ele>
        <time>2011-11-13T08:38:30Z</time>
      </trkpt>
      <trkpt lat="45.51268" lon="5.88954">
        <ele>737.59997558594</ele>
        <time>2011-11-13T08:38:35Z</time>
      </trkpt>
      <trkpt lat="45.51261" lon="5.8895">
        <ele>739.20001220703</ele>
        <time>2011-11-13T08:38:40Z</time>
      </trkpt>
      <trkpt lat="45.51258" lon="5.88947">
        <ele>740</ele>
        <time>2011-11-13T08:38:42Z</time>
      </trkpt>
      <trkpt lat="45.51253" lon="5.88942">
        <ele>741.20001220703</ele>
        <time>2011-11-13T08:38:46Z</time>
      </trkpt>
      <trkpt lat="45.51249" lon="5.88937">
        <ele>742</ele>
        <time>2011-11-13T08:38:50Z</time>
      </trkpt>
      <trkpt lat="45.51248" lon="5.88936">
        <ele>742.20001220703</ele>
        <time>2011-11-13T08:38:51Z</time>
      </trkpt>
      <trkpt lat="45.51244" lon="5.8893">
        <ele>743</ele>
        <time>2011-11-13T08:38:55Z</time>
      </trkpt>
      <trkpt lat="45.51239" lon="5.88923">
        <ele>743.79998779297</ele>
        <time>2011-11-13T08:38:58Z</time>
      </trkpt>
      <trkpt lat="45.51228" lon="5.88908">
        <ele>744.79998779297</ele>
        <time>2011-11-13T08:39:04Z</time>
      </trkpt>
      <trkpt lat="45.51226" lon="5.88906">
        <ele>745.20001220703</ele>
        <time>2011-11-13T08:39:05Z</time>
      </trkpt>
      <trkpt lat="45.51222" lon="5.88895">
        <ele>747</ele>
        <time>2011-11-13T08:39:10Z</time>
      </trkpt>
      <trkpt lat="45.51221" lon="5.88893">
        <ele>747.20001220703</ele>
        <time>2011-11-13T08:39:11Z</time>
      </trkpt>
      <trkpt lat="45.51218" lon="5.88882">
        <ele>750.20001220703</ele>
        <time>2011-11-13T08:39:17Z</time>
      </trkpt>
      <trkpt lat="45.51218" lon="5.8888">
        <ele>750.59997558594</ele>
        <time>2011-11-13T08:39:18Z</time>
      </trkpt>
      <trkpt lat="45.51219" lon="5.88878">
        <ele>751</ele>
        <time>2011-11-13T08:39:19Z</time>
      </trkpt>
      <trkpt lat="45.5122" lon="5.88875">
        <ele>751.40002441406</ele>
        <time>2011-11-13T08:39:20Z</time>
      </trkpt>
      <trkpt lat="45.51227" lon="5.8887">
        <ele>753.79998779297</ele>
        <time>2011-11-13T08:39:25Z</time>
      </trkpt>
      <trkpt lat="45.51232" lon="5.88867">
        <ele>754.79998779297</ele>
        <time>2011-11-13T08:39:29Z</time>
      </trkpt>
      <trkpt lat="45.51239" lon="5.88866">
        <ele>756.20001220703</ele>
        <time>2011-11-13T08:39:33Z</time>
      </trkpt>
      <trkpt lat="45.51247" lon="5.88868">
        <ele>757.20001220703</ele>
        <time>2011-11-13T08:39:37Z</time>
      </trkpt>
      <trkpt lat="45.5126" lon="5.88867">
        <ele>758</ele>
        <time>2011-11-13T08:39:42Z</time>
      </trkpt>
      <trkpt lat="45.51271" lon="5.88858">
        <ele>758.59997558594</ele>
        <time>2011-11-13T08:39:47Z</time>
      </trkpt>
      <trkpt lat="45.51273" lon="5.88855">
        <ele>758.59997558594</ele>
        <time>2011-11-13T08:39:48Z</time>
      </trkpt>
      <trkpt lat="45.51277" lon="5.88845">
        <ele>758.79998779297</ele>
        <time>2011-11-13T08:39:51Z</time>
      </trkpt>
      <trkpt lat="45.51286" lon="5.88822">
        <ele>759</ele>
        <time>2011-11-13T08:39:57Z</time>
      </trkpt>
      <trkpt lat="45.51292" lon="5.88807">
        <ele>759</ele>
        <time>2011-11-13T08:40:01Z</time>
      </trkpt>
      <trkpt lat="45.51303" lon="5.88787">
        <ele>759</ele>
        <time>2011-11-13T08:40:06Z</time>
      </trkpt>
      <trkpt lat="45.51315" lon="5.8878">
        <ele>759.20001220703</ele>
        <time>2011-11-13T08:40:11Z</time>
      </trkpt>
      <trkpt lat="45.51329" lon="5.88777">
        <ele>759.20001220703</ele>
        <time>2011-11-13T08:40:16Z</time>
      </trkpt>
      <trkpt lat="45.51344" lon="5.88771">
        <ele>759.20001220703</ele>
        <time>2011-11-13T08:40:20Z</time>
      </trkpt>
      <trkpt lat="45.51348" lon="5.88771">
        <ele>759.20001220703</ele>
        <time>2011-11-13T08:40:21Z</time>
      </trkpt>
      <trkpt lat="45.51358" lon="5.88768">
        <ele>759.20001220703</ele>
        <time>2011-11-13T08:40:24Z</time>
      </trkpt>
      <trkpt lat="45.51379" lon="5.88765">
        <ele>759.20001220703</ele>
        <time>2011-11-13T08:40:30Z</time>
      </trkpt>
      <trkpt lat="45.514" lon="5.88761">
        <ele>759.20001220703</ele>
        <time>2011-11-13T08:40:36Z</time>
      </trkpt>
      <trkpt lat="45.51418" lon="5.88759">
        <ele>759</ele>
        <time>2011-11-13T08:40:41Z</time>
      </trkpt>
      <trkpt lat="45.51437" lon="5.88755">
        <ele>758.20001220703</ele>
        <time>2011-11-13T08:40:46Z</time>
      </trkpt>
      <trkpt lat="45.51456" lon="5.88752">
        <ele>756.79998779297</ele>
        <time>2011-11-13T08:40:51Z</time>
      </trkpt>
      <trkpt lat="45.51476" lon="5.88749">
        <ele>755.20001220703</ele>
        <time>2011-11-13T08:40:56Z</time>
      </trkpt>
      <trkpt lat="45.51495" lon="5.88744">
        <ele>753.40002441406</ele>
        <time>2011-11-13T08:41:01Z</time>
      </trkpt>
      <trkpt lat="45.51514" lon="5.88741">
        <ele>751.79998779297</ele>
        <time>2011-11-13T08:41:06Z</time>
      </trkpt>
      <trkpt lat="45.51532" lon="5.88738">
        <ele>750</ele>
        <time>2011-11-13T08:41:11Z</time>
      </trkpt>
      <trkpt lat="45.51548" lon="5.88736">
        <ele>748.20001220703</ele>
        <time>2011-11-13T08:41:16Z</time>
      </trkpt>
      <trkpt lat="45.51566" lon="5.88732">
        <ele>746.20001220703</ele>
        <time>2011-11-13T08:41:21Z</time>
      </trkpt>
      <trkpt lat="45.51579" lon="5.88729">
        <ele>744.59997558594</ele>
        <time>2011-11-13T08:41:25Z</time>
      </trkpt>
      <trkpt lat="45.51582" lon="5.88715">
        <ele>742.79998779297</ele>
        <time>2011-11-13T08:41:29Z</time>
      </trkpt>
      <trkpt lat="45.5158" lon="5.887">
        <ele>740.79998779297</ele>
        <time>2011-11-13T08:41:34Z</time>
      </trkpt>
      <trkpt lat="45.51576" lon="5.88685">
        <ele>738.59997558594</ele>
        <time>2011-11-13T08:41:39Z</time>
      </trkpt>
      <trkpt lat="45.51575" lon="5.88682">
        <ele>738.20001220703</ele>
        <time>2011-11-13T08:41:40Z</time>
      </trkpt>
      <trkpt lat="45.51576" lon="5.88659">
        <ele>735.79998779297</ele>
        <time>2011-11-13T08:41:46Z</time>
      </trkpt>
      <trkpt lat="45.51579" lon="5.8864">
        <ele>733.79998779297</ele>
        <time>2011-11-13T08:41:51Z</time>
      </trkpt>
      <trkpt lat="45.51578" lon="5.88626">
        <ele>732.59997558594</ele>
        <time>2011-11-13T08:41:55Z</time>
      </trkpt>
      <trkpt lat="45.5158" lon="5.88602">
        <ele>731</ele>
        <time>2011-11-13T08:42:01Z</time>
      </trkpt>
      <trkpt lat="45.51583" lon="5.88587">
        <ele>730</ele>
        <time>2011-11-13T08:42:06Z</time>
      </trkpt>
      <trkpt lat="45.51582" lon="5.88583">
        <ele>729.79998779297</ele>
        <time>2011-11-13T08:42:08Z</time>
      </trkpt>
      <trkpt lat="45.51581" lon="5.88573">
        <ele>729.20001220703</ele>
        <time>2011-11-13T08:42:14Z</time>
      </trkpt>
      <trkpt lat="45.51579" lon="5.88568">
        <ele>729</ele>
        <time>2011-11-13T08:42:16Z</time>
      </trkpt>
      <trkpt lat="45.51574" lon="5.88555">
        <ele>728.79998779297</ele>
        <time>2011-11-13T08:42:21Z</time>
      </trkpt>
      <trkpt lat="45.51569" lon="5.88542">
        <ele>728.59997558594</ele>
        <time>2011-11-13T08:42:26Z</time>
      </trkpt>
      <trkpt lat="45.51566" lon="5.88527">
        <ele>728.59997558594</ele>
        <time>2011-11-13T08:42:31Z</time>
      </trkpt>
      <trkpt lat="45.5157" lon="5.88515">
        <ele>728.59997558594</ele>
        <time>2011-11-13T08:42:35Z</time>
      </trkpt>
      <trkpt lat="45.51575" lon="5.88506">
        <ele>728.59997558594</ele>
        <time>2011-11-13T08:42:39Z</time>
      </trkpt>
      <trkpt lat="45.51586" lon="5.88491">
        <ele>728.59997558594</ele>
        <time>2011-11-13T08:42:46Z</time>
      </trkpt>
      <trkpt lat="45.51593" lon="5.88482">
        <ele>728.40002441406</ele>
        <time>2011-11-13T08:42:54Z</time>
      </trkpt>
      <trkpt lat="45.51594" lon="5.8848">
        <ele>728.40002441406</ele>
        <time>2011-11-13T08:43:05Z</time>
      </trkpt>
      <trkpt lat="45.51595" lon="5.88479">
        <ele>728.40002441406</ele>
        <time>2011-11-13T08:43:12Z</time>
      </trkpt>
      <trkpt lat="45.51595" lon="5.88478">
        <ele>728.40002441406</ele>
        <time>2011-11-13T08:43:18Z</time>
      </trkpt>
      <trkpt lat="45.51596" lon="5.88476">
        <ele>728.40002441406</ele>
        <time>2011-11-13T08:43:19Z</time>
      </trkpt>
      <trkpt lat="45.516" lon="5.88464">
        <ele>728.40002441406</ele>
        <time>2011-11-13T08:43:24Z</time>
      </trkpt>
      <trkpt lat="45.51601" lon="5.88457">
        <ele>728.40002441406</ele>
        <time>2011-11-13T08:43:26Z</time>
      </trkpt>
      <trkpt lat="45.51602" lon="5.88452">
        <ele>728.40002441406</ele>
        <time>2011-11-13T08:43:28Z</time>
      </trkpt>
      <trkpt lat="45.51595" lon="5.88435">
        <ele>728.40002441406</ele>
        <time>2011-11-13T08:43:35Z</time>
      </trkpt>
      <trkpt lat="45.51593" lon="5.88433">
        <ele>728.40002441406</ele>
        <time>2011-11-13T08:43:36Z</time>
      </trkpt>
      <trkpt lat="45.5159" lon="5.88423">
        <ele>728.40002441406</ele>
        <time>2011-11-13T08:43:40Z</time>
      </trkpt>
      <trkpt lat="45.5159" lon="5.88418">
        <ele>728.40002441406</ele>
        <time>2011-11-13T08:43:42Z</time>
      </trkpt>
      <trkpt lat="45.51587" lon="5.88403">
        <ele>728.40002441406</ele>
        <time>2011-11-13T08:43:49Z</time>
      </trkpt>
      <trkpt lat="45.5158" lon="5.88392">
        <ele>728.40002441406</ele>
        <time>2011-11-13T08:43:55Z</time>
      </trkpt>
      <trkpt lat="45.5157" lon="5.88389">
        <ele>728.40002441406</ele>
        <time>2011-11-13T08:44:02Z</time>
      </trkpt>
      <trkpt lat="45.51561" lon="5.88387">
        <ele>728.40002441406</ele>
        <time>2011-11-13T08:44:07Z</time>
      </trkpt>
      <trkpt lat="45.51552" lon="5.88383">
        <ele>729.59997558594</ele>
        <time>2011-11-13T08:44:13Z</time>
      </trkpt>
      <trkpt lat="45.51551" lon="5.88382">
        <ele>729.59997558594</ele>
        <time>2011-11-13T08:44:14Z</time>
      </trkpt>
      <trkpt lat="45.51548" lon="5.88379">
        <ele>730</ele>
        <time>2011-11-13T08:44:17Z</time>
      </trkpt>
      <trkpt lat="45.51538" lon="5.88371">
        <ele>730.40002441406</ele>
        <time>2011-11-13T08:44:25Z</time>
      </trkpt>
      <trkpt lat="45.51536" lon="5.8837">
        <ele>730.40002441406</ele>
        <time>2011-11-13T08:44:26Z</time>
      </trkpt>
      <trkpt lat="45.51527" lon="5.88363">
        <ele>730.59997558594</ele>
        <time>2011-11-13T08:44:32Z</time>
      </trkpt>
      <trkpt lat="45.51517" lon="5.88359">
        <ele>731.20001220703</ele>
        <time>2011-11-13T08:44:38Z</time>
      </trkpt>
      <trkpt lat="45.51501" lon="5.88357">
        <ele>732</ele>
        <time>2011-11-13T08:44:46Z</time>
      </trkpt>
      <trkpt lat="45.51492" lon="5.88355">
        <ele>732.59997558594</ele>
        <time>2011-11-13T08:44:52Z</time>
      </trkpt>
      <trkpt lat="45.5149" lon="5.88354">
        <ele>732.79998779297</ele>
        <time>2011-11-13T08:44:53Z</time>
      </trkpt>
      <trkpt lat="45.51479" lon="5.88347">
        <ele>733.59997558594</ele>
        <time>2011-11-13T08:44:58Z</time>
      </trkpt>
      <trkpt lat="45.51477" lon="5.88346">
        <ele>733.79998779297</ele>
        <time>2011-11-13T08:44:59Z</time>
      </trkpt>
      <trkpt lat="45.51462" lon="5.88337">
        <ele>734.40002441406</ele>
        <time>2011-11-13T08:45:05Z</time>
      </trkpt>
      <trkpt lat="45.51449" lon="5.88329">
        <ele>735.40002441406</ele>
        <time>2011-11-13T08:45:10Z</time>
      </trkpt>
      <trkpt lat="45.51442" lon="5.88324">
        <ele>735.79998779297</ele>
        <time>2011-11-13T08:45:13Z</time>
      </trkpt>
      <trkpt lat="45.51435" lon="5.88319">
        <ele>736.20001220703</ele>
        <time>2011-11-13T08:45:16Z</time>
      </trkpt>
      <trkpt lat="45.51426" lon="5.88315">
        <ele>736.40002441406</ele>
        <time>2011-11-13T08:45:20Z</time>
      </trkpt>
      <trkpt lat="45.51417" lon="5.88312">
        <ele>736.59997558594</ele>
        <time>2011-11-13T08:45:25Z</time>
      </trkpt>
      <trkpt lat="45.51408" lon="5.88309">
        <ele>736.79998779297</ele>
        <time>2011-11-13T08:45:31Z</time>
      </trkpt>
      <trkpt lat="45.51398" lon="5.88304">
        <ele>737.59997558594</ele>
        <time>2011-11-13T08:45:38Z</time>
      </trkpt>
      <trkpt lat="45.51386" lon="5.88302">
        <ele>738.20001220703</ele>
        <time>2011-11-13T08:45:45Z</time>
      </trkpt>
      <trkpt lat="45.51378" lon="5.88303">
        <ele>738.59997558594</ele>
        <time>2011-11-13T08:45:50Z</time>
      </trkpt>
      <trkpt lat="45.51368" lon="5.88303">
        <ele>738.79998779297</ele>
        <time>2011-11-13T08:45:57Z</time>
      </trkpt>
      <trkpt lat="45.51367" lon="5.88304">
        <ele>738.79998779297</ele>
        <time>2011-11-13T08:45:58Z</time>
      </trkpt>
      <trkpt lat="45.51358" lon="5.88305">
        <ele>739</ele>
        <time>2011-11-13T08:46:04Z</time>
      </trkpt>
      <trkpt lat="45.51357" lon="5.88305">
        <ele>739.20001220703</ele>
        <time>2011-11-13T08:46:05Z</time>
      </trkpt>
      <trkpt lat="45.51353" lon="5.88304">
        <ele>739.79998779297</ele>
        <time>2011-11-13T08:46:08Z</time>
      </trkpt>
      <trkpt lat="45.5135" lon="5.88302">
        <ele>740.20001220703</ele>
        <time>2011-11-13T08:46:11Z</time>
      </trkpt>
      <trkpt lat="45.51344" lon="5.88297">
        <ele>740.59997558594</ele>
        <time>2011-11-13T08:46:17Z</time>
      </trkpt>
      <trkpt lat="45.51343" lon="5.88296">
        <ele>740.59997558594</ele>
        <time>2011-11-13T08:46:18Z</time>
      </trkpt>
      <trkpt lat="45.51336" lon="5.88287">
        <ele>741</ele>
        <time>2011-11-13T08:46:25Z</time>
      </trkpt>
      <trkpt lat="45.51334" lon="5.88284">
        <ele>741.40002441406</ele>
        <time>2011-11-13T08:46:27Z</time>
      </trkpt>
      <trkpt lat="45.51332" lon="5.88277">
        <ele>742</ele>
        <time>2011-11-13T08:46:31Z</time>
      </trkpt>
      <trkpt lat="45.51331" lon="5.88272">
        <ele>742.20001220703</ele>
        <time>2011-11-13T08:46:33Z</time>
      </trkpt>
      <trkpt lat="45.51329" lon="5.88267">
        <ele>742.40002441406</ele>
        <time>2011-11-13T08:46:36Z</time>
      </trkpt>
      <trkpt lat="45.51325" lon="5.88262">
        <ele>743.40002441406</ele>
        <time>2011-11-13T08:46:41Z</time>
      </trkpt>
      <trkpt lat="45.51318" lon="5.88257">
        <ele>744.20001220703</ele>
        <time>2011-11-13T08:46:47Z</time>
      </trkpt>
      <trkpt lat="45.51312" lon="5.88256">
        <ele>745</ele>
        <time>2011-11-13T08:46:52Z</time>
      </trkpt>
      <trkpt lat="45.51308" lon="5.88257">
        <ele>745.79998779297</ele>
        <time>2011-11-13T08:46:56Z</time>
      </trkpt>
      <trkpt lat="45.51307" lon="5.88257">
        <ele>746</ele>
        <time>2011-11-13T08:46:57Z</time>
      </trkpt>
      <trkpt lat="45.51302" lon="5.88261">
        <ele>747.40002441406</ele>
        <time>2011-11-13T08:47:03Z</time>
      </trkpt>
      <trkpt lat="45.51295" lon="5.88261">
        <ele>748.59997558594</ele>
        <time>2011-11-13T08:47:08Z</time>
      </trkpt>
      <trkpt lat="45.51292" lon="5.88259">
        <ele>749.20001220703</ele>
        <time>2011-11-13T08:47:10Z</time>
      </trkpt>
      <trkpt lat="45.51291" lon="5.88258">
        <ele>749.79998779297</ele>
        <time>2011-11-13T08:47:12Z</time>
      </trkpt>
      <trkpt lat="45.51287" lon="5.88252">
        <ele>751.20001220703</ele>
        <time>2011-11-13T08:47:17Z</time>
      </trkpt>
      <trkpt lat="45.51283" lon="5.88245">
        <ele>752.59997558594</ele>
        <time>2011-11-13T08:47:23Z</time>
      </trkpt>
      <trkpt lat="45.51283" lon="5.88244">
        <ele>753</ele>
        <time>2011-11-13T08:47:24Z</time>
      </trkpt>
      <trkpt lat="45.51282" lon="5.88243">
        <ele>753.20001220703</ele>
        <time>2011-11-13T08:47:25Z</time>
      </trkpt>
      <trkpt lat="45.51279" lon="5.88238">
        <ele>754</ele>
        <time>2011-11-13T08:47:29Z</time>
      </trkpt>
      <trkpt lat="45.51274" lon="5.88231">
        <ele>755.59997558594</ele>
        <time>2011-11-13T08:47:35Z</time>
      </trkpt>
      <trkpt lat="45.51267" lon="5.88227">
        <ele>756.79998779297</ele>
        <time>2011-11-13T08:47:41Z</time>
      </trkpt>
      <trkpt lat="45.51263" lon="5.88226">
        <ele>757.59997558594</ele>
        <time>2011-11-13T08:47:44Z</time>
      </trkpt>
      <trkpt lat="45.51259" lon="5.88227">
        <ele>758.59997558594</ele>
        <time>2011-11-13T08:47:48Z</time>
      </trkpt>
      <trkpt lat="45.51252" lon="5.88226">
        <ele>760.20001220703</ele>
        <time>2011-11-13T08:47:54Z</time>
      </trkpt>
      <trkpt lat="45.51251" lon="5.88226">
        <ele>760.59997558594</ele>
        <time>2011-11-13T08:47:55Z</time>
      </trkpt>
      <trkpt lat="45.51249" lon="5.88226">
        <ele>761.59997558594</ele>
        <time>2011-11-13T08:47:58Z</time>
      </trkpt>
      <trkpt lat="45.51244" lon="5.88222">
        <ele>762.40002441406</ele>
        <time>2011-11-13T08:48:02Z</time>
      </trkpt>
      <trkpt lat="45.51233" lon="5.88219">
        <ele>764.20001220703</ele>
        <time>2011-11-13T08:48:08Z</time>
      </trkpt>
      <trkpt lat="45.51225" lon="5.88222">
        <ele>765.79998779297</ele>
        <time>2011-11-13T08:48:13Z</time>
      </trkpt>
      <trkpt lat="45.51221" lon="5.88224">
        <ele>766.40002441406</ele>
        <time>2011-11-13T08:48:16Z</time>
      </trkpt>
      <trkpt lat="45.51219" lon="5.88227">
        <ele>767.20001220703</ele>
        <time>2011-11-13T08:48:18Z</time>
      </trkpt>
      <trkpt lat="45.51215" lon="5.8823">
        <ele>768.40002441406</ele>
        <time>2011-11-13T08:48:22Z</time>
      </trkpt>
      <trkpt lat="45.51207" lon="5.88237">
        <ele>770.40002441406</ele>
        <time>2011-11-13T08:48:30Z</time>
      </trkpt>
      <trkpt lat="45.51204" lon="5.88237">
        <ele>770.79998779297</ele>
        <time>2011-11-13T08:48:32Z</time>
      </trkpt>
      <trkpt lat="45.51196" lon="5.88242">
        <ele>772.59997558594</ele>
        <time>2011-11-13T08:48:39Z</time>
      </trkpt>
      <trkpt lat="45.51186" lon="5.88238">
        <ele>773.79998779297</ele>
        <time>2011-11-13T08:48:45Z</time>
      </trkpt>
      <trkpt lat="45.5118" lon="5.88233">
        <ele>775.20001220703</ele>
        <time>2011-11-13T08:48:50Z</time>
      </trkpt>
      <trkpt lat="45.51178" lon="5.88232">
        <ele>775.20001220703</ele>
        <time>2011-11-13T08:48:51Z</time>
      </trkpt>
      <trkpt lat="45.51175" lon="5.88228">
        <ele>776.59997558594</ele>
        <time>2011-11-13T08:48:56Z</time>
      </trkpt>
      <trkpt lat="45.5117" lon="5.88223">
        <ele>777.40002441406</ele>
        <time>2011-11-13T08:49:00Z</time>
      </trkpt>
      <trkpt lat="45.51162" lon="5.88217">
        <ele>779.20001220703</ele>
        <time>2011-11-13T08:49:07Z</time>
      </trkpt>
      <trkpt lat="45.51162" lon="5.88217">
        <ele>779.40002441406</ele>
        <time>2011-11-13T08:49:08Z</time>
      </trkpt>
      <trkpt lat="45.51157" lon="5.88215">
        <ele>780</ele>
        <time>2011-11-13T08:49:12Z</time>
      </trkpt>
      <trkpt lat="45.51154" lon="5.88215">
        <ele>780.59997558594</ele>
        <time>2011-11-13T08:49:14Z</time>
      </trkpt>
      <trkpt lat="45.51148" lon="5.88214">
        <ele>781.79998779297</ele>
        <time>2011-11-13T08:49:19Z</time>
      </trkpt>
      <trkpt lat="45.51146" lon="5.88214">
        <ele>782</ele>
        <time>2011-11-13T08:49:21Z</time>
      </trkpt>
      <trkpt lat="45.51144" lon="5.88214">
        <ele>782.79998779297</ele>
        <time>2011-11-13T08:49:24Z</time>
      </trkpt>
      <trkpt lat="45.51136" lon="5.88213">
        <ele>784</ele>
        <time>2011-11-13T08:49:31Z</time>
      </trkpt>
      <trkpt lat="45.51132" lon="5.88214">
        <ele>785.40002441406</ele>
        <time>2011-11-13T08:49:36Z</time>
      </trkpt>
      <trkpt lat="45.51125" lon="5.88214">
        <ele>787.40002441406</ele>
        <time>2011-11-13T08:49:43Z</time>
      </trkpt>
      <trkpt lat="45.51118" lon="5.88216">
        <ele>789.40002441406</ele>
        <time>2011-11-13T08:49:50Z</time>
      </trkpt>
      <trkpt lat="45.51113" lon="5.88214">
        <ele>790.40002441406</ele>
        <time>2011-11-13T08:49:54Z</time>
      </trkpt>
      <trkpt lat="45.51109" lon="5.88211">
        <ele>791.79998779297</ele>
        <time>2011-11-13T08:49:58Z</time>
      </trkpt>
      <trkpt lat="45.51108" lon="5.8821">
        <ele>792</ele>
        <time>2011-11-13T08:49:59Z</time>
      </trkpt>
      <trkpt lat="45.51103" lon="5.88205">
        <ele>793</ele>
        <time>2011-11-13T08:50:03Z</time>
      </trkpt>
      <trkpt lat="45.51096" lon="5.88198">
        <ele>794.20001220703</ele>
        <time>2011-11-13T08:50:08Z</time>
      </trkpt>
      <trkpt lat="45.51093" lon="5.88196">
        <ele>794.40002441406</ele>
        <time>2011-11-13T08:50:09Z</time>
      </trkpt>
      <trkpt lat="45.51084" lon="5.88192">
        <ele>796.20001220703</ele>
        <time>2011-11-13T08:50:15Z</time>
      </trkpt>
      <trkpt lat="45.51081" lon="5.8819">
        <ele>796.59997558594</ele>
        <time>2011-11-13T08:50:17Z</time>
      </trkpt>
      <trkpt lat="45.51074" lon="5.88184">
        <ele>798.40002441406</ele>
        <time>2011-11-13T08:50:23Z</time>
      </trkpt>
      <trkpt lat="45.51071" lon="5.88181">
        <ele>799.20001220703</ele>
        <time>2011-11-13T08:50:26Z</time>
      </trkpt>
      <trkpt lat="45.51064" lon="5.88175">
        <ele>800.79998779297</ele>
        <time>2011-11-13T08:50:32Z</time>
      </trkpt>
      <trkpt lat="45.5106" lon="5.88169">
        <ele>802.20001220703</ele>
        <time>2011-11-13T08:50:36Z</time>
      </trkpt>
      <trkpt lat="45.51057" lon="5.88164">
        <ele>804.20001220703</ele>
        <time>2011-11-13T08:50:43Z</time>
      </trkpt>
      <trkpt lat="45.51056" lon="5.88164">
        <ele>804.40002441406</ele>
        <time>2011-11-13T08:50:44Z</time>
      </trkpt>
      <trkpt lat="45.51051" lon="5.88161">
        <ele>805.79998779297</ele>
        <time>2011-11-13T08:50:49Z</time>
      </trkpt>
      <trkpt lat="45.5105" lon="5.8816">
        <ele>806</ele>
        <time>2011-11-13T08:50:50Z</time>
      </trkpt>
      <trkpt lat="45.51045" lon="5.88158">
        <ele>807</ele>
        <time>2011-11-13T08:50:54Z</time>
      </trkpt>
      <trkpt lat="45.51042" lon="5.88154">
        <ele>808.59997558594</ele>
        <time>2011-11-13T08:50:59Z</time>
      </trkpt>
      <trkpt lat="45.51038" lon="5.88151">
        <ele>810</ele>
        <time>2011-11-13T08:51:03Z</time>
      </trkpt>
      <trkpt lat="45.51036" lon="5.88149">
        <ele>810.59997558594</ele>
        <time>2011-11-13T08:51:05Z</time>
      </trkpt>
      <trkpt lat="45.51031" lon="5.88145">
        <ele>812.79998779297</ele>
        <time>2011-11-13T08:51:11Z</time>
      </trkpt>
      <trkpt lat="45.51027" lon="5.88142">
        <ele>814.59997558594</ele>
        <time>2011-11-13T08:51:16Z</time>
      </trkpt>
      <trkpt lat="45.51023" lon="5.88139">
        <ele>816.40002441406</ele>
        <time>2011-11-13T08:51:21Z</time>
      </trkpt>
      <trkpt lat="45.51014" lon="5.88133">
        <ele>820</ele>
        <time>2011-11-13T08:51:32Z</time>
      </trkpt>
      <trkpt lat="45.51014" lon="5.88133">
        <ele>820.20001220703</ele>
        <time>2011-11-13T08:51:33Z</time>
      </trkpt>
      <trkpt lat="45.5101" lon="5.88131">
        <ele>821.40002441406</ele>
        <time>2011-11-13T08:51:37Z</time>
      </trkpt>
      <trkpt lat="45.51008" lon="5.88131">
        <ele>822</ele>
        <time>2011-11-13T08:51:39Z</time>
      </trkpt>
      <trkpt lat="45.51003" lon="5.88129">
        <ele>823.20001220703</ele>
        <time>2011-11-13T08:51:44Z</time>
      </trkpt>
      <trkpt lat="45.50998" lon="5.88129">
        <ele>824.79998779297</ele>
        <time>2011-11-13T08:51:50Z</time>
      </trkpt>
      <trkpt lat="45.5099" lon="5.8813">
        <ele>826.79998779297</ele>
        <time>2011-11-13T08:51:58Z</time>
      </trkpt>
      <trkpt lat="45.50989" lon="5.8813">
        <ele>827</ele>
        <time>2011-11-13T08:51:59Z</time>
      </trkpt>
      <trkpt lat="45.50983" lon="5.88129">
        <ele>828.59997558594</ele>
        <time>2011-11-13T08:52:05Z</time>
      </trkpt>
      <trkpt lat="45.50981" lon="5.88129">
        <ele>829</ele>
        <time>2011-11-13T08:52:07Z</time>
      </trkpt>
      <trkpt lat="45.5098" lon="5.88129">
        <ele>829.40002441406</ele>
        <time>2011-11-13T08:52:09Z</time>
      </trkpt>
      <trkpt lat="45.50975" lon="5.88131">
        <ele>830.79998779297</ele>
        <time>2011-11-13T08:52:15Z</time>
      </trkpt>
      <trkpt lat="45.5097" lon="5.88137">
        <ele>831.79998779297</ele>
        <time>2011-11-13T08:52:21Z</time>
      </trkpt>
      <trkpt lat="45.50968" lon="5.88138">
        <ele>832.20001220703</ele>
        <time>2011-11-13T08:52:23Z</time>
      </trkpt>
      <trkpt lat="45.50965" lon="5.88139">
        <ele>833</ele>
        <time>2011-11-13T08:52:26Z</time>
      </trkpt>
      <trkpt lat="45.50959" lon="5.88137">
        <ele>833.79998779297</ele>
        <time>2011-11-13T08:52:31Z</time>
      </trkpt>
      <trkpt lat="45.50956" lon="5.88136">
        <ele>834.20001220703</ele>
        <time>2011-11-13T08:52:35Z</time>
      </trkpt>
      <trkpt lat="45.50954" lon="5.88136">
        <ele>834.59997558594</ele>
        <time>2011-11-13T08:52:36Z</time>
      </trkpt>
      <trkpt lat="45.50946" lon="5.88136">
        <ele>835.59997558594</ele>
        <time>2011-11-13T08:52:41Z</time>
      </trkpt>
      <trkpt lat="45.50932" lon="5.88139">
        <ele>836.40002441406</ele>
        <time>2011-11-13T08:52:48Z</time>
      </trkpt>
      <trkpt lat="45.50917" lon="5.88145">
        <ele>837.40002441406</ele>
        <time>2011-11-13T08:52:55Z</time>
      </trkpt>
      <trkpt lat="45.50908" lon="5.88147">
        <ele>838.20001220703</ele>
        <time>2011-11-13T08:53:01Z</time>
      </trkpt>
      <trkpt lat="45.509" lon="5.88148">
        <ele>839.40002441406</ele>
        <time>2011-11-13T08:53:08Z</time>
      </trkpt>
      <trkpt lat="45.50891" lon="5.88147">
        <ele>840.59997558594</ele>
        <time>2011-11-13T08:53:15Z</time>
      </trkpt>
      <trkpt lat="45.5089" lon="5.88147">
        <ele>841.20001220703</ele>
        <time>2011-11-13T08:53:17Z</time>
      </trkpt>
      <trkpt lat="45.50881" lon="5.88144">
        <ele>843.40002441406</ele>
        <time>2011-11-13T08:53:26Z</time>
      </trkpt>
      <trkpt lat="45.50877" lon="5.88143">
        <ele>844.59997558594</ele>
        <time>2011-11-13T08:53:31Z</time>
      </trkpt>
      <trkpt lat="45.50872" lon="5.88142">
        <ele>846.20001220703</ele>
        <time>2011-11-13T08:53:37Z</time>
      </trkpt>
      <trkpt lat="45.50871" lon="5.88141">
        <ele>846.20001220703</ele>
        <time>2011-11-13T08:53:38Z</time>
      </trkpt>
      <trkpt lat="45.50866" lon="5.88141">
        <ele>847.20001220703</ele>
        <time>2011-11-13T08:53:44Z</time>
      </trkpt>
      <trkpt lat="45.50865" lon="5.88141">
        <ele>847.59997558594</ele>
        <time>2011-11-13T08:53:45Z</time>
      </trkpt>
      <trkpt lat="45.50862" lon="5.88139">
        <ele>848.59997558594</ele>
        <time>2011-11-13T08:53:50Z</time>
      </trkpt>
      <trkpt lat="45.50856" lon="5.88135">
        <ele>849.20001220703</ele>
        <time>2011-11-13T08:53:57Z</time>
      </trkpt>
      <trkpt lat="45.50855" lon="5.88135">
        <ele>849.40002441406</ele>
        <time>2011-11-13T08:53:58Z</time>
      </trkpt>
      <trkpt lat="45.50851" lon="5.8813">
        <ele>849.59997558594</ele>
        <time>2011-11-13T08:54:05Z</time>
      </trkpt>
      <trkpt lat="45.50847" lon="5.88127">
        <ele>849.79998779297</ele>
        <time>2011-11-13T08:54:09Z</time>
      </trkpt>
      <trkpt lat="45.50842" lon="5.88126">
        <ele>850.59997558594</ele>
        <time>2011-11-13T08:54:16Z</time>
      </trkpt>
      <trkpt lat="45.50838" lon="5.88125">
        <ele>851.20001220703</ele>
        <time>2011-11-13T08:54:22Z</time>
      </trkpt>
      <trkpt lat="45.50833" lon="5.88125">
        <ele>852.20001220703</ele>
        <time>2011-11-13T08:54:28Z</time>
      </trkpt>
      <trkpt lat="45.50828" lon="5.88123">
        <ele>853.79998779297</ele>
        <time>2011-11-13T08:54:34Z</time>
      </trkpt>
      <trkpt lat="45.50825" lon="5.88119">
        <ele>854.59997558594</ele>
        <time>2011-11-13T08:54:37Z</time>
      </trkpt>
      <trkpt lat="45.50813" lon="5.88114">
        <ele>857</ele>
        <time>2011-11-13T08:54:44Z</time>
      </trkpt>
      <trkpt lat="45.508" lon="5.88115">
        <ele>859.40002441406</ele>
        <time>2011-11-13T08:54:51Z</time>
      </trkpt>
      <trkpt lat="45.50789" lon="5.88116">
        <ele>861.59997558594</ele>
        <time>2011-11-13T08:54:57Z</time>
      </trkpt>
      <trkpt lat="45.5078" lon="5.88116">
        <ele>863.59997558594</ele>
        <time>2011-11-13T08:55:03Z</time>
      </trkpt>
      <trkpt lat="45.50779" lon="5.88115">
        <ele>864</ele>
        <time>2011-11-13T08:55:04Z</time>
      </trkpt>
      <trkpt lat="45.50774" lon="5.8811">
        <ele>865</ele>
        <time>2011-11-13T08:55:08Z</time>
      </trkpt>
      <trkpt lat="45.50764" lon="5.88101">
        <ele>866.79998779297</ele>
        <time>2011-11-13T08:55:16Z</time>
      </trkpt>
      <trkpt lat="45.50755" lon="5.88096">
        <ele>868</ele>
        <time>2011-11-13T08:55:23Z</time>
      </trkpt>
      <trkpt lat="45.50753" lon="5.88096">
        <ele>868.20001220703</ele>
        <time>2011-11-13T08:55:24Z</time>
      </trkpt>
      <trkpt lat="45.50744" lon="5.88091">
        <ele>869.59997558594</ele>
        <time>2011-11-13T08:55:31Z</time>
      </trkpt>
      <trkpt lat="45.50739" lon="5.88087">
        <ele>870.20001220703</ele>
        <time>2011-11-13T08:55:36Z</time>
      </trkpt>
      <trkpt lat="45.50735" lon="5.88085">
        <ele>870.79998779297</ele>
        <time>2011-11-13T08:55:41Z</time>
      </trkpt>
      <trkpt lat="45.50733" lon="5.88084">
        <ele>871.40002441406</ele>
        <time>2011-11-13T08:55:43Z</time>
      </trkpt>
      <trkpt lat="45.50727" lon="5.88083">
        <ele>872.20001220703</ele>
        <time>2011-11-13T08:55:48Z</time>
      </trkpt>
      <trkpt lat="45.50723" lon="5.8808">
        <ele>872.59997558594</ele>
        <time>2011-11-13T08:55:54Z</time>
      </trkpt>
      <trkpt lat="45.50722" lon="5.8808">
        <ele>872.79998779297</ele>
        <time>2011-11-13T08:55:55Z</time>
      </trkpt>
      <trkpt lat="45.50718" lon="5.88076">
        <ele>873.40002441406</ele>
        <time>2011-11-13T08:56:00Z</time>
      </trkpt>
      <trkpt lat="45.50716" lon="5.88075">
        <ele>873.59997558594</ele>
        <time>2011-11-13T08:56:02Z</time>
      </trkpt>
      <trkpt lat="45.50711" lon="5.8807">
        <ele>874.59997558594</ele>
        <time>2011-11-13T08:56:09Z</time>
      </trkpt>
      <trkpt lat="45.50707" lon="5.88069">
        <ele>874.79998779297</ele>
        <time>2011-11-13T08:56:14Z</time>
      </trkpt>
      <trkpt lat="45.50706" lon="5.88069">
        <ele>874.79998779297</ele>
        <time>2011-11-13T08:56:15Z</time>
      </trkpt>
      <trkpt lat="45.50703" lon="5.88068">
        <ele>875</ele>
        <time>2011-11-13T08:56:18Z</time>
      </trkpt>
      <trkpt lat="45.50699" lon="5.88066">
        <ele>875.59997558594</ele>
        <time>2011-11-13T08:56:23Z</time>
      </trkpt>
      <trkpt lat="45.50695" lon="5.88063">
        <ele>876.20001220703</ele>
        <time>2011-11-13T08:56:26Z</time>
      </trkpt>
      <trkpt lat="45.5069" lon="5.88058">
        <ele>876.40002441406</ele>
        <time>2011-11-13T08:56:29Z</time>
      </trkpt>
      <trkpt lat="45.50689" lon="5.88054">
        <ele>876.59997558594</ele>
        <time>2011-11-13T08:56:31Z</time>
      </trkpt>
      <trkpt lat="45.50684" lon="5.88046">
        <ele>876.79998779297</ele>
        <time>2011-11-13T08:56:35Z</time>
      </trkpt>
      <trkpt lat="45.50681" lon="5.88035">
        <ele>877</ele>
        <time>2011-11-13T08:56:40Z</time>
      </trkpt>
      <trkpt lat="45.50679" lon="5.88033">
        <ele>877.20001220703</ele>
        <time>2011-11-13T08:56:41Z</time>
      </trkpt>
      <trkpt lat="45.50675" lon="5.88028">
        <ele>877.20001220703</ele>
        <time>2011-11-13T08:56:45Z</time>
      </trkpt>
      <trkpt lat="45.50666" lon="5.88023">
        <ele>877.59997558594</ele>
        <time>2011-11-13T08:56:52Z</time>
      </trkpt>
      <trkpt lat="45.50658" lon="5.8802">
        <ele>878.59997558594</ele>
        <time>2011-11-13T08:56:59Z</time>
      </trkpt>
      <trkpt lat="45.50657" lon="5.88019">
        <ele>878.59997558594</ele>
        <time>2011-11-13T08:57:00Z</time>
      </trkpt>
      <trkpt lat="45.50655" lon="5.88017">
        <ele>878.79998779297</ele>
        <time>2011-11-13T08:57:03Z</time>
      </trkpt>
      <trkpt lat="45.50653" lon="5.88015">
        <ele>879.20001220703</ele>
        <time>2011-11-13T08:57:05Z</time>
      </trkpt>
      <trkpt lat="45.5065" lon="5.88011">
        <ele>880</ele>
        <time>2011-11-13T08:57:09Z</time>
      </trkpt>
      <trkpt lat="45.50648" lon="5.88009">
        <ele>880.20001220703</ele>
        <time>2011-11-13T08:57:11Z</time>
      </trkpt>
      <trkpt lat="45.50643" lon="5.88002">
        <ele>881.59997558594</ele>
        <time>2011-11-13T08:57:17Z</time>
      </trkpt>
      <trkpt lat="45.50638" lon="5.87994">
        <ele>882.59997558594</ele>
        <time>2011-11-13T08:57:23Z</time>
      </trkpt>
      <trkpt lat="45.50638" lon="5.87993">
        <ele>883</ele>
        <time>2011-11-13T08:57:24Z</time>
      </trkpt>
      <trkpt lat="45.50637" lon="5.87991">
        <ele>883.40002441406</ele>
        <time>2011-11-13T08:57:26Z</time>
      </trkpt>
      <trkpt lat="45.50633" lon="5.87986">
        <ele>884.40002441406</ele>
        <time>2011-11-13T08:57:31Z</time>
      </trkpt>
      <trkpt lat="45.50632" lon="5.87985">
        <ele>884.59997558594</ele>
        <time>2011-11-13T08:57:32Z</time>
      </trkpt>
      <trkpt lat="45.5063" lon="5.87982">
        <ele>885.59997558594</ele>
        <time>2011-11-13T08:57:35Z</time>
      </trkpt>
      <trkpt lat="45.50625" lon="5.87976">
        <ele>887</ele>
        <time>2011-11-13T08:57:41Z</time>
      </trkpt>
      <trkpt lat="45.50621" lon="5.87971">
        <ele>888.40002441406</ele>
        <time>2011-11-13T08:57:46Z</time>
      </trkpt>
      <trkpt lat="45.50615" lon="5.87966">
        <ele>890.20001220703</ele>
        <time>2011-11-13T08:57:52Z</time>
      </trkpt>
      <trkpt lat="45.50613" lon="5.87965">
        <ele>891</ele>
        <time>2011-11-13T08:57:54Z</time>
      </trkpt>
      <trkpt lat="45.50611" lon="5.87963">
        <ele>891.59997558594</ele>
        <time>2011-11-13T08:57:56Z</time>
      </trkpt>
      <trkpt lat="45.50604" lon="5.87957">
        <ele>893.79998779297</ele>
        <time>2011-11-13T08:58:03Z</time>
      </trkpt>
      <trkpt lat="45.50603" lon="5.87956">
        <ele>894.20001220703</ele>
        <time>2011-11-13T08:58:04Z</time>
      </trkpt>
      <trkpt lat="45.50597" lon="5.87947">
        <ele>896.40002441406</ele>
        <time>2011-11-13T08:58:11Z</time>
      </trkpt>
      <trkpt lat="45.50593" lon="5.8794">
        <ele>898.20001220703</ele>
        <time>2011-11-13T08:58:17Z</time>
      </trkpt>
      <trkpt lat="45.50592" lon="5.87939">
        <ele>898.59997558594</ele>
        <time>2011-11-13T08:58:18Z</time>
      </trkpt>
      <trkpt lat="45.50587" lon="5.87926">
        <ele>900.59997558594</ele>
        <time>2011-11-13T08:58:26Z</time>
      </trkpt>
      <trkpt lat="45.50586" lon="5.87925">
        <ele>901</ele>
        <time>2011-11-13T08:58:27Z</time>
      </trkpt>
      <trkpt lat="45.50584" lon="5.87917">
        <ele>901.79998779297</ele>
        <time>2011-11-13T08:58:31Z</time>
      </trkpt>
      <trkpt lat="45.50584" lon="5.87916">
        <ele>902</ele>
        <time>2011-11-13T08:58:32Z</time>
      </trkpt>
      <trkpt lat="45.50583" lon="5.87914">
        <ele>902</ele>
        <time>2011-11-13T08:58:33Z</time>
      </trkpt>
      <trkpt lat="45.50582" lon="5.87905">
        <ele>903.40002441406</ele>
        <time>2011-11-13T08:58:38Z</time>
      </trkpt>
      <trkpt lat="45.50582" lon="5.87897">
        <ele>904.40002441406</ele>
        <time>2011-11-13T08:58:43Z</time>
      </trkpt>
      <trkpt lat="45.50581" lon="5.87888">
        <ele>905.20001220703</ele>
        <time>2011-11-13T08:58:46Z</time>
      </trkpt>
      <trkpt lat="45.50581" lon="5.87886">
        <ele>905.40002441406</ele>
        <time>2011-11-13T08:58:47Z</time>
      </trkpt>
      <trkpt lat="45.50582" lon="5.87879">
        <ele>907.20001220703</ele>
        <time>2011-11-13T08:58:53Z</time>
      </trkpt>
      <trkpt lat="45.50582" lon="5.87876">
        <ele>907.79998779297</ele>
        <time>2011-11-13T08:58:56Z</time>
      </trkpt>
      <trkpt lat="45.50583" lon="5.87871">
        <ele>908.79998779297</ele>
        <time>2011-11-13T08:58:59Z</time>
      </trkpt>
      <trkpt lat="45.50583" lon="5.87866">
        <ele>909.59997558594</ele>
        <time>2011-11-13T08:59:02Z</time>
      </trkpt>
      <trkpt lat="45.50582" lon="5.87858">
        <ele>911.40002441406</ele>
        <time>2011-11-13T08:59:07Z</time>
      </trkpt>
      <trkpt lat="45.50582" lon="5.87851">
        <ele>913.40002441406</ele>
        <time>2011-11-13T08:59:13Z</time>
      </trkpt>
      <trkpt lat="45.50583" lon="5.87847">
        <ele>914.20001220703</ele>
        <time>2011-11-13T08:59:15Z</time>
      </trkpt>
      <trkpt lat="45.50582" lon="5.87839">
        <ele>916.59997558594</ele>
        <time>2011-11-13T08:59:21Z</time>
      </trkpt>
      <trkpt lat="45.50581" lon="5.87826">
        <ele>920</ele>
        <time>2011-11-13T08:59:29Z</time>
      </trkpt>
      <trkpt lat="45.50579" lon="5.87814">
        <ele>923.20001220703</ele>
        <time>2011-11-13T08:59:37Z</time>
      </trkpt>
      <trkpt lat="45.50576" lon="5.87807">
        <ele>925.40002441406</ele>
        <time>2011-11-13T08:59:43Z</time>
      </trkpt>
      <trkpt lat="45.50573" lon="5.87802">
        <ele>926.59997558594</ele>
        <time>2011-11-13T08:59:47Z</time>
      </trkpt>
      <trkpt lat="45.50569" lon="5.87791">
        <ele>928.20001220703</ele>
        <time>2011-11-13T08:59:55Z</time>
      </trkpt>
      <trkpt lat="45.50568" lon="5.87788">
        <ele>928.79998779297</ele>
        <time>2011-11-13T08:59:57Z</time>
      </trkpt>
      <trkpt lat="45.50568" lon="5.8778">
        <ele>930</ele>
        <time>2011-11-13T09:00:04Z</time>
      </trkpt>
      <trkpt lat="45.50567" lon="5.87778">
        <ele>930.20001220703</ele>
        <time>2011-11-13T09:00:06Z</time>
      </trkpt>
      <trkpt lat="45.50563" lon="5.87776">
        <ele>930.59997558594</ele>
        <time>2011-11-13T09:00:12Z</time>
      </trkpt>
      <trkpt lat="45.50562" lon="5.87773">
        <ele>930.59997558594</ele>
        <time>2011-11-13T09:00:14Z</time>
      </trkpt>
      <trkpt lat="45.5056" lon="5.87764">
        <ele>931</ele>
        <time>2011-11-13T09:00:21Z</time>
      </trkpt>
      <trkpt lat="45.5056" lon="5.87762">
        <ele>931</ele>
        <time>2011-11-13T09:00:23Z</time>
      </trkpt>
      <trkpt lat="45.50559" lon="5.87754">
        <ele>931</ele>
        <time>2011-11-13T09:00:30Z</time>
      </trkpt>
      <trkpt lat="45.50559" lon="5.87749">
        <ele>931</ele>
        <time>2011-11-13T09:00:34Z</time>
      </trkpt>
      <trkpt lat="45.50558" lon="5.87741">
        <ele>931</ele>
        <time>2011-11-13T09:00:42Z</time>
      </trkpt>
      <trkpt lat="45.50557" lon="5.87733">
        <ele>932</ele>
        <time>2011-11-13T09:00:48Z</time>
      </trkpt>
      <trkpt lat="45.50557" lon="5.87732">
        <ele>932</ele>
        <time>2011-11-13T09:00:49Z</time>
      </trkpt>
      <trkpt lat="45.50558" lon="5.8773">
        <ele>932.20001220703</ele>
        <time>2011-11-13T09:00:51Z</time>
      </trkpt>
      <trkpt lat="45.50555" lon="5.87726">
        <ele>932.59997558594</ele>
        <time>2011-11-13T09:00:55Z</time>
      </trkpt>
      <trkpt lat="45.50549" lon="5.87723">
        <ele>933.79998779297</ele>
        <time>2011-11-13T09:01:01Z</time>
      </trkpt>
      <trkpt lat="45.50547" lon="5.87721">
        <ele>934</ele>
        <time>2011-11-13T09:01:03Z</time>
      </trkpt>
      <trkpt lat="45.50546" lon="5.8772">
        <ele>934.20001220703</ele>
        <time>2011-11-13T09:01:05Z</time>
      </trkpt>
      <trkpt lat="45.50543" lon="5.87719">
        <ele>934.59997558594</ele>
        <time>2011-11-13T09:01:08Z</time>
      </trkpt>
      <trkpt lat="45.50537" lon="5.87718">
        <ele>936</ele>
        <time>2011-11-13T09:01:14Z</time>
      </trkpt>
      <trkpt lat="45.50533" lon="5.87719">
        <ele>937</ele>
        <time>2011-11-13T09:01:18Z</time>
      </trkpt>
      <trkpt lat="45.50529" lon="5.87718">
        <ele>938.59997558594</ele>
        <time>2011-11-13T09:01:24Z</time>
      </trkpt>
      <trkpt lat="45.50527" lon="5.87716">
        <ele>939.40002441406</ele>
        <time>2011-11-13T09:01:27Z</time>
      </trkpt>
      <trkpt lat="45.50523" lon="5.87717">
        <ele>940</ele>
        <time>2011-11-13T09:01:30Z</time>
      </trkpt>
      <trkpt lat="45.50517" lon="5.87717">
        <ele>941.79998779297</ele>
        <time>2011-11-13T09:01:36Z</time>
      </trkpt>
      <trkpt lat="45.50511" lon="5.87719">
        <ele>943.59997558594</ele>
        <time>2011-11-13T09:01:42Z</time>
      </trkpt>
      <trkpt lat="45.5051" lon="5.87719">
        <ele>943.79998779297</ele>
        <time>2011-11-13T09:01:43Z</time>
      </trkpt>
      <trkpt lat="45.50507" lon="5.87719">
        <ele>944.79998779297</ele>
        <time>2011-11-13T09:01:46Z</time>
      </trkpt>
      <trkpt lat="45.50501" lon="5.87719">
        <ele>946.59997558594</ele>
        <time>2011-11-13T09:01:52Z</time>
      </trkpt>
      <trkpt lat="45.50495" lon="5.87718">
        <ele>948</ele>
        <time>2011-11-13T09:01:57Z</time>
      </trkpt>
      <trkpt lat="45.5049" lon="5.87717">
        <ele>950.20001220703</ele>
        <time>2011-11-13T09:02:03Z</time>
      </trkpt>
      <trkpt lat="45.50483" lon="5.87716">
        <ele>952</ele>
        <time>2011-11-13T09:02:09Z</time>
      </trkpt>
      <trkpt lat="45.50477" lon="5.87716">
        <ele>953.20001220703</ele>
        <time>2011-11-13T09:02:14Z</time>
      </trkpt>
      <trkpt lat="45.50473" lon="5.87715">
        <ele>954.40002441406</ele>
        <time>2011-11-13T09:02:18Z</time>
      </trkpt>
      <trkpt lat="45.50466" lon="5.87716">
        <ele>956.40002441406</ele>
        <time>2011-11-13T09:02:25Z</time>
      </trkpt>
      <trkpt lat="45.50465" lon="5.87716">
        <ele>956.59997558594</ele>
        <time>2011-11-13T09:02:26Z</time>
      </trkpt>
      <trkpt lat="45.50457" lon="5.87718">
        <ele>957.79998779297</ele>
        <time>2011-11-13T09:02:33Z</time>
      </trkpt>
      <trkpt lat="45.50451" lon="5.87724">
        <ele>959.20001220703</ele>
        <time>2011-11-13T09:02:39Z</time>
      </trkpt>
      <trkpt lat="45.50444" lon="5.87729">
        <ele>959.79998779297</ele>
        <time>2011-11-13T09:02:44Z</time>
      </trkpt>
      <trkpt lat="45.50443" lon="5.8773">
        <ele>960</ele>
        <time>2011-11-13T09:02:45Z</time>
      </trkpt>
      <trkpt lat="45.50437" lon="5.87734">
        <ele>960.59997558594</ele>
        <time>2011-11-13T09:02:49Z</time>
      </trkpt>
      <trkpt lat="45.50436" lon="5.87734">
        <ele>960.79998779297</ele>
        <time>2011-11-13T09:02:50Z</time>
      </trkpt>
      <trkpt lat="45.50434" lon="5.87735">
        <ele>961.20001220703</ele>
        <time>2011-11-13T09:02:52Z</time>
      </trkpt>
      <trkpt lat="45.50432" lon="5.87736">
        <ele>961.79998779297</ele>
        <time>2011-11-13T09:02:55Z</time>
      </trkpt>
      <trkpt lat="45.5043" lon="5.87737">
        <ele>962</ele>
        <time>2011-11-13T09:02:57Z</time>
      </trkpt>
      <trkpt lat="45.50423" lon="5.87742">
        <ele>962.59997558594</ele>
        <time>2011-11-13T09:03:02Z</time>
      </trkpt>
      <trkpt lat="45.5042" lon="5.87743">
        <ele>963.40002441406</ele>
        <time>2011-11-13T09:03:05Z</time>
      </trkpt>
      <trkpt lat="45.50417" lon="5.87745">
        <ele>963.59997558594</ele>
        <time>2011-11-13T09:03:07Z</time>
      </trkpt>
      <trkpt lat="45.50411" lon="5.87745">
        <ele>965.20001220703</ele>
        <time>2011-11-13T09:03:13Z</time>
      </trkpt>
      <trkpt lat="45.50406" lon="5.87745">
        <ele>966</ele>
        <time>2011-11-13T09:03:18Z</time>
      </trkpt>
      <trkpt lat="45.50401" lon="5.87748">
        <ele>967.40002441406</ele>
        <time>2011-11-13T09:03:23Z</time>
      </trkpt>
      <trkpt lat="45.504" lon="5.87748">
        <ele>967.59997558594</ele>
        <time>2011-11-13T09:03:24Z</time>
      </trkpt>
      <trkpt lat="45.50394" lon="5.87754">
        <ele>968.59997558594</ele>
        <time>2011-11-13T09:03:31Z</time>
      </trkpt>
      <trkpt lat="45.50389" lon="5.87757">
        <ele>969.79998779297</ele>
        <time>2011-11-13T09:03:36Z</time>
      </trkpt>
      <trkpt lat="45.50388" lon="5.87759">
        <ele>970.20001220703</ele>
        <time>2011-11-13T09:03:38Z</time>
      </trkpt>
      <trkpt lat="45.50385" lon="5.87763">
        <ele>970.59997558594</ele>
        <time>2011-11-13T09:03:42Z</time>
      </trkpt>
      <trkpt lat="45.50384" lon="5.87764">
        <ele>971</ele>
        <time>2011-11-13T09:03:44Z</time>
      </trkpt>
      <trkpt lat="45.50381" lon="5.87772">
        <ele>972.20001220703</ele>
        <time>2011-11-13T09:03:49Z</time>
      </trkpt>
      <trkpt lat="45.5038" lon="5.87774">
        <ele>972.40002441406</ele>
        <time>2011-11-13T09:03:51Z</time>
      </trkpt>
      <trkpt lat="45.50378" lon="5.87776">
        <ele>972.59997558594</ele>
        <time>2011-11-13T09:03:53Z</time>
      </trkpt>
      <trkpt lat="45.50375" lon="5.87776">
        <ele>973.40002441406</ele>
        <time>2011-11-13T09:03:56Z</time>
      </trkpt>
      <trkpt lat="45.50368" lon="5.87774">
        <ele>974.40002441406</ele>
        <time>2011-11-13T09:04:02Z</time>
      </trkpt>
      <trkpt lat="45.50367" lon="5.87774">
        <ele>974.59997558594</ele>
        <time>2011-11-13T09:04:03Z</time>
      </trkpt>
      <trkpt lat="45.50364" lon="5.87771">
        <ele>975</ele>
        <time>2011-11-13T09:04:06Z</time>
      </trkpt>
      <trkpt lat="45.50362" lon="5.87768">
        <ele>975.59997558594</ele>
        <time>2011-11-13T09:04:09Z</time>
      </trkpt>
      <trkpt lat="45.50359" lon="5.87762">
        <ele>976.59997558594</ele>
        <time>2011-11-13T09:04:14Z</time>
      </trkpt>
      <trkpt lat="45.50359" lon="5.87761">
        <ele>976.59997558594</ele>
        <time>2011-11-13T09:04:15Z</time>
      </trkpt>
      <trkpt lat="45.50358" lon="5.87759">
        <ele>976.79998779297</ele>
        <time>2011-11-13T09:04:17Z</time>
      </trkpt>
      <trkpt lat="45.50357" lon="5.87752">
        <ele>977.40002441406</ele>
        <time>2011-11-13T09:04:24Z</time>
      </trkpt>
      <trkpt lat="45.50355" lon="5.87747">
        <ele>977.59997558594</ele>
        <time>2011-11-13T09:04:30Z</time>
      </trkpt>
      <trkpt lat="45.50353" lon="5.87742">
        <ele>977.79998779297</ele>
        <time>2011-11-13T09:04:36Z</time>
      </trkpt>
      <trkpt lat="45.50351" lon="5.87736">
        <ele>977.79998779297</ele>
        <time>2011-11-13T09:04:42Z</time>
      </trkpt>
      <trkpt lat="45.50348" lon="5.87729">
        <ele>977.79998779297</ele>
        <time>2011-11-13T09:04:48Z</time>
      </trkpt>
      <trkpt lat="45.50344" lon="5.87724">
        <ele>977.79998779297</ele>
        <time>2011-11-13T09:04:54Z</time>
      </trkpt>
      <trkpt lat="45.50343" lon="5.87722">
        <ele>977.79998779297</ele>
        <time>2011-11-13T09:04:55Z</time>
      </trkpt>
      <trkpt lat="45.50342" lon="5.87719">
        <ele>977.79998779297</ele>
        <time>2011-11-13T09:04:58Z</time>
      </trkpt>
      <trkpt lat="45.5034" lon="5.87714">
        <ele>978.59997558594</ele>
        <time>2011-11-13T09:05:02Z</time>
      </trkpt>
      <trkpt lat="45.50339" lon="5.87709">
        <ele>979</ele>
        <time>2011-11-13T09:05:06Z</time>
      </trkpt>
      <trkpt lat="45.50339" lon="5.87707">
        <ele>979.20001220703</ele>
        <time>2011-11-13T09:05:08Z</time>
      </trkpt>
      <trkpt lat="45.50337" lon="5.87705">
        <ele>980</ele>
        <time>2011-11-13T09:05:11Z</time>
      </trkpt>
      <trkpt lat="45.50335" lon="5.87697">
        <ele>981</ele>
        <time>2011-11-13T09:05:17Z</time>
      </trkpt>
      <trkpt lat="45.50333" lon="5.87693">
        <ele>982</ele>
        <time>2011-11-13T09:05:21Z</time>
      </trkpt>
      <trkpt lat="45.50332" lon="5.87689">
        <ele>982.79998779297</ele>
        <time>2011-11-13T09:05:25Z</time>
      </trkpt>
      <trkpt lat="45.5033" lon="5.87681">
        <ele>984.20001220703</ele>
        <time>2011-11-13T09:05:31Z</time>
      </trkpt>
      <trkpt lat="45.50329" lon="5.87676">
        <ele>984.79998779297</ele>
        <time>2011-11-13T09:05:35Z</time>
      </trkpt>
      <trkpt lat="45.50328" lon="5.87668">
        <ele>986.40002441406</ele>
        <time>2011-11-13T09:05:42Z</time>
      </trkpt>
      <trkpt lat="45.50328" lon="5.87666">
        <ele>986.59997558594</ele>
        <time>2011-11-13T09:05:43Z</time>
      </trkpt>
      <trkpt lat="45.50328" lon="5.87663">
        <ele>987</ele>
        <time>2011-11-13T09:05:45Z</time>
      </trkpt>
      <trkpt lat="45.50327" lon="5.87653">
        <ele>988.59997558594</ele>
        <time>2011-11-13T09:05:51Z</time>
      </trkpt>
      <trkpt lat="45.50327" lon="5.87646">
        <ele>989.20001220703</ele>
        <time>2011-11-13T09:05:54Z</time>
      </trkpt>
      <trkpt lat="45.50325" lon="5.87634">
        <ele>991</ele>
        <time>2011-11-13T09:06:01Z</time>
      </trkpt>
      <trkpt lat="45.50321" lon="5.87625">
        <ele>992.59997558594</ele>
        <time>2011-11-13T09:06:06Z</time>
      </trkpt>
      <trkpt lat="45.50316" lon="5.87615">
        <ele>994</ele>
        <time>2011-11-13T09:06:12Z</time>
      </trkpt>
      <trkpt lat="45.50311" lon="5.87607">
        <ele>995</ele>
        <time>2011-11-13T09:06:16Z</time>
      </trkpt>
      <trkpt lat="45.5031" lon="5.87602">
        <ele>995.40002441406</ele>
        <time>2011-11-13T09:06:18Z</time>
      </trkpt>
      <trkpt lat="45.50304" lon="5.87593">
        <ele>996</ele>
        <time>2011-11-13T09:06:22Z</time>
      </trkpt>
      <trkpt lat="45.50294" lon="5.87577">
        <ele>997.40002441406</ele>
        <time>2011-11-13T09:06:29Z</time>
      </trkpt>
      <trkpt lat="45.50293" lon="5.87575">
        <ele>997.59997558594</ele>
        <time>2011-11-13T09:06:30Z</time>
      </trkpt>
      <trkpt lat="45.50287" lon="5.87567">
        <ele>998.40002441406</ele>
        <time>2011-11-13T09:06:35Z</time>
      </trkpt>
      <trkpt lat="45.50286" lon="5.87566">
        <ele>998.59997558594</ele>
        <time>2011-11-13T09:06:36Z</time>
      </trkpt>
      <trkpt lat="45.50279" lon="5.87559">
        <ele>999.79998779297</ele>
        <time>2011-11-13T09:06:41Z</time>
      </trkpt>
      <trkpt lat="45.50272" lon="5.87553">
        <ele>1001.200012207</ele>
        <time>2011-11-13T09:06:46Z</time>
      </trkpt>
      <trkpt lat="45.50267" lon="5.87546">
        <ele>1002.200012207</ele>
        <time>2011-11-13T09:06:50Z</time>
      </trkpt>
      <trkpt lat="45.50261" lon="5.87535">
        <ele>1004</ele>
        <time>2011-11-13T09:06:56Z</time>
      </trkpt>
      <trkpt lat="45.50259" lon="5.87529">
        <ele>1004.799987793</ele>
        <time>2011-11-13T09:06:59Z</time>
      </trkpt>
      <trkpt lat="45.50259" lon="5.87526">
        <ele>1005.4000244141</ele>
        <time>2011-11-13T09:07:01Z</time>
      </trkpt>
      <trkpt lat="45.50256" lon="5.87518">
        <ele>1006.4000244141</ele>
        <time>2011-11-13T09:07:06Z</time>
      </trkpt>
      <trkpt lat="45.50256" lon="5.87513">
        <ele>1006.799987793</ele>
        <time>2011-11-13T09:07:08Z</time>
      </trkpt>
      <trkpt lat="45.50256" lon="5.87506">
        <ele>1008</ele>
        <time>2011-11-13T09:07:12Z</time>
      </trkpt>
      <trkpt lat="45.50256" lon="5.87503">
        <ele>1008.4000244141</ele>
        <time>2011-11-13T09:07:14Z</time>
      </trkpt>
      <trkpt lat="45.50254" lon="5.87499">
        <ele>1008.799987793</ele>
        <time>2011-11-13T09:07:17Z</time>
      </trkpt>
      <trkpt lat="45.50253" lon="5.87496">
        <ele>1009</ele>
        <time>2011-11-13T09:07:19Z</time>
      </trkpt>
      <trkpt lat="45.50249" lon="5.87488">
        <ele>1010.200012207</ele>
        <time>2011-11-13T09:07:24Z</time>
      </trkpt>
      <trkpt lat="45.50247" lon="5.87483">
        <ele>1011</ele>
        <time>2011-11-13T09:07:28Z</time>
      </trkpt>
      <trkpt lat="45.50241" lon="5.87475">
        <ele>1012.200012207</ele>
        <time>2011-11-13T09:07:36Z</time>
      </trkpt>
      <trkpt lat="45.50241" lon="5.87474">
        <ele>1012.4000244141</ele>
        <time>2011-11-13T09:07:37Z</time>
      </trkpt>
      <trkpt lat="45.50238" lon="5.87471">
        <ele>1012.799987793</ele>
        <time>2011-11-13T09:07:40Z</time>
      </trkpt>
      <trkpt lat="45.50231" lon="5.87461">
        <ele>1014</ele>
        <time>2011-11-13T09:07:54Z</time>
      </trkpt>
      <trkpt lat="45.50227" lon="5.87458">
        <ele>1015</ele>
        <time>2011-11-13T09:08:01Z</time>
      </trkpt>
      <trkpt lat="45.50224" lon="5.87454">
        <ele>1015.5999755859</ele>
        <time>2011-11-13T09:08:06Z</time>
      </trkpt>
      <trkpt lat="45.50215" lon="5.87452">
        <ele>1016.200012207</ele>
        <time>2011-11-13T09:08:13Z</time>
      </trkpt>
      <trkpt lat="45.5021" lon="5.87452">
        <ele>1017</ele>
        <time>2011-11-13T09:08:17Z</time>
      </trkpt>
      <trkpt lat="45.50207" lon="5.87451">
        <ele>1017.200012207</ele>
        <time>2011-11-13T09:08:19Z</time>
      </trkpt>
      <trkpt lat="45.502" lon="5.8745">
        <ele>1018.4000244141</ele>
        <time>2011-11-13T09:08:24Z</time>
      </trkpt>
      <trkpt lat="45.50188" lon="5.87446">
        <ele>1020.5999755859</ele>
        <time>2011-11-13T09:08:32Z</time>
      </trkpt>
      <trkpt lat="45.50188" lon="5.87445">
        <ele>1020.799987793</ele>
        <time>2011-11-13T09:08:33Z</time>
      </trkpt>
      <trkpt lat="45.50185" lon="5.8744">
        <ele>1022.200012207</ele>
        <time>2011-11-13T09:08:38Z</time>
      </trkpt>
      <trkpt lat="45.5018" lon="5.87431">
        <ele>1023.799987793</ele>
        <time>2011-11-13T09:08:44Z</time>
      </trkpt>
      <trkpt lat="45.50177" lon="5.87425">
        <ele>1025.1999511719</ele>
        <time>2011-11-13T09:08:49Z</time>
      </trkpt>
      <trkpt lat="45.50171" lon="5.8742">
        <ele>1026.4000244141</ele>
        <time>2011-11-13T09:08:54Z</time>
      </trkpt>
      <trkpt lat="45.50165" lon="5.87419">
        <ele>1027.8000488281</ele>
        <time>2011-11-13T09:09:00Z</time>
      </trkpt>
      <trkpt lat="45.50158" lon="5.87419">
        <ele>1029.5999755859</ele>
        <time>2011-11-13T09:09:06Z</time>
      </trkpt>
      <trkpt lat="45.50153" lon="5.87419">
        <ele>1031.1999511719</ele>
        <time>2011-11-13T09:09:11Z</time>
      </trkpt>
      <trkpt lat="45.50149" lon="5.8742">
        <ele>1032.4000244141</ele>
        <time>2011-11-13T09:09:15Z</time>
      </trkpt>
      <trkpt lat="45.50142" lon="5.87419">
        <ele>1034</ele>
        <time>2011-11-13T09:09:20Z</time>
      </trkpt>
      <trkpt lat="45.50136" lon="5.87423">
        <ele>1035.5999755859</ele>
        <time>2011-11-13T09:09:25Z</time>
      </trkpt>
      <trkpt lat="45.50135" lon="5.87423">
        <ele>1036</ele>
        <time>2011-11-13T09:09:26Z</time>
      </trkpt>
      <trkpt lat="45.50127" lon="5.87425">
        <ele>1038.1999511719</ele>
        <time>2011-11-13T09:09:33Z</time>
      </trkpt>
      <trkpt lat="45.50118" lon="5.87427">
        <ele>1039.4000244141</ele>
        <time>2011-11-13T09:09:38Z</time>
      </trkpt>
      <trkpt lat="45.50107" lon="5.87427">
        <ele>1041</ele>
        <time>2011-11-13T09:09:44Z</time>
      </trkpt>
      <trkpt lat="45.50099" lon="5.87421">
        <ele>1042</ele>
        <time>2011-11-13T09:09:49Z</time>
      </trkpt>
      <trkpt lat="45.50092" lon="5.87414">
        <ele>1043</ele>
        <time>2011-11-13T09:09:53Z</time>
      </trkpt>
      <trkpt lat="45.50084" lon="5.87408">
        <ele>1043.5999755859</ele>
        <time>2011-11-13T09:09:57Z</time>
      </trkpt>
      <trkpt lat="45.50082" lon="5.87406">
        <ele>1043.8000488281</ele>
        <time>2011-11-13T09:09:59Z</time>
      </trkpt>
      <trkpt lat="45.50073" lon="5.87403">
        <ele>1044.8000488281</ele>
        <time>2011-11-13T09:10:05Z</time>
      </trkpt>
      <trkpt lat="45.50071" lon="5.874">
        <ele>1045.1999511719</ele>
        <time>2011-11-13T09:10:07Z</time>
      </trkpt>
      <trkpt lat="45.50068" lon="5.87398">
        <ele>1045.5999755859</ele>
        <time>2011-11-13T09:10:09Z</time>
      </trkpt>
      <trkpt lat="45.50058" lon="5.87393">
        <ele>1046.8000488281</ele>
        <time>2011-11-13T09:10:14Z</time>
      </trkpt>
      <trkpt lat="45.50053" lon="5.87388">
        <ele>1047.5999755859</ele>
        <time>2011-11-13T09:10:18Z</time>
      </trkpt>
      <trkpt lat="45.50052" lon="5.87387">
        <ele>1047.5999755859</ele>
        <time>2011-11-13T09:10:19Z</time>
      </trkpt>
      <trkpt lat="45.5005" lon="5.87386">
        <ele>1048</ele>
        <time>2011-11-13T09:10:21Z</time>
      </trkpt>
      <trkpt lat="45.50042" lon="5.87384">
        <ele>1048.8000488281</ele>
        <time>2011-11-13T09:10:26Z</time>
      </trkpt>
      <trkpt lat="45.50035" lon="5.87382">
        <ele>1049.8000488281</ele>
        <time>2011-11-13T09:10:31Z</time>
      </trkpt>
      <trkpt lat="45.50033" lon="5.87383">
        <ele>1049.8000488281</ele>
        <time>2011-11-13T09:10:32Z</time>
      </trkpt>
      <trkpt lat="45.5003" lon="5.87381">
        <ele>1050</ele>
        <time>2011-11-13T09:10:34Z</time>
      </trkpt>
      <trkpt lat="45.50026" lon="5.87382">
        <ele>1050.4000244141</ele>
        <time>2011-11-13T09:10:37Z</time>
      </trkpt>
      <trkpt lat="45.50019" lon="5.87379">
        <ele>1050.8000488281</ele>
        <time>2011-11-13T09:10:43Z</time>
      </trkpt>
      <trkpt lat="45.50014" lon="5.87374">
        <ele>1051</ele>
        <time>2011-11-13T09:10:49Z</time>
      </trkpt>
      <trkpt lat="45.50013" lon="5.87373">
        <ele>1051.1999511719</ele>
        <time>2011-11-13T09:10:50Z</time>
      </trkpt>
      <trkpt lat="45.50008" lon="5.87366">
        <ele>1052.1999511719</ele>
        <time>2011-11-13T09:10:57Z</time>
      </trkpt>
      <trkpt lat="45.50004" lon="5.87361">
        <ele>1052.5999755859</ele>
        <time>2011-11-13T09:11:03Z</time>
      </trkpt>
      <trkpt lat="45.49993" lon="5.87349">
        <ele>1054</ele>
        <time>2011-11-13T09:11:20Z</time>
      </trkpt>
      <trkpt lat="45.49988" lon="5.87344">
        <ele>1054.5999755859</ele>
        <time>2011-11-13T09:11:26Z</time>
      </trkpt>
      <trkpt lat="45.49984" lon="5.87339">
        <ele>1056</ele>
        <time>2011-11-13T09:11:33Z</time>
      </trkpt>
      <trkpt lat="45.49979" lon="5.87332">
        <ele>1057.8000488281</ele>
        <time>2011-11-13T09:11:41Z</time>
      </trkpt>
      <trkpt lat="45.49978" lon="5.87332">
        <ele>1058</ele>
        <time>2011-11-13T09:11:42Z</time>
      </trkpt>
      <trkpt lat="45.49973" lon="5.87326">
        <ele>1058.8000488281</ele>
        <time>2011-11-13T09:11:48Z</time>
      </trkpt>
      <trkpt lat="45.49969" lon="5.87322">
        <ele>1059.8000488281</ele>
        <time>2011-11-13T09:11:52Z</time>
      </trkpt>
      <trkpt lat="45.49966" lon="5.8732">
        <ele>1060.1999511719</ele>
        <time>2011-11-13T09:11:55Z</time>
      </trkpt>
      <trkpt lat="45.49961" lon="5.87316">
        <ele>1061.4000244141</ele>
        <time>2011-11-13T09:12:02Z</time>
      </trkpt>
      <trkpt lat="45.49953" lon="5.87314">
        <ele>1062.4000244141</ele>
        <time>2011-11-13T09:12:09Z</time>
      </trkpt>
      <trkpt lat="45.49946" lon="5.8731">
        <ele>1064</ele>
        <time>2011-11-13T09:12:15Z</time>
      </trkpt>
      <trkpt lat="45.4994" lon="5.87307">
        <ele>1065.1999511719</ele>
        <time>2011-11-13T09:12:20Z</time>
      </trkpt>
      <trkpt lat="45.49939" lon="5.87306">
        <ele>1065.4000244141</ele>
        <time>2011-11-13T09:12:21Z</time>
      </trkpt>
      <trkpt lat="45.49934" lon="5.873">
        <ele>1066.4000244141</ele>
        <time>2011-11-13T09:12:26Z</time>
      </trkpt>
      <trkpt lat="45.49928" lon="5.87293">
        <ele>1068.1999511719</ele>
        <time>2011-11-13T09:12:34Z</time>
      </trkpt>
      <trkpt lat="45.4992" lon="5.87284">
        <ele>1071</ele>
        <time>2011-11-13T09:12:48Z</time>
      </trkpt>
      <trkpt lat="45.49916" lon="5.87273">
        <ele>1073.5999755859</ele>
        <time>2011-11-13T09:12:59Z</time>
      </trkpt>
      <trkpt lat="45.49915" lon="5.87261">
        <ele>1076.8000488281</ele>
        <time>2011-11-13T09:13:12Z</time>
      </trkpt>
      <trkpt lat="45.49916" lon="5.87256">
        <ele>1078.1999511719</ele>
        <time>2011-11-13T09:13:16Z</time>
      </trkpt>
      <trkpt lat="45.49916" lon="5.87253">
        <ele>1079.1999511719</ele>
        <time>2011-11-13T09:13:19Z</time>
      </trkpt>
      <trkpt lat="45.49918" lon="5.87246">
        <ele>1081.8000488281</ele>
        <time>2011-11-13T09:13:27Z</time>
      </trkpt>
      <trkpt lat="45.49919" lon="5.87237">
        <ele>1085.4000244141</ele>
        <time>2011-11-13T09:13:40Z</time>
      </trkpt>
      <trkpt lat="45.49921" lon="5.87232">
        <ele>1086.8000488281</ele>
        <time>2011-11-13T09:13:45Z</time>
      </trkpt>
      <trkpt lat="45.49925" lon="5.87227">
        <ele>1088.1999511719</ele>
        <time>2011-11-13T09:13:52Z</time>
      </trkpt>
      <trkpt lat="45.49927" lon="5.87222">
        <ele>1089</ele>
        <time>2011-11-13T09:13:55Z</time>
      </trkpt>
      <trkpt lat="45.49929" lon="5.87219">
        <ele>1089.5999755859</ele>
        <time>2011-11-13T09:13:58Z</time>
      </trkpt>
      <trkpt lat="45.49931" lon="5.87217">
        <ele>1090</ele>
        <time>2011-11-13T09:14:00Z</time>
      </trkpt>
      <trkpt lat="45.49933" lon="5.87213">
        <ele>1090.4000244141</ele>
        <time>2011-11-13T09:14:03Z</time>
      </trkpt>
      <trkpt lat="45.49937" lon="5.8721">
        <ele>1091</ele>
        <time>2011-11-13T09:14:08Z</time>
      </trkpt>
      <trkpt lat="45.49942" lon="5.87207">
        <ele>1092.1999511719</ele>
        <time>2011-11-13T09:14:16Z</time>
      </trkpt>
      <trkpt lat="45.49948" lon="5.872">
        <ele>1093.8000488281</ele>
        <time>2011-11-13T09:14:24Z</time>
      </trkpt>
      <trkpt lat="45.49951" lon="5.87196">
        <ele>1094.5999755859</ele>
        <time>2011-11-13T09:14:30Z</time>
      </trkpt>
      <trkpt lat="45.49953" lon="5.87191">
        <ele>1095.4000244141</ele>
        <time>2011-11-13T09:14:34Z</time>
      </trkpt>
      <trkpt lat="45.49954" lon="5.87179">
        <ele>1097.8000488281</ele>
        <time>2011-11-13T09:14:48Z</time>
      </trkpt>
      <trkpt lat="45.49947" lon="5.87168">
        <ele>1101.8000488281</ele>
        <time>2011-11-13T09:15:10Z</time>
      </trkpt>
      <trkpt lat="45.49944" lon="5.87163">
        <ele>1103.4000244141</ele>
        <time>2011-11-13T09:15:16Z</time>
      </trkpt>
      <trkpt lat="45.49942" lon="5.87158">
        <ele>1104.1999511719</ele>
        <time>2011-11-13T09:15:20Z</time>
      </trkpt>
      <trkpt lat="45.4994" lon="5.87157">
        <ele>1104.4000244141</ele>
        <time>2011-11-13T09:15:21Z</time>
      </trkpt>
      <trkpt lat="45.4994" lon="5.87154">
        <ele>1104.5999755859</ele>
        <time>2011-11-13T09:15:23Z</time>
      </trkpt>
      <trkpt lat="45.49933" lon="5.87148">
        <ele>1106</ele>
        <time>2011-11-13T09:15:29Z</time>
      </trkpt>
      <trkpt lat="45.49928" lon="5.87137">
        <ele>1106.8000488281</ele>
        <time>2011-11-13T09:15:34Z</time>
      </trkpt>
      <trkpt lat="45.49924" lon="5.8713">
        <ele>1107.8000488281</ele>
        <time>2011-11-13T09:15:38Z</time>
      </trkpt>
      <trkpt lat="45.49917" lon="5.87127">
        <ele>1108.5999755859</ele>
        <time>2011-11-13T09:15:42Z</time>
      </trkpt>
      <trkpt lat="45.49908" lon="5.87121">
        <ele>1109.8000488281</ele>
        <time>2011-11-13T09:15:47Z</time>
      </trkpt>
      <trkpt lat="45.49901" lon="5.87113">
        <ele>1110.5999755859</ele>
        <time>2011-11-13T09:15:51Z</time>
      </trkpt>
      <trkpt lat="45.499" lon="5.87111">
        <ele>1111</ele>
        <time>2011-11-13T09:15:52Z</time>
      </trkpt>
      <trkpt lat="45.49894" lon="5.87104">
        <ele>1112</ele>
        <time>2011-11-13T09:15:55Z</time>
      </trkpt>
      <trkpt lat="45.49891" lon="5.87099">
        <ele>1112.8000488281</ele>
        <time>2011-11-13T09:15:58Z</time>
      </trkpt>
      <trkpt lat="45.49886" lon="5.87091">
        <ele>1114.4000244141</ele>
        <time>2011-11-13T09:16:03Z</time>
      </trkpt>
      <trkpt lat="45.49883" lon="5.87085">
        <ele>1116.1999511719</ele>
        <time>2011-11-13T09:16:08Z</time>
      </trkpt>
      <trkpt lat="45.49883" lon="5.87083">
        <ele>1116.4000244141</ele>
        <time>2011-11-13T09:16:09Z</time>
      </trkpt>
      <trkpt lat="45.49876" lon="5.8708">
        <ele>1119</ele>
        <time>2011-11-13T09:16:15Z</time>
      </trkpt>
      <trkpt lat="45.49873" lon="5.87077">
        <ele>1120.1999511719</ele>
        <time>2011-11-13T09:16:18Z</time>
      </trkpt>
      <trkpt lat="45.49871" lon="5.87072">
        <ele>1122.8000488281</ele>
        <time>2011-11-13T09:16:24Z</time>
      </trkpt>
      <trkpt lat="45.4987" lon="5.87069">
        <ele>1124.8000488281</ele>
        <time>2011-11-13T09:16:28Z</time>
      </trkpt>
      <trkpt lat="45.49866" lon="5.87069">
        <ele>1127</ele>
        <time>2011-11-13T09:16:33Z</time>
      </trkpt>
      <trkpt lat="45.49865" lon="5.87067">
        <ele>1129.4000244141</ele>
        <time>2011-11-13T09:16:38Z</time>
      </trkpt>
      <trkpt lat="45.49863" lon="5.87066">
        <ele>1131.4000244141</ele>
        <time>2011-11-13T09:16:43Z</time>
      </trkpt>
      <trkpt lat="45.49855" lon="5.87065">
        <ele>1133.8000488281</ele>
        <time>2011-11-13T09:16:50Z</time>
      </trkpt>
      <trkpt lat="45.49851" lon="5.8706">
        <ele>1136.4000244141</ele>
        <time>2011-11-13T09:16:58Z</time>
      </trkpt>
      <trkpt lat="45.49847" lon="5.87054">
        <ele>1139.5999755859</ele>
        <time>2011-11-13T09:17:07Z</time>
      </trkpt>
      <trkpt lat="45.49848" lon="5.87046">
        <ele>1142</ele>
        <time>2011-11-13T09:17:13Z</time>
      </trkpt>
      <trkpt lat="45.49848" lon="5.87045">
        <ele>1142.4000244141</ele>
        <time>2011-11-13T09:17:14Z</time>
      </trkpt>
      <trkpt lat="45.49851" lon="5.87042">
        <ele>1144.8000488281</ele>
        <time>2011-11-13T09:17:20Z</time>
      </trkpt>
      <trkpt lat="45.49852" lon="5.87038">
        <ele>1146.4000244141</ele>
        <time>2011-11-13T09:17:24Z</time>
      </trkpt>
      <trkpt lat="45.49853" lon="5.87033">
        <ele>1147.4000244141</ele>
        <time>2011-11-13T09:17:27Z</time>
      </trkpt>
      <trkpt lat="45.49858" lon="5.8703">
        <ele>1149.1999511719</ele>
        <time>2011-11-13T09:17:32Z</time>
      </trkpt>
      <trkpt lat="45.49862" lon="5.87027">
        <ele>1150.4000244141</ele>
        <time>2011-11-13T09:17:37Z</time>
      </trkpt>
      <trkpt lat="45.49864" lon="5.87026">
        <ele>1150.8000488281</ele>
        <time>2011-11-13T09:17:39Z</time>
      </trkpt>
      <trkpt lat="45.4987" lon="5.87023">
        <ele>1152.8000488281</ele>
        <time>2011-11-13T09:17:48Z</time>
      </trkpt>
      <trkpt lat="45.49873" lon="5.87023">
        <ele>1153.1999511719</ele>
        <time>2011-11-13T09:17:52Z</time>
      </trkpt>
      <trkpt lat="45.49879" lon="5.87021">
        <ele>1153.5999755859</ele>
        <time>2011-11-13T09:17:57Z</time>
      </trkpt>
      <trkpt lat="45.49879" lon="5.87021">
        <ele>1153.5999755859</ele>
        <time>2011-11-13T09:17:58Z</time>
      </trkpt>
      <trkpt lat="45.49883" lon="5.87019">
        <ele>1153.8000488281</ele>
        <time>2011-11-13T09:18:02Z</time>
      </trkpt>
      <trkpt lat="45.49884" lon="5.87019">
        <ele>1153.8000488281</ele>
        <time>2011-11-13T09:18:03Z</time>
      </trkpt>
      <trkpt lat="45.49887" lon="5.87019">
        <ele>1154</ele>
        <time>2011-11-13T09:18:07Z</time>
      </trkpt>
      <trkpt lat="45.49895" lon="5.87015">
        <ele>1154</ele>
        <time>2011-11-13T09:18:15Z</time>
      </trkpt>
      <trkpt lat="45.49894" lon="5.87015">
        <ele>1155.4000244141</ele>
        <time>2011-11-13T09:18:24Z</time>
      </trkpt>
      <trkpt lat="45.49891" lon="5.87015">
        <ele>1155.5999755859</ele>
        <time>2011-11-13T09:18:27Z</time>
      </trkpt>
      <trkpt lat="45.49887" lon="5.87012">
        <ele>1156</ele>
        <time>2011-11-13T09:18:35Z</time>
      </trkpt>
      <trkpt lat="45.49883" lon="5.87009">
        <ele>1156</ele>
        <time>2011-11-13T09:18:39Z</time>
      </trkpt>
      <trkpt lat="45.49881" lon="5.87009">
        <ele>1156.8000488281</ele>
        <time>2011-11-13T09:18:43Z</time>
      </trkpt>
      <trkpt lat="45.49878" lon="5.87007">
        <ele>1157.1999511719</ele>
        <time>2011-11-13T09:18:47Z</time>
      </trkpt>
      <trkpt lat="45.49872" lon="5.87006">
        <ele>1158</ele>
        <time>2011-11-13T09:18:54Z</time>
      </trkpt>
      <trkpt lat="45.49868" lon="5.87004">
        <ele>1158.8000488281</ele>
        <time>2011-11-13T09:18:58Z</time>
      </trkpt>
      <trkpt lat="45.49861" lon="5.87001">
        <ele>1159.4000244141</ele>
        <time>2011-11-13T09:19:04Z</time>
      </trkpt>
      <trkpt lat="45.49857" lon="5.87001">
        <ele>1159.8000488281</ele>
        <time>2011-11-13T09:19:08Z</time>
      </trkpt>
      <trkpt lat="45.49856" lon="5.87001">
        <ele>1159.8000488281</ele>
        <time>2011-11-13T09:19:10Z</time>
      </trkpt>
      <trkpt lat="45.4985" lon="5.87">
        <ele>1160</ele>
        <time>2011-11-13T09:19:15Z</time>
      </trkpt>
      <trkpt lat="45.49846" lon="5.86999">
        <ele>1160.8000488281</ele>
        <time>2011-11-13T09:19:19Z</time>
      </trkpt>
      <trkpt lat="45.49839" lon="5.87">
        <ele>1161.5999755859</ele>
        <time>2011-11-13T09:19:25Z</time>
      </trkpt>
      <trkpt lat="45.49839" lon="5.86999">
        <ele>1161.5999755859</ele>
        <time>2011-11-13T09:19:26Z</time>
      </trkpt>
      <trkpt lat="45.49834" lon="5.86995">
        <ele>1162</ele>
        <time>2011-11-13T09:19:32Z</time>
      </trkpt>
      <trkpt lat="45.49831" lon="5.86992">
        <ele>1162.1999511719</ele>
        <time>2011-11-13T09:19:37Z</time>
      </trkpt>
      <trkpt lat="45.49831" lon="5.86991">
        <ele>1162.1999511719</ele>
        <time>2011-11-13T09:19:38Z</time>
      </trkpt>
      <trkpt lat="45.4983" lon="5.86988">
        <ele>1162.4000244141</ele>
        <time>2011-11-13T09:19:43Z</time>
      </trkpt>
      <trkpt lat="45.49831" lon="5.86985">
        <ele>1163.4000244141</ele>
        <time>2011-11-13T09:19:49Z</time>
      </trkpt>
      <trkpt lat="45.4983" lon="5.86981">
        <ele>1163.5999755859</ele>
        <time>2011-11-13T09:19:53Z</time>
      </trkpt>
      <trkpt lat="45.49831" lon="5.86976">
        <ele>1164.1999511719</ele>
        <time>2011-11-13T09:19:59Z</time>
      </trkpt>
      <trkpt lat="45.4983" lon="5.86973">
        <ele>1165</ele>
        <time>2011-11-13T09:20:04Z</time>
      </trkpt>
      <trkpt lat="45.49831" lon="5.86965">
        <ele>1166</ele>
        <time>2011-11-13T09:20:12Z</time>
      </trkpt>
      <trkpt lat="45.49833" lon="5.86959">
        <ele>1167</ele>
        <time>2011-11-13T09:20:17Z</time>
      </trkpt>
      <trkpt lat="45.49834" lon="5.86954">
        <ele>1167.5999755859</ele>
        <time>2011-11-13T09:20:21Z</time>
      </trkpt>
      <trkpt lat="45.49833" lon="5.86951">
        <ele>1168.8000488281</ele>
        <time>2011-11-13T09:20:27Z</time>
      </trkpt>
      <trkpt lat="45.49833" lon="5.86949">
        <ele>1169.5999755859</ele>
        <time>2011-11-13T09:20:30Z</time>
      </trkpt>
      <trkpt lat="45.49836" lon="5.86943">
        <ele>1170.8000488281</ele>
        <time>2011-11-13T09:20:35Z</time>
      </trkpt>
      <trkpt lat="45.49837" lon="5.86942">
        <ele>1171</ele>
        <time>2011-11-13T09:20:36Z</time>
      </trkpt>
      <trkpt lat="45.49837" lon="5.86939">
        <ele>1171.5999755859</ele>
        <time>2011-11-13T09:20:38Z</time>
      </trkpt>
      <trkpt lat="45.49837" lon="5.86936">
        <ele>1172.8000488281</ele>
        <time>2011-11-13T09:20:43Z</time>
      </trkpt>
      <trkpt lat="45.49836" lon="5.86932">
        <ele>1174.1999511719</ele>
        <time>2011-11-13T09:20:48Z</time>
      </trkpt>
      <trkpt lat="45.49833" lon="5.86931">
        <ele>1174.8000488281</ele>
        <time>2011-11-13T09:20:50Z</time>
      </trkpt>
      <trkpt lat="45.49826" lon="5.86937">
        <ele>1176.5999755859</ele>
        <time>2011-11-13T09:20:58Z</time>
      </trkpt>
      <trkpt lat="45.49824" lon="5.86939">
        <ele>1177</ele>
        <time>2011-11-13T09:21:00Z</time>
      </trkpt>
      <trkpt lat="45.49818" lon="5.86945">
        <ele>1178</ele>
        <time>2011-11-13T09:21:06Z</time>
      </trkpt>
      <trkpt lat="45.49818" lon="5.86946">
        <ele>1179.1999511719</ele>
        <time>2011-11-13T09:21:11Z</time>
      </trkpt>
      <trkpt lat="45.49814" lon="5.86951">
        <ele>1180.4000244141</ele>
        <time>2011-11-13T09:21:21Z</time>
      </trkpt>
      <trkpt lat="45.49809" lon="5.8696">
        <ele>1181</ele>
        <time>2011-11-13T09:21:26Z</time>
      </trkpt>
      <trkpt lat="45.49806" lon="5.86965">
        <ele>1181.4000244141</ele>
        <time>2011-11-13T09:21:28Z</time>
      </trkpt>
      <trkpt lat="45.49798" lon="5.86976">
        <ele>1182</ele>
        <time>2011-11-13T09:21:33Z</time>
      </trkpt>
      <trkpt lat="45.49792" lon="5.86984">
        <ele>1182.4000244141</ele>
        <time>2011-11-13T09:21:37Z</time>
      </trkpt>
      <trkpt lat="45.49791" lon="5.86985">
        <ele>1182.4000244141</ele>
        <time>2011-11-13T09:21:38Z</time>
      </trkpt>
      <trkpt lat="45.49789" lon="5.86987">
        <ele>1182.5999755859</ele>
        <time>2011-11-13T09:21:39Z</time>
      </trkpt>
      <trkpt lat="45.49786" lon="5.86991">
        <ele>1182.5999755859</ele>
        <time>2011-11-13T09:21:43Z</time>
      </trkpt>
      <trkpt lat="45.49785" lon="5.86995">
        <ele>1182.8000488281</ele>
        <time>2011-11-13T09:21:45Z</time>
      </trkpt>
      <trkpt lat="45.49778" lon="5.87002">
        <ele>1182.8000488281</ele>
        <time>2011-11-13T09:21:48Z</time>
      </trkpt>
      <trkpt lat="45.49771" lon="5.87012">
        <ele>1182.8000488281</ele>
        <time>2011-11-13T09:21:52Z</time>
      </trkpt>
      <trkpt lat="45.49764" lon="5.87019">
        <ele>1183.5999755859</ele>
        <time>2011-11-13T09:21:57Z</time>
      </trkpt>
      <trkpt lat="45.49763" lon="5.87021">
        <ele>1183.5999755859</ele>
        <time>2011-11-13T09:21:58Z</time>
      </trkpt>
      <trkpt lat="45.49757" lon="5.87024">
        <ele>1184</ele>
        <time>2011-11-13T09:22:00Z</time>
      </trkpt>
      <trkpt lat="45.49744" lon="5.87031">
        <ele>1184.4000244141</ele>
        <time>2011-11-13T09:22:06Z</time>
      </trkpt>
      <trkpt lat="45.49741" lon="5.87032">
        <ele>1184.5999755859</ele>
        <time>2011-11-13T09:22:07Z</time>
      </trkpt>
      <trkpt lat="45.49734" lon="5.87033">
        <ele>1184.5999755859</ele>
        <time>2011-11-13T09:22:10Z</time>
      </trkpt>
      <trkpt lat="45.49721" lon="5.87038">
        <ele>1184.8000488281</ele>
        <time>2011-11-13T09:22:14Z</time>
      </trkpt>
      <trkpt lat="45.49705" lon="5.87042">
        <ele>1185</ele>
        <time>2011-11-13T09:22:19Z</time>
      </trkpt>
      <trkpt lat="45.49702" lon="5.87042">
        <ele>1185</ele>
        <time>2011-11-13T09:22:20Z</time>
      </trkpt>
      <trkpt lat="45.49696" lon="5.87047">
        <ele>1185</ele>
        <time>2011-11-13T09:22:24Z</time>
      </trkpt>
      <trkpt lat="45.49683" lon="5.87053">
        <ele>1185</ele>
        <time>2011-11-13T09:22:28Z</time>
      </trkpt>
      <trkpt lat="45.49673" lon="5.87053">
        <ele>1185</ele>
        <time>2011-11-13T09:22:32Z</time>
      </trkpt>
      <trkpt lat="45.49661" lon="5.87055">
        <ele>1185</ele>
        <time>2011-11-13T09:22:37Z</time>
      </trkpt>
      <trkpt lat="45.49659" lon="5.87056">
        <ele>1185</ele>
        <time>2011-11-13T09:22:38Z</time>
      </trkpt>
      <trkpt lat="45.49646" lon="5.87068">
        <ele>1185</ele>
        <time>2011-11-13T09:22:43Z</time>
      </trkpt>
      <trkpt lat="45.4964" lon="5.87071">
        <ele>1185</ele>
        <time>2011-11-13T09:22:45Z</time>
      </trkpt>
      <trkpt lat="45.49628" lon="5.87072">
        <ele>1184.5999755859</ele>
        <time>2011-11-13T09:22:50Z</time>
      </trkpt>
      <trkpt lat="45.49625" lon="5.87073">
        <ele>1184.4000244141</ele>
        <time>2011-11-13T09:22:51Z</time>
      </trkpt>
      <trkpt lat="45.49611" lon="5.87076">
        <ele>1183.4000244141</ele>
        <time>2011-11-13T09:22:56Z</time>
      </trkpt>
      <trkpt lat="45.49596" lon="5.87079">
        <ele>1182.1999511719</ele>
        <time>2011-11-13T09:23:01Z</time>
      </trkpt>
      <trkpt lat="45.49593" lon="5.87079">
        <ele>1181.8000488281</ele>
        <time>2011-11-13T09:23:02Z</time>
      </trkpt>
      <trkpt lat="45.49579" lon="5.87085">
        <ele>1180.1999511719</ele>
        <time>2011-11-13T09:23:08Z</time>
      </trkpt>
      <trkpt lat="45.49575" lon="5.8709">
        <ele>1179.5999755859</ele>
        <time>2011-11-13T09:23:10Z</time>
      </trkpt>
      <trkpt lat="45.49571" lon="5.87099">
        <ele>1179</ele>
        <time>2011-11-13T09:23:12Z</time>
      </trkpt>
      <trkpt lat="45.49569" lon="5.8711">
        <ele>1178.1999511719</ele>
        <time>2011-11-13T09:23:16Z</time>
      </trkpt>
      <trkpt lat="45.49569" lon="5.8711">
        <ele>1177.5999755859</ele>
        <time>2011-11-13T09:23:18Z</time>
      </trkpt>
      <trkpt lat="45.49569" lon="5.87121">
        <ele>1176.4000244141</ele>
        <time>2011-11-13T09:23:23Z</time>
      </trkpt>
      <trkpt lat="45.49571" lon="5.87127">
        <ele>1175</ele>
        <time>2011-11-13T09:23:27Z</time>
      </trkpt>
      <trkpt lat="45.4957" lon="5.8713">
        <ele>1174.8000488281</ele>
        <time>2011-11-13T09:23:28Z</time>
      </trkpt>
      <trkpt lat="45.49571" lon="5.87132">
        <ele>1174.4000244141</ele>
        <time>2011-11-13T09:23:29Z</time>
      </trkpt>
      <trkpt lat="45.49573" lon="5.87142">
        <ele>1173.1999511719</ele>
        <time>2011-11-13T09:23:33Z</time>
      </trkpt>
      <trkpt lat="45.49574" lon="5.87149">
        <ele>1172.4000244141</ele>
        <time>2011-11-13T09:23:36Z</time>
      </trkpt>
      <trkpt lat="45.49576" lon="5.87169">
        <ele>1170.8000488281</ele>
        <time>2011-11-13T09:23:42Z</time>
      </trkpt>
      <trkpt lat="45.49575" lon="5.87182">
        <ele>1169.8000488281</ele>
        <time>2011-11-13T09:23:46Z</time>
      </trkpt>
      <trkpt lat="45.49577" lon="5.87192">
        <ele>1169.1999511719</ele>
        <time>2011-11-13T09:23:50Z</time>
      </trkpt>
      <trkpt lat="45.49575" lon="5.87202">
        <ele>1168.8000488281</ele>
        <time>2011-11-13T09:23:56Z</time>
      </trkpt>
      <trkpt lat="45.49575" lon="5.87209">
        <ele>1164.4000244141</ele>
        <time>2011-11-13T09:24:20Z</time>
      </trkpt>
      <trkpt lat="45.49575" lon="5.87209">
        <ele>1163</ele>
        <time>2011-11-13T09:24:27Z</time>
      </trkpt>
      <trkpt lat="45.49575" lon="5.87209">
        <ele>1162.8000488281</ele>
        <time>2011-11-13T09:24:29Z</time>
      </trkpt>
      <trkpt lat="45.49582" lon="5.87219">
        <ele>1162.1999511719</ele>
        <time>2011-11-13T09:24:34Z</time>
      </trkpt>
      <trkpt lat="45.49588" lon="5.87223">
        <ele>1161.5999755859</ele>
        <time>2011-11-13T09:24:37Z</time>
      </trkpt>
      <trkpt lat="45.49596" lon="5.87226">
        <ele>1161</ele>
        <time>2011-11-13T09:24:41Z</time>
      </trkpt>
      <trkpt lat="45.49598" lon="5.87228">
        <ele>1160.8000488281</ele>
        <time>2011-11-13T09:24:42Z</time>
      </trkpt>
      <trkpt lat="45.49607" lon="5.87228">
        <ele>1160.4000244141</ele>
        <time>2011-11-13T09:24:46Z</time>
      </trkpt>
      <trkpt lat="45.4961" lon="5.87228">
        <ele>1160.4000244141</ele>
        <time>2011-11-13T09:24:47Z</time>
      </trkpt>
      <trkpt lat="45.49612" lon="5.87225">
        <ele>1160.4000244141</ele>
        <time>2011-11-13T09:24:48Z</time>
      </trkpt>
      <trkpt lat="45.49618" lon="5.8723">
        <ele>1159.5999755859</ele>
        <time>2011-11-13T09:24:51Z</time>
      </trkpt>
      <trkpt lat="45.4963" lon="5.8723">
        <ele>1159</ele>
        <time>2011-11-13T09:24:55Z</time>
      </trkpt>
      <trkpt lat="45.4964" lon="5.87227">
        <ele>1158.5999755859</ele>
        <time>2011-11-13T09:24:58Z</time>
      </trkpt>
      <trkpt lat="45.49644" lon="5.87228">
        <ele>1158.5999755859</ele>
        <time>2011-11-13T09:24:59Z</time>
      </trkpt>
      <trkpt lat="45.49651" lon="5.87231">
        <ele>1158</ele>
        <time>2011-11-13T09:25:01Z</time>
      </trkpt>
      <trkpt lat="45.49665" lon="5.87229">
        <ele>1157.1999511719</ele>
        <time>2011-11-13T09:25:05Z</time>
      </trkpt>
      <trkpt lat="45.49669" lon="5.87229">
        <ele>1157.1999511719</ele>
        <time>2011-11-13T09:25:06Z</time>
      </trkpt>
      <trkpt lat="45.49684" lon="5.87231">
        <ele>1156.1999511719</ele>
        <time>2011-11-13T09:25:10Z</time>
      </trkpt>
      <trkpt lat="45.49694" lon="5.87251">
        <ele>1154.5999755859</ele>
        <time>2011-11-13T09:25:16Z</time>
      </trkpt>
      <trkpt lat="45.49704" lon="5.87263">
        <ele>1153.1999511719</ele>
        <time>2011-11-13T09:25:21Z</time>
      </trkpt>
      <trkpt lat="45.49708" lon="5.87265">
        <ele>1152.8000488281</ele>
        <time>2011-11-13T09:25:22Z</time>
      </trkpt>
      <trkpt lat="45.49721" lon="5.87278">
        <ele>1151.4000244141</ele>
        <time>2011-11-13T09:25:26Z</time>
      </trkpt>
      <trkpt lat="45.49723" lon="5.87281">
        <ele>1150.8000488281</ele>
        <time>2011-11-13T09:25:27Z</time>
      </trkpt>
      <trkpt lat="45.49737" lon="5.87279">
        <ele>1149.1999511719</ele>
        <time>2011-11-13T09:25:31Z</time>
      </trkpt>
      <trkpt lat="45.49748" lon="5.87292">
        <ele>1147.5999755859</ele>
        <time>2011-11-13T09:25:35Z</time>
      </trkpt>
      <trkpt lat="45.49755" lon="5.87308">
        <ele>1145.8000488281</ele>
        <time>2011-11-13T09:25:39Z</time>
      </trkpt>
      <trkpt lat="45.49757" lon="5.87317">
        <ele>1144.8000488281</ele>
        <time>2011-11-13T09:25:42Z</time>
      </trkpt>
      <trkpt lat="45.4976" lon="5.87322">
        <ele>1144.1999511719</ele>
        <time>2011-11-13T09:25:44Z</time>
      </trkpt>
      <trkpt lat="45.49767" lon="5.87328">
        <ele>1143.4000244141</ele>
        <time>2011-11-13T09:25:46Z</time>
      </trkpt>
      <trkpt lat="45.49773" lon="5.87338">
        <ele>1141.4000244141</ele>
        <time>2011-11-13T09:25:51Z</time>
      </trkpt>
      <trkpt lat="45.49785" lon="5.87343">
        <ele>1138.5999755859</ele>
        <time>2011-11-13T09:25:57Z</time>
      </trkpt>
      <trkpt lat="45.49791" lon="5.87355">
        <ele>1137.1999511719</ele>
        <time>2011-11-13T09:26:00Z</time>
      </trkpt>
      <trkpt lat="45.49796" lon="5.87357">
        <ele>1136.5999755859</ele>
        <time>2011-11-13T09:26:01Z</time>
      </trkpt>
      <trkpt lat="45.49805" lon="5.87361">
        <ele>1135</ele>
        <time>2011-11-13T09:26:04Z</time>
      </trkpt>
      <trkpt lat="45.49813" lon="5.87364">
        <ele>1132.8000488281</ele>
        <time>2011-11-13T09:26:08Z</time>
      </trkpt>
      <trkpt lat="45.49821" lon="5.87368">
        <ele>1130.5999755859</ele>
        <time>2011-11-13T09:26:12Z</time>
      </trkpt>
      <trkpt lat="45.49823" lon="5.87372">
        <ele>1129.4000244141</ele>
        <time>2011-11-13T09:26:14Z</time>
      </trkpt>
      <trkpt lat="45.49827" lon="5.87378">
        <ele>1127.8000488281</ele>
        <time>2011-11-13T09:26:17Z</time>
      </trkpt>
      <trkpt lat="45.49837" lon="5.87392">
        <ele>1125</ele>
        <time>2011-11-13T09:26:23Z</time>
      </trkpt>
      <trkpt lat="45.49837" lon="5.87396">
        <ele>1124.4000244141</ele>
        <time>2011-11-13T09:26:24Z</time>
      </trkpt>
      <trkpt lat="45.49845" lon="5.87413">
        <ele>1122.1999511719</ele>
        <time>2011-11-13T09:26:29Z</time>
      </trkpt>
      <trkpt lat="45.49844" lon="5.87432">
        <ele>1120.5999755859</ele>
        <time>2011-11-13T09:26:33Z</time>
      </trkpt>
      <trkpt lat="45.49847" lon="5.87441">
        <ele>1119.4000244141</ele>
        <time>2011-11-13T09:26:36Z</time>
      </trkpt>
      <trkpt lat="45.49847" lon="5.87454">
        <ele>1117.8000488281</ele>
        <time>2011-11-13T09:26:41Z</time>
      </trkpt>
      <trkpt lat="45.49846" lon="5.87464">
        <ele>1116.4000244141</ele>
        <time>2011-11-13T09:26:45Z</time>
      </trkpt>
      <trkpt lat="45.49853" lon="5.87474">
        <ele>1115</ele>
        <time>2011-11-13T09:26:49Z</time>
      </trkpt>
      <trkpt lat="45.49854" lon="5.87478">
        <ele>1114.8000488281</ele>
        <time>2011-11-13T09:26:50Z</time>
      </trkpt>
      <trkpt lat="45.49859" lon="5.87497">
        <ele>1113.4000244141</ele>
        <time>2011-11-13T09:26:55Z</time>
      </trkpt>
      <trkpt lat="45.49865" lon="5.87513">
        <ele>1112</ele>
        <time>2011-11-13T09:26:59Z</time>
      </trkpt>
      <trkpt lat="45.49874" lon="5.87525">
        <ele>1111</ele>
        <time>2011-11-13T09:27:03Z</time>
      </trkpt>
      <trkpt lat="45.49885" lon="5.87537">
        <ele>1109.5999755859</ele>
        <time>2011-11-13T09:27:07Z</time>
      </trkpt>
      <trkpt lat="45.49886" lon="5.87541">
        <ele>1109.4000244141</ele>
        <time>2011-11-13T09:27:08Z</time>
      </trkpt>
      <trkpt lat="45.49888" lon="5.8756">
        <ele>1108.1999511719</ele>
        <time>2011-11-13T09:27:12Z</time>
      </trkpt>
      <trkpt lat="45.49895" lon="5.87573">
        <ele>1107.1999511719</ele>
        <time>2011-11-13T09:27:16Z</time>
      </trkpt>
      <trkpt lat="45.49895" lon="5.87577">
        <ele>1107</ele>
        <time>2011-11-13T09:27:17Z</time>
      </trkpt>
      <trkpt lat="45.49906" lon="5.87585">
        <ele>1105.8000488281</ele>
        <time>2011-11-13T09:27:20Z</time>
      </trkpt>
      <trkpt lat="45.49913" lon="5.87594">
        <ele>1104.8000488281</ele>
        <time>2011-11-13T09:27:23Z</time>
      </trkpt>
      <trkpt lat="45.49919" lon="5.87604">
        <ele>1103.4000244141</ele>
        <time>2011-11-13T09:27:27Z</time>
      </trkpt>
      <trkpt lat="45.49923" lon="5.87612">
        <ele>1102</ele>
        <time>2011-11-13T09:27:30Z</time>
      </trkpt>
      <trkpt lat="45.49928" lon="5.87616">
        <ele>1100.8000488281</ele>
        <time>2011-11-13T09:27:33Z</time>
      </trkpt>
      <trkpt lat="45.49928" lon="5.87621">
        <ele>1100</ele>
        <time>2011-11-13T09:27:35Z</time>
      </trkpt>
      <trkpt lat="45.4993" lon="5.87624">
        <ele>1099.1999511719</ele>
        <time>2011-11-13T09:27:37Z</time>
      </trkpt>
      <trkpt lat="45.4994" lon="5.87622">
        <ele>1097.8000488281</ele>
        <time>2011-11-13T09:27:40Z</time>
      </trkpt>
      <trkpt lat="45.49947" lon="5.8763">
        <ele>1096.4000244141</ele>
        <time>2011-11-13T09:27:44Z</time>
      </trkpt>
      <trkpt lat="45.49949" lon="5.87631">
        <ele>1096</ele>
        <time>2011-11-13T09:27:45Z</time>
      </trkpt>
      <trkpt lat="45.49951" lon="5.87631">
        <ele>1095.5999755859</ele>
        <time>2011-11-13T09:27:46Z</time>
      </trkpt>
      <trkpt lat="45.49959" lon="5.87631">
        <ele>1094.5999755859</ele>
        <time>2011-11-13T09:27:49Z</time>
      </trkpt>
      <trkpt lat="45.49967" lon="5.87632">
        <ele>1093.4000244141</ele>
        <time>2011-11-13T09:27:52Z</time>
      </trkpt>
      <trkpt lat="45.49971" lon="5.87636">
        <ele>1092.8000488281</ele>
        <time>2011-11-13T09:27:54Z</time>
      </trkpt>
      <trkpt lat="45.49975" lon="5.87642">
        <ele>1091.5999755859</ele>
        <time>2011-11-13T09:27:57Z</time>
      </trkpt>
      <trkpt lat="45.49983" lon="5.87646">
        <ele>1090.1999511719</ele>
        <time>2011-11-13T09:28:01Z</time>
      </trkpt>
      <trkpt lat="45.49997" lon="5.87647">
        <ele>1088.5999755859</ele>
        <time>2011-11-13T09:28:05Z</time>
      </trkpt>
      <trkpt lat="45.49999" lon="5.87647">
        <ele>1088.1999511719</ele>
        <time>2011-11-13T09:28:06Z</time>
      </trkpt>
      <trkpt lat="45.50016" lon="5.87644">
        <ele>1085.5999755859</ele>
        <time>2011-11-13T09:28:11Z</time>
      </trkpt>
      <trkpt lat="45.50034" lon="5.8765">
        <ele>1083</ele>
        <time>2011-11-13T09:28:16Z</time>
      </trkpt>
      <trkpt lat="45.50047" lon="5.87668">
        <ele>1080</ele>
        <time>2011-11-13T09:28:21Z</time>
      </trkpt>
      <trkpt lat="45.50052" lon="5.87673">
        <ele>1078.8000488281</ele>
        <time>2011-11-13T09:28:23Z</time>
      </trkpt>
      <trkpt lat="45.50065" lon="5.87682">
        <ele>1075.5999755859</ele>
        <time>2011-11-13T09:28:28Z</time>
      </trkpt>
      <trkpt lat="45.50075" lon="5.87692">
        <ele>1072.8000488281</ele>
        <time>2011-11-13T09:28:32Z</time>
      </trkpt>
      <trkpt lat="45.50075" lon="5.87693">
        <ele>1072.1999511719</ele>
        <time>2011-11-13T09:28:33Z</time>
      </trkpt>
      <trkpt lat="45.50082" lon="5.87697">
        <ele>1069.5999755859</ele>
        <time>2011-11-13T09:28:37Z</time>
      </trkpt>
      <trkpt lat="45.50095" lon="5.87698">
        <ele>1066.4000244141</ele>
        <time>2011-11-13T09:28:42Z</time>
      </trkpt>
      <trkpt lat="45.50106" lon="5.87708">
        <ele>1064</ele>
        <time>2011-11-13T09:28:46Z</time>
      </trkpt>
      <trkpt lat="45.5011" lon="5.87712">
        <ele>1063.4000244141</ele>
        <time>2011-11-13T09:28:47Z</time>
      </trkpt>
      <trkpt lat="45.50132" lon="5.87719">
        <ele>1060.4000244141</ele>
        <time>2011-11-13T09:28:52Z</time>
      </trkpt>
      <trkpt lat="45.50141" lon="5.87723">
        <ele>1059</ele>
        <time>2011-11-13T09:28:54Z</time>
      </trkpt>
      <trkpt lat="45.50154" lon="5.87737">
        <ele>1055.8000488281</ele>
        <time>2011-11-13T09:28:59Z</time>
      </trkpt>
      <trkpt lat="45.50164" lon="5.87749">
        <ele>1052.8000488281</ele>
        <time>2011-11-13T09:29:03Z</time>
      </trkpt>
      <trkpt lat="45.50171" lon="5.87757">
        <ele>1051.4000244141</ele>
        <time>2011-11-13T09:29:05Z</time>
      </trkpt>
      <trkpt lat="45.50176" lon="5.87763">
        <ele>1049.8000488281</ele>
        <time>2011-11-13T09:29:07Z</time>
      </trkpt>
      <trkpt lat="45.5018" lon="5.87785">
        <ele>1046.8000488281</ele>
        <time>2011-11-13T09:29:11Z</time>
      </trkpt>
      <trkpt lat="45.50191" lon="5.878">
        <ele>1042.8000488281</ele>
        <time>2011-11-13T09:29:16Z</time>
      </trkpt>
      <trkpt lat="45.50204" lon="5.87806">
        <ele>1039.8000488281</ele>
        <time>2011-11-13T09:29:20Z</time>
      </trkpt>
      <trkpt lat="45.50218" lon="5.8782">
        <ele>1036</ele>
        <time>2011-11-13T09:29:25Z</time>
      </trkpt>
      <trkpt lat="45.50222" lon="5.87822">
        <ele>1035.4000244141</ele>
        <time>2011-11-13T09:29:26Z</time>
      </trkpt>
      <trkpt lat="45.50228" lon="5.87852">
        <ele>1031.1999511719</ele>
        <time>2011-11-13T09:29:32Z</time>
      </trkpt>
      <trkpt lat="45.5023" lon="5.87875">
        <ele>1028.8000488281</ele>
        <time>2011-11-13T09:29:36Z</time>
      </trkpt>
      <trkpt lat="45.50232" lon="5.87898">
        <ele>1026.1999511719</ele>
        <time>2011-11-13T09:29:41Z</time>
      </trkpt>
      <trkpt lat="45.50237" lon="5.87912">
        <ele>1024.5999755859</ele>
        <time>2011-11-13T09:29:45Z</time>
      </trkpt>
      <trkpt lat="45.50238" lon="5.8792">
        <ele>1023.799987793</ele>
        <time>2011-11-13T09:29:47Z</time>
      </trkpt>
      <trkpt lat="45.5024" lon="5.87936">
        <ele>1022.5999755859</ele>
        <time>2011-11-13T09:29:51Z</time>
      </trkpt>
      <trkpt lat="45.5024" lon="5.87942">
        <ele>1022.4000244141</ele>
        <time>2011-11-13T09:29:52Z</time>
      </trkpt>
      <trkpt lat="45.50241" lon="5.87956">
        <ele>1021.200012207</ele>
        <time>2011-11-13T09:29:56Z</time>
      </trkpt>
      <trkpt lat="45.50243" lon="5.87962">
        <ele>1020.5999755859</ele>
        <time>2011-11-13T09:29:58Z</time>
      </trkpt>
      <trkpt lat="45.50253" lon="5.8798">
        <ele>1019.4000244141</ele>
        <time>2011-11-13T09:30:04Z</time>
      </trkpt>
      <trkpt lat="45.50264" lon="5.8799">
        <ele>1018.200012207</ele>
        <time>2011-11-13T09:30:08Z</time>
      </trkpt>
      <trkpt lat="45.50278" lon="5.88003">
        <ele>1016.799987793</ele>
        <time>2011-11-13T09:30:13Z</time>
      </trkpt>
      <trkpt lat="45.50293" lon="5.88014">
        <ele>1015.200012207</ele>
        <time>2011-11-13T09:30:18Z</time>
      </trkpt>
      <trkpt lat="45.50303" lon="5.8802">
        <ele>1014</ele>
        <time>2011-11-13T09:30:22Z</time>
      </trkpt>
      <trkpt lat="45.50311" lon="5.88028">
        <ele>1012</ele>
        <time>2011-11-13T09:30:27Z</time>
      </trkpt>
      <trkpt lat="45.50312" lon="5.88034">
        <ele>1011.5999755859</ele>
        <time>2011-11-13T09:30:29Z</time>
      </trkpt>
      <trkpt lat="45.50315" lon="5.88037">
        <ele>1011</ele>
        <time>2011-11-13T09:30:31Z</time>
      </trkpt>
      <trkpt lat="45.50324" lon="5.88036">
        <ele>1009.5999755859</ele>
        <time>2011-11-13T09:30:35Z</time>
      </trkpt>
      <trkpt lat="45.50331" lon="5.88035">
        <ele>1008.5999755859</ele>
        <time>2011-11-13T09:30:38Z</time>
      </trkpt>
      <trkpt lat="45.50335" lon="5.88034">
        <ele>1007.799987793</ele>
        <time>2011-11-13T09:30:40Z</time>
      </trkpt>
      <trkpt lat="45.50343" lon="5.88042">
        <ele>1006.200012207</ele>
        <time>2011-11-13T09:30:45Z</time>
      </trkpt>
      <trkpt lat="45.5035" lon="5.88052">
        <ele>1004.799987793</ele>
        <time>2011-11-13T09:30:49Z</time>
      </trkpt>
      <trkpt lat="45.50362" lon="5.88056">
        <ele>1003.799987793</ele>
        <time>2011-11-13T09:30:53Z</time>
      </trkpt>
      <trkpt lat="45.50363" lon="5.88056">
        <ele>1003.4000244141</ele>
        <time>2011-11-13T09:30:53Z</time>
      </trkpt>
      <trkpt lat="45.50372" lon="5.88056">
        <ele>1002</ele>
        <time>2011-11-13T09:30:56Z</time>
      </trkpt>
      <trkpt lat="45.50382" lon="5.88055">
        <ele>1000.4000244141</ele>
        <time>2011-11-13T09:31:00Z</time>
      </trkpt>
      <trkpt lat="45.50396" lon="5.8806">
        <ele>998.20001220703</ele>
        <time>2011-11-13T09:31:05Z</time>
      </trkpt>
      <trkpt lat="45.50399" lon="5.88062">
        <ele>997.79998779297</ele>
        <time>2011-11-13T09:31:06Z</time>
      </trkpt>
      <trkpt lat="45.50401" lon="5.8808">
        <ele>995.40002441406</ele>
        <time>2011-11-13T09:31:11Z</time>
      </trkpt>
      <trkpt lat="45.50398" lon="5.88084">
        <ele>994.20001220703</ele>
        <time>2011-11-13T09:31:13Z</time>
      </trkpt>
      <trkpt lat="45.50394" lon="5.88089">
        <ele>992.20001220703</ele>
        <time>2011-11-13T09:31:17Z</time>
      </trkpt>
      <trkpt lat="45.50394" lon="5.8809">
        <ele>991.40002441406</ele>
        <time>2011-11-13T09:31:19Z</time>
      </trkpt>
      <trkpt lat="45.50386" lon="5.88105">
        <ele>988.40002441406</ele>
        <time>2011-11-13T09:31:25Z</time>
      </trkpt>
      <trkpt lat="45.50384" lon="5.88108">
        <ele>988</ele>
        <time>2011-11-13T09:31:26Z</time>
      </trkpt>
      <trkpt lat="45.5038" lon="5.88125">
        <ele>986.20001220703</ele>
        <time>2011-11-13T09:31:30Z</time>
      </trkpt>
      <trkpt lat="45.5038" lon="5.88129">
        <ele>985.79998779297</ele>
        <time>2011-11-13T09:31:31Z</time>
      </trkpt>
      <trkpt lat="45.50387" lon="5.88146">
        <ele>983.79998779297</ele>
        <time>2011-11-13T09:31:36Z</time>
      </trkpt>
      <trkpt lat="45.50389" lon="5.88146">
        <ele>983.59997558594</ele>
        <time>2011-11-13T09:31:37Z</time>
      </trkpt>
      <trkpt lat="45.50392" lon="5.88148">
        <ele>982.20001220703</ele>
        <time>2011-11-13T09:31:40Z</time>
      </trkpt>
      <trkpt lat="45.50402" lon="5.8814">
        <ele>980.40002441406</ele>
        <time>2011-11-13T09:31:45Z</time>
      </trkpt>
      <trkpt lat="45.50406" lon="5.88144">
        <ele>979.20001220703</ele>
        <time>2011-11-13T09:31:49Z</time>
      </trkpt>
      <trkpt lat="45.50408" lon="5.88145">
        <ele>978.79998779297</ele>
        <time>2011-11-13T09:31:50Z</time>
      </trkpt>
      <trkpt lat="45.50409" lon="5.88145">
        <ele>978.40002441406</ele>
        <time>2011-11-13T09:31:51Z</time>
      </trkpt>
      <trkpt lat="45.50412" lon="5.88147">
        <ele>977.59997558594</ele>
        <time>2011-11-13T09:31:53Z</time>
      </trkpt>
      <trkpt lat="45.50428" lon="5.88147">
        <ele>976</ele>
        <time>2011-11-13T09:31:58Z</time>
      </trkpt>
      <trkpt lat="45.50446" lon="5.88152">
        <ele>974.59997558594</ele>
        <time>2011-11-13T09:32:03Z</time>
      </trkpt>
      <trkpt lat="45.5045" lon="5.88153">
        <ele>974.40002441406</ele>
        <time>2011-11-13T09:32:04Z</time>
      </trkpt>
      <trkpt lat="45.50465" lon="5.88166">
        <ele>973</ele>
        <time>2011-11-13T09:32:08Z</time>
      </trkpt>
      <trkpt lat="45.50471" lon="5.88169">
        <ele>972.59997558594</ele>
        <time>2011-11-13T09:32:09Z</time>
      </trkpt>
      <trkpt lat="45.50477" lon="5.88174">
        <ele>972</ele>
        <time>2011-11-13T09:32:11Z</time>
      </trkpt>
      <trkpt lat="45.50484" lon="5.88181">
        <ele>970.79998779297</ele>
        <time>2011-11-13T09:32:14Z</time>
      </trkpt>
      <trkpt lat="45.50491" lon="5.88194">
        <ele>969.40002441406</ele>
        <time>2011-11-13T09:32:18Z</time>
      </trkpt>
      <trkpt lat="45.50505" lon="5.8821">
        <ele>966.40002441406</ele>
        <time>2011-11-13T09:32:24Z</time>
      </trkpt>
      <trkpt lat="45.50515" lon="5.88224">
        <ele>963.79998779297</ele>
        <time>2011-11-13T09:32:29Z</time>
      </trkpt>
      <trkpt lat="45.50517" lon="5.88227">
        <ele>963</ele>
        <time>2011-11-13T09:32:30Z</time>
      </trkpt>
      <trkpt lat="45.50533" lon="5.88234">
        <ele>960</ele>
        <time>2011-11-13T09:32:35Z</time>
      </trkpt>
      <trkpt lat="45.50535" lon="5.88238">
        <ele>959.20001220703</ele>
        <time>2011-11-13T09:32:36Z</time>
      </trkpt>
      <trkpt lat="45.50547" lon="5.88256">
        <ele>956.59997558594</ele>
        <time>2011-11-13T09:32:40Z</time>
      </trkpt>
      <trkpt lat="45.50549" lon="5.8826">
        <ele>956</ele>
        <time>2011-11-13T09:32:41Z</time>
      </trkpt>
      <trkpt lat="45.5056" lon="5.88266">
        <ele>953.79998779297</ele>
        <time>2011-11-13T09:32:44Z</time>
      </trkpt>
      <trkpt lat="45.50565" lon="5.88284">
        <ele>950.20001220703</ele>
        <time>2011-11-13T09:32:49Z</time>
      </trkpt>
      <trkpt lat="45.50566" lon="5.88286">
        <ele>949.59997558594</ele>
        <time>2011-11-13T09:32:50Z</time>
      </trkpt>
      <trkpt lat="45.50579" lon="5.88305">
        <ele>946.20001220703</ele>
        <time>2011-11-13T09:32:55Z</time>
      </trkpt>
      <trkpt lat="45.50582" lon="5.88322">
        <ele>944.20001220703</ele>
        <time>2011-11-13T09:32:58Z</time>
      </trkpt>
      <trkpt lat="45.50586" lon="5.88345">
        <ele>941.79998779297</ele>
        <time>2011-11-13T09:33:02Z</time>
      </trkpt>
      <trkpt lat="45.50585" lon="5.8835">
        <ele>941</ele>
        <time>2011-11-13T09:33:03Z</time>
      </trkpt>
      <trkpt lat="45.50584" lon="5.88358">
        <ele>939.40002441406</ele>
        <time>2011-11-13T09:33:06Z</time>
      </trkpt>
      <trkpt lat="45.50584" lon="5.88362">
        <ele>939</ele>
        <time>2011-11-13T09:33:07Z</time>
      </trkpt>
      <trkpt lat="45.50581" lon="5.88375">
        <ele>936.79998779297</ele>
        <time>2011-11-13T09:33:11Z</time>
      </trkpt>
      <trkpt lat="45.50581" lon="5.88392">
        <ele>934.59997558594</ele>
        <time>2011-11-13T09:33:15Z</time>
      </trkpt>
      <trkpt lat="45.50585" lon="5.88415">
        <ele>931.79998779297</ele>
        <time>2011-11-13T09:33:20Z</time>
      </trkpt>
      <trkpt lat="45.50587" lon="5.88419">
        <ele>931.20001220703</ele>
        <time>2011-11-13T09:33:21Z</time>
      </trkpt>
      <trkpt lat="45.50607" lon="5.88427">
        <ele>928.20001220703</ele>
        <time>2011-11-13T09:33:26Z</time>
      </trkpt>
      <trkpt lat="45.50619" lon="5.88444">
        <ele>924.79998779297</ele>
        <time>2011-11-13T09:33:31Z</time>
      </trkpt>
      <trkpt lat="45.50628" lon="5.88452">
        <ele>922.59997558594</ele>
        <time>2011-11-13T09:33:34Z</time>
      </trkpt>
      <trkpt lat="45.50632" lon="5.88452">
        <ele>921.20001220703</ele>
        <time>2011-11-13T09:33:36Z</time>
      </trkpt>
      <trkpt lat="45.50636" lon="5.88456">
        <ele>918</ele>
        <time>2011-11-13T09:33:40Z</time>
      </trkpt>
      <trkpt lat="45.50641" lon="5.88457">
        <ele>916.40002441406</ele>
        <time>2011-11-13T09:33:42Z</time>
      </trkpt>
      <trkpt lat="45.50647" lon="5.88464">
        <ele>912.59997558594</ele>
        <time>2011-11-13T09:33:47Z</time>
      </trkpt>
      <trkpt lat="45.5065" lon="5.88465">
        <ele>910.79998779297</ele>
        <time>2011-11-13T09:33:49Z</time>
      </trkpt>
      <trkpt lat="45.50656" lon="5.88467">
        <ele>908.40002441406</ele>
        <time>2011-11-13T09:33:52Z</time>
      </trkpt>
      <trkpt lat="45.50657" lon="5.88468">
        <ele>907</ele>
        <time>2011-11-13T09:33:54Z</time>
      </trkpt>
      <trkpt lat="45.50669" lon="5.88467">
        <ele>902.20001220703</ele>
        <time>2011-11-13T09:34:00Z</time>
      </trkpt>
      <trkpt lat="45.50673" lon="5.88464">
        <ele>901.59997558594</ele>
        <time>2011-11-13T09:34:01Z</time>
      </trkpt>
      <trkpt lat="45.50674" lon="5.88465">
        <ele>900.79998779297</ele>
        <time>2011-11-13T09:34:02Z</time>
      </trkpt>
      <trkpt lat="45.50681" lon="5.88464">
        <ele>897.59997558594</ele>
        <time>2011-11-13T09:34:06Z</time>
      </trkpt>
      <trkpt lat="45.50682" lon="5.88465">
        <ele>896.79998779297</ele>
        <time>2011-11-13T09:34:07Z</time>
      </trkpt>
      <trkpt lat="45.50693" lon="5.88459">
        <ele>893.40002441406</ele>
        <time>2011-11-13T09:34:12Z</time>
      </trkpt>
      <trkpt lat="45.50705" lon="5.8845">
        <ele>889.79998779297</ele>
        <time>2011-11-13T09:34:17Z</time>
      </trkpt>
      <trkpt lat="45.50713" lon="5.88446">
        <ele>888</ele>
        <time>2011-11-13T09:34:20Z</time>
      </trkpt>
      <trkpt lat="45.50726" lon="5.88451">
        <ele>884.79998779297</ele>
        <time>2011-11-13T09:34:26Z</time>
      </trkpt>
      <trkpt lat="45.50735" lon="5.88452">
        <ele>883.40002441406</ele>
        <time>2011-11-13T09:34:29Z</time>
      </trkpt>
      <trkpt lat="45.50754" lon="5.88456">
        <ele>881.40002441406</ele>
        <time>2011-11-13T09:34:34Z</time>
      </trkpt>
      <trkpt lat="45.50759" lon="5.88455">
        <ele>880.79998779297</ele>
        <time>2011-11-13T09:34:35Z</time>
      </trkpt>
      <trkpt lat="45.50762" lon="5.88455">
        <ele>880.40002441406</ele>
        <time>2011-11-13T09:34:36Z</time>
      </trkpt>
      <trkpt lat="45.50772" lon="5.88455">
        <ele>879.20001220703</ele>
        <time>2011-11-13T09:34:39Z</time>
      </trkpt>
      <trkpt lat="45.50787" lon="5.88451">
        <ele>876.40002441406</ele>
        <time>2011-11-13T09:34:45Z</time>
      </trkpt>
      <trkpt lat="45.5079" lon="5.88451">
        <ele>876</ele>
        <time>2011-11-13T09:34:46Z</time>
      </trkpt>
      <trkpt lat="45.50804" lon="5.88454">
        <ele>874.59997558594</ele>
        <time>2011-11-13T09:34:49Z</time>
      </trkpt>
      <trkpt lat="45.50807" lon="5.88465">
        <ele>872.79998779297</ele>
        <time>2011-11-13T09:34:53Z</time>
      </trkpt>
      <trkpt lat="45.50806" lon="5.88487">
        <ele>870.79998779297</ele>
        <time>2011-11-13T09:34:57Z</time>
      </trkpt>
      <trkpt lat="45.50806" lon="5.88492">
        <ele>870.20001220703</ele>
        <time>2011-11-13T09:34:59Z</time>
      </trkpt>
      <trkpt lat="45.50809" lon="5.88495">
        <ele>867.79998779297</ele>
        <time>2011-11-13T09:35:05Z</time>
      </trkpt>
      <trkpt lat="45.50814" lon="5.88496">
        <ele>867</ele>
        <time>2011-11-13T09:35:08Z</time>
      </trkpt>
      <trkpt lat="45.50831" lon="5.88503">
        <ele>864.79998779297</ele>
        <time>2011-11-13T09:35:15Z</time>
      </trkpt>
      <trkpt lat="45.50836" lon="5.8851">
        <ele>863.59997558594</ele>
        <time>2011-11-13T09:35:18Z</time>
      </trkpt>
      <trkpt lat="45.50841" lon="5.88513">
        <ele>862</ele>
        <time>2011-11-13T09:35:23Z</time>
      </trkpt>
      <trkpt lat="45.50846" lon="5.88518">
        <ele>861.20001220703</ele>
        <time>2011-11-13T09:35:26Z</time>
      </trkpt>
      <trkpt lat="45.50848" lon="5.88524">
        <ele>860.20001220703</ele>
        <time>2011-11-13T09:35:29Z</time>
      </trkpt>
      <trkpt lat="45.50851" lon="5.88524">
        <ele>859.79998779297</ele>
        <time>2011-11-13T09:35:30Z</time>
      </trkpt>
      <trkpt lat="45.50852" lon="5.88528">
        <ele>859.59997558594</ele>
        <time>2011-11-13T09:35:31Z</time>
      </trkpt>
      <trkpt lat="45.50861" lon="5.8853">
        <ele>858.79998779297</ele>
        <time>2011-11-13T09:35:34Z</time>
      </trkpt>
      <trkpt lat="45.50863" lon="5.88532">
        <ele>858.59997558594</ele>
        <time>2011-11-13T09:35:35Z</time>
      </trkpt>
      <trkpt lat="45.5087" lon="5.88543">
        <ele>856.79998779297</ele>
        <time>2011-11-13T09:35:40Z</time>
      </trkpt>
      <trkpt lat="45.50871" lon="5.88547">
        <ele>856.40002441406</ele>
        <time>2011-11-13T09:35:41Z</time>
      </trkpt>
      <trkpt lat="45.50874" lon="5.88554">
        <ele>855.59997558594</ele>
        <time>2011-11-13T09:35:43Z</time>
      </trkpt>
      <trkpt lat="45.50885" lon="5.8856">
        <ele>854.20001220703</ele>
        <time>2011-11-13T09:35:47Z</time>
      </trkpt>
      <trkpt lat="45.50895" lon="5.88565">
        <ele>852.79998779297</ele>
        <time>2011-11-13T09:35:51Z</time>
      </trkpt>
      <trkpt lat="45.50896" lon="5.88566">
        <ele>852.59997558594</ele>
        <time>2011-11-13T09:35:52Z</time>
      </trkpt>
      <trkpt lat="45.50901" lon="5.88569">
        <ele>851.59997558594</ele>
        <time>2011-11-13T09:35:54Z</time>
      </trkpt>
      <trkpt lat="45.50912" lon="5.88569">
        <ele>850.20001220703</ele>
        <time>2011-11-13T09:35:59Z</time>
      </trkpt>
      <trkpt lat="45.50914" lon="5.8858">
        <ele>848.59997558594</ele>
        <time>2011-11-13T09:36:03Z</time>
      </trkpt>
      <trkpt lat="45.50917" lon="5.8859">
        <ele>847.79998779297</ele>
        <time>2011-11-13T09:36:06Z</time>
      </trkpt>
      <trkpt lat="45.50922" lon="5.88595">
        <ele>847</ele>
        <time>2011-11-13T09:36:08Z</time>
      </trkpt>
      <trkpt lat="45.50933" lon="5.88608">
        <ele>845.79998779297</ele>
        <time>2011-11-13T09:36:12Z</time>
      </trkpt>
      <trkpt lat="45.50942" lon="5.8861">
        <ele>844.79998779297</ele>
        <time>2011-11-13T09:36:15Z</time>
      </trkpt>
      <trkpt lat="45.50949" lon="5.88608">
        <ele>843.79998779297</ele>
        <time>2011-11-13T09:36:18Z</time>
      </trkpt>
      <trkpt lat="45.50965" lon="5.88591">
        <ele>842</ele>
        <time>2011-11-13T09:36:23Z</time>
      </trkpt>
      <trkpt lat="45.50978" lon="5.88591">
        <ele>840.40002441406</ele>
        <time>2011-11-13T09:36:27Z</time>
      </trkpt>
      <trkpt lat="45.50993" lon="5.88594">
        <ele>838.40002441406</ele>
        <time>2011-11-13T09:36:32Z</time>
      </trkpt>
      <trkpt lat="45.50996" lon="5.88595">
        <ele>838</ele>
        <time>2011-11-13T09:36:33Z</time>
      </trkpt>
      <trkpt lat="45.51005" lon="5.88596">
        <ele>836.40002441406</ele>
        <time>2011-11-13T09:36:37Z</time>
      </trkpt>
      <trkpt lat="45.51007" lon="5.88596">
        <ele>836</ele>
        <time>2011-11-13T09:36:38Z</time>
      </trkpt>
      <trkpt lat="45.51014" lon="5.88598">
        <ele>834.59997558594</ele>
        <time>2011-11-13T09:36:41Z</time>
      </trkpt>
      <trkpt lat="45.51022" lon="5.88604">
        <ele>833</ele>
        <time>2011-11-13T09:36:45Z</time>
      </trkpt>
      <trkpt lat="45.51023" lon="5.88607">
        <ele>832.59997558594</ele>
        <time>2011-11-13T09:36:46Z</time>
      </trkpt>
      <trkpt lat="45.51038" lon="5.88613">
        <ele>830.20001220703</ele>
        <time>2011-11-13T09:36:51Z</time>
      </trkpt>
      <trkpt lat="45.51041" lon="5.88614">
        <ele>829.79998779297</ele>
        <time>2011-11-13T09:36:52Z</time>
      </trkpt>
      <trkpt lat="45.51056" lon="5.88623">
        <ele>827.20001220703</ele>
        <time>2011-11-13T09:36:58Z</time>
      </trkpt>
      <trkpt lat="45.5107" lon="5.88631">
        <ele>824.79998779297</ele>
        <time>2011-11-13T09:37:03Z</time>
      </trkpt>
      <trkpt lat="45.51072" lon="5.88633">
        <ele>824.20001220703</ele>
        <time>2011-11-13T09:37:04Z</time>
      </trkpt>
      <trkpt lat="45.51083" lon="5.88642">
        <ele>822.40002441406</ele>
        <time>2011-11-13T09:37:08Z</time>
      </trkpt>
      <trkpt lat="45.51102" lon="5.88652">
        <ele>820</ele>
        <time>2011-11-13T09:37:13Z</time>
      </trkpt>
      <trkpt lat="45.51114" lon="5.88664">
        <ele>817.79998779297</ele>
        <time>2011-11-13T09:37:17Z</time>
      </trkpt>
      <trkpt lat="45.51122" lon="5.88673">
        <ele>816.40002441406</ele>
        <time>2011-11-13T09:37:20Z</time>
      </trkpt>
      <trkpt lat="45.51124" lon="5.88677">
        <ele>816</ele>
        <time>2011-11-13T09:37:21Z</time>
      </trkpt>
      <trkpt lat="45.51135" lon="5.88693">
        <ele>814.40002441406</ele>
        <time>2011-11-13T09:37:25Z</time>
      </trkpt>
      <trkpt lat="45.51138" lon="5.88696">
        <ele>813.79998779297</ele>
        <time>2011-11-13T09:37:26Z</time>
      </trkpt>
      <trkpt lat="45.51146" lon="5.88719">
        <ele>811.79998779297</ele>
        <time>2011-11-13T09:37:31Z</time>
      </trkpt>
      <trkpt lat="45.51152" lon="5.88741">
        <ele>810</ele>
        <time>2011-11-13T09:37:35Z</time>
      </trkpt>
      <trkpt lat="45.51153" lon="5.88746">
        <ele>809.59997558594</ele>
        <time>2011-11-13T09:37:36Z</time>
      </trkpt>
      <trkpt lat="45.51156" lon="5.88755">
        <ele>808.79998779297</ele>
        <time>2011-11-13T09:37:38Z</time>
      </trkpt>
      <trkpt lat="45.51158" lon="5.8876">
        <ele>808.40002441406</ele>
        <time>2011-11-13T09:37:39Z</time>
      </trkpt>
      <trkpt lat="45.51161" lon="5.88769">
        <ele>807.40002441406</ele>
        <time>2011-11-13T09:37:41Z</time>
      </trkpt>
      <trkpt lat="45.51175" lon="5.88791">
        <ele>805.40002441406</ele>
        <time>2011-11-13T09:37:47Z</time>
      </trkpt>
      <trkpt lat="45.51174" lon="5.88795">
        <ele>805</ele>
        <time>2011-11-13T09:37:48Z</time>
      </trkpt>
      <trkpt lat="45.51175" lon="5.88817">
        <ele>803.40002441406</ele>
        <time>2011-11-13T09:37:53Z</time>
      </trkpt>
      <trkpt lat="45.51181" lon="5.88839">
        <ele>801.79998779297</ele>
        <time>2011-11-13T09:37:58Z</time>
      </trkpt>
      <trkpt lat="45.51186" lon="5.88846">
        <ele>801.20001220703</ele>
        <time>2011-11-13T09:38:00Z</time>
      </trkpt>
      <trkpt lat="45.51202" lon="5.88853">
        <ele>799.40002441406</ele>
        <time>2011-11-13T09:38:05Z</time>
      </trkpt>
      <trkpt lat="45.51212" lon="5.88856">
        <ele>797.79998779297</ele>
        <time>2011-11-13T09:38:09Z</time>
      </trkpt>
      <trkpt lat="45.51215" lon="5.88856">
        <ele>797.40002441406</ele>
        <time>2011-11-13T09:38:10Z</time>
      </trkpt>
      <trkpt lat="45.51227" lon="5.88862">
        <ele>795.59997558594</ele>
        <time>2011-11-13T09:38:14Z</time>
      </trkpt>
      <trkpt lat="45.51231" lon="5.8888">
        <ele>793.79998779297</ele>
        <time>2011-11-13T09:38:18Z</time>
      </trkpt>
      <trkpt lat="45.51235" lon="5.88894">
        <ele>791.40002441406</ele>
        <time>2011-11-13T09:38:23Z</time>
      </trkpt>
      <trkpt lat="45.51245" lon="5.88914">
        <ele>788.40002441406</ele>
        <time>2011-11-13T09:38:29Z</time>
      </trkpt>
      <trkpt lat="45.51255" lon="5.88933">
        <ele>786</ele>
        <time>2011-11-13T09:38:34Z</time>
      </trkpt>
      <trkpt lat="45.51257" lon="5.88937">
        <ele>785.59997558594</ele>
        <time>2011-11-13T09:38:35Z</time>
      </trkpt>
      <trkpt lat="45.51269" lon="5.88939">
        <ele>783.20001220703</ele>
        <time>2011-11-13T09:38:40Z</time>
      </trkpt>
      <trkpt lat="45.51275" lon="5.88939">
        <ele>782.40002441406</ele>
        <time>2011-11-13T09:38:42Z</time>
      </trkpt>
      <trkpt lat="45.51292" lon="5.88946">
        <ele>780</ele>
        <time>2011-11-13T09:38:48Z</time>
      </trkpt>
      <trkpt lat="45.51308" lon="5.88954">
        <ele>778</ele>
        <time>2011-11-13T09:38:53Z</time>
      </trkpt>
      <trkpt lat="45.51324" lon="5.88962">
        <ele>776.59997558594</ele>
        <time>2011-11-13T09:38:57Z</time>
      </trkpt>
      <trkpt lat="45.51326" lon="5.88963">
        <ele>776.20001220703</ele>
        <time>2011-11-13T09:38:58Z</time>
      </trkpt>
      <trkpt lat="45.5134" lon="5.8897">
        <ele>774.59997558594</ele>
        <time>2011-11-13T09:39:03Z</time>
      </trkpt>
      <trkpt lat="45.51348" lon="5.88974">
        <ele>773.40002441406</ele>
        <time>2011-11-13T09:39:06Z</time>
      </trkpt>
      <trkpt lat="45.51363" lon="5.88981">
        <ele>771.79998779297</ele>
        <time>2011-11-13T09:39:11Z</time>
      </trkpt>
      <trkpt lat="45.51366" lon="5.88984">
        <ele>771.20001220703</ele>
        <time>2011-11-13T09:39:13Z</time>
      </trkpt>
      <trkpt lat="45.51383" lon="5.88988">
        <ele>769.40002441406</ele>
        <time>2011-11-13T09:39:18Z</time>
      </trkpt>
      <trkpt lat="45.51387" lon="5.88989">
        <ele>769</ele>
        <time>2011-11-13T09:39:19Z</time>
      </trkpt>
      <trkpt lat="45.51403" lon="5.8899">
        <ele>767.20001220703</ele>
        <time>2011-11-13T09:39:24Z</time>
      </trkpt>
      <trkpt lat="45.51415" lon="5.88996">
        <ele>765.79998779297</ele>
        <time>2011-11-13T09:39:28Z</time>
      </trkpt>
      <trkpt lat="45.51429" lon="5.89005">
        <ele>763.79998779297</ele>
        <time>2011-11-13T09:39:33Z</time>
      </trkpt>
      <trkpt lat="45.51444" lon="5.89013">
        <ele>761.59997558594</ele>
        <time>2011-11-13T09:39:38Z</time>
      </trkpt>
      <trkpt lat="45.5145" lon="5.89017">
        <ele>760.79998779297</ele>
        <time>2011-11-13T09:39:40Z</time>
      </trkpt>
      <trkpt lat="45.51453" lon="5.89018">
        <ele>760.20001220703</ele>
        <time>2011-11-13T09:39:41Z</time>
      </trkpt>
      <trkpt lat="45.51466" lon="5.89025">
        <ele>757.79998779297</ele>
        <time>2011-11-13T09:39:46Z</time>
      </trkpt>
      <trkpt lat="45.51476" lon="5.89032">
        <ele>756</ele>
        <time>2011-11-13T09:39:50Z</time>
      </trkpt>
      <trkpt lat="45.51491" lon="5.89042">
        <ele>753.40002441406</ele>
        <time>2011-11-13T09:39:55Z</time>
      </trkpt>
      <trkpt lat="45.515" lon="5.89049">
        <ele>751.59997558594</ele>
        <time>2011-11-13T09:39:59Z</time>
      </trkpt>
      <trkpt lat="45.51506" lon="5.89049">
        <ele>750.59997558594</ele>
        <time>2011-11-13T09:40:01Z</time>
      </trkpt>
      <trkpt lat="45.51522" lon="5.89058">
        <ele>748.59997558594</ele>
        <time>2011-11-13T09:40:07Z</time>
      </trkpt>
      <trkpt lat="45.51532" lon="5.89071">
        <ele>746.79998779297</ele>
        <time>2011-11-13T09:40:12Z</time>
      </trkpt>
      <trkpt lat="45.51542" lon="5.89084">
        <ele>745.79998779297</ele>
        <time>2011-11-13T09:40:17Z</time>
      </trkpt>
      <trkpt lat="45.51544" lon="5.89085">
        <ele>745.59997558594</ele>
        <time>2011-11-13T09:40:18Z</time>
      </trkpt>
      <trkpt lat="45.51549" lon="5.89088">
        <ele>744.59997558594</ele>
        <time>2011-11-13T09:40:21Z</time>
      </trkpt>
      <trkpt lat="45.51551" lon="5.89089">
        <ele>744.40002441406</ele>
        <time>2011-11-13T09:40:22Z</time>
      </trkpt>
      <trkpt lat="45.51554" lon="5.89092">
        <ele>744</ele>
        <time>2011-11-13T09:40:24Z</time>
      </trkpt>
      <trkpt lat="45.51566" lon="5.89098">
        <ele>743.20001220703</ele>
        <time>2011-11-13T09:40:30Z</time>
      </trkpt>
      <trkpt lat="45.5158" lon="5.89103">
        <ele>742.79998779297</ele>
        <time>2011-11-13T09:40:35Z</time>
      </trkpt>
      <trkpt lat="45.51581" lon="5.89104">
        <ele>742.59997558594</ele>
        <time>2011-11-13T09:40:36Z</time>
      </trkpt>
      <trkpt lat="45.51596" lon="5.89109">
        <ele>742.40002441406</ele>
        <time>2011-11-13T09:40:44Z</time>
      </trkpt>
      <trkpt lat="45.51598" lon="5.89109">
        <ele>742.40002441406</ele>
        <time>2011-11-13T09:40:45Z</time>
      </trkpt>
      <trkpt lat="45.51606" lon="5.89106">
        <ele>742.20001220703</ele>
        <time>2011-11-13T09:40:50Z</time>
      </trkpt>
      <trkpt lat="45.51608" lon="5.89106">
        <ele>742.20001220703</ele>
        <time>2011-11-13T09:40:50Z</time>
      </trkpt>
      <trkpt lat="45.51625" lon="5.89102">
        <ele>741.59997558594</ele>
        <time>2011-11-13T09:40:56Z</time>
      </trkpt>
      <trkpt lat="45.51638" lon="5.89106">
        <ele>741</ele>
        <time>2011-11-13T09:41:01Z</time>
      </trkpt>
      <trkpt lat="45.51656" lon="5.89112">
        <ele>739.79998779297</ele>
        <time>2011-11-13T09:41:07Z</time>
      </trkpt>
      <trkpt lat="45.51667" lon="5.89117">
        <ele>738.79998779297</ele>
        <time>2011-11-13T09:41:11Z</time>
      </trkpt>
      <trkpt lat="45.51678" lon="5.89119">
        <ele>737.79998779297</ele>
        <time>2011-11-13T09:41:15Z</time>
      </trkpt>
      <trkpt lat="45.51693" lon="5.89128">
        <ele>736.20001220703</ele>
        <time>2011-11-13T09:41:20Z</time>
      </trkpt>
      <trkpt lat="45.51704" lon="5.89133">
        <ele>735.40002441406</ele>
        <time>2011-11-13T09:41:24Z</time>
      </trkpt>
      <trkpt lat="45.51714" lon="5.89142">
        <ele>734</ele>
        <time>2011-11-13T09:41:28Z</time>
      </trkpt>
      <trkpt lat="45.51727" lon="5.89153">
        <ele>733.20001220703</ele>
        <time>2011-11-13T09:41:32Z</time>
      </trkpt>
      <trkpt lat="45.5174" lon="5.89169">
        <ele>732</ele>
        <time>2011-11-13T09:41:37Z</time>
      </trkpt>
      <trkpt lat="45.51749" lon="5.89181">
        <ele>731</ele>
        <time>2011-11-13T09:41:41Z</time>
      </trkpt>
      <trkpt lat="45.51755" lon="5.89193">
        <ele>729.40002441406</ele>
        <time>2011-11-13T09:41:47Z</time>
      </trkpt>
      <trkpt lat="45.51755" lon="5.89195">
        <ele>729.20001220703</ele>
        <time>2011-11-13T09:41:48Z</time>
      </trkpt>
      <trkpt lat="45.51758" lon="5.892">
        <ele>728.40002441406</ele>
        <time>2011-11-13T09:41:52Z</time>
      </trkpt>
      <trkpt lat="45.5176" lon="5.89205">
        <ele>728</ele>
        <time>2011-11-13T09:41:56Z</time>
      </trkpt>
      <trkpt lat="45.51762" lon="5.89208">
        <ele>727.79998779297</ele>
        <time>2011-11-13T09:41:58Z</time>
      </trkpt>
      <trkpt lat="45.51771" lon="5.89215">
        <ele>727.59997558594</ele>
        <time>2011-11-13T09:42:03Z</time>
      </trkpt>
      <trkpt lat="45.51778" lon="5.89217">
        <ele>727.40002441406</ele>
        <time>2011-11-13T09:42:06Z</time>
      </trkpt>
      <trkpt lat="45.51781" lon="5.89217">
        <ele>727.40002441406</ele>
        <time>2011-11-13T09:42:08Z</time>
      </trkpt>
      <trkpt lat="45.51793" lon="5.89218">
        <ele>727.20001220703</ele>
        <time>2011-11-13T09:42:13Z</time>
      </trkpt>
      <trkpt lat="45.51795" lon="5.89216">
        <ele>727.20001220703</ele>
        <time>2011-11-13T09:42:14Z</time>
      </trkpt>
      <trkpt lat="45.51805" lon="5.89215">
        <ele>727.20001220703</ele>
        <time>2011-11-13T09:42:20Z</time>
      </trkpt>
      <trkpt lat="45.51816" lon="5.89221">
        <ele>727.20001220703</ele>
        <time>2011-11-13T09:42:25Z</time>
      </trkpt>
      <trkpt lat="45.51819" lon="5.89225">
        <ele>727.20001220703</ele>
        <time>2011-11-13T09:42:28Z</time>
      </trkpt>
      <trkpt lat="45.51821" lon="5.8923">
        <ele>727.20001220703</ele>
        <time>2011-11-13T09:42:31Z</time>
      </trkpt>
      <trkpt lat="45.51831" lon="5.89239">
        <ele>727</ele>
        <time>2011-11-13T09:42:36Z</time>
      </trkpt>
      <trkpt lat="45.51835" lon="5.89244">
        <ele>726.59997558594</ele>
        <time>2011-11-13T09:42:38Z</time>
      </trkpt>
      <trkpt lat="45.51837" lon="5.89246">
        <ele>726.40002441406</ele>
        <time>2011-11-13T09:42:40Z</time>
      </trkpt>
      <trkpt lat="45.51849" lon="5.89265">
        <ele>725.20001220703</ele>
        <time>2011-11-13T09:42:46Z</time>
      </trkpt>
      <trkpt lat="45.51852" lon="5.89271">
        <ele>724.79998779297</ele>
        <time>2011-11-13T09:42:48Z</time>
      </trkpt>
      <trkpt lat="45.51866" lon="5.89293">
        <ele>723.40002441406</ele>
        <time>2011-11-13T09:42:53Z</time>
      </trkpt>
      <trkpt lat="45.51867" lon="5.89297">
        <ele>723</ele>
        <time>2011-11-13T09:42:55Z</time>
      </trkpt>
      <trkpt lat="45.51878" lon="5.89308">
        <ele>722.20001220703</ele>
        <time>2011-11-13T09:42:59Z</time>
      </trkpt>
      <trkpt lat="45.5188" lon="5.8931">
        <ele>722</ele>
        <time>2011-11-13T09:43:00Z</time>
      </trkpt>
      <trkpt lat="45.51883" lon="5.89313">
        <ele>721.40002441406</ele>
        <time>2011-11-13T09:43:02Z</time>
      </trkpt>
      <trkpt lat="45.51886" lon="5.89321">
        <ele>720.40002441406</ele>
        <time>2011-11-13T09:43:08Z</time>
      </trkpt>
      <trkpt lat="45.51893" lon="5.89337">
        <ele>719.79998779297</ele>
        <time>2011-11-13T09:43:12Z</time>
      </trkpt>
      <trkpt lat="45.51898" lon="5.89344">
        <ele>719.40002441406</ele>
        <time>2011-11-13T09:43:16Z</time>
      </trkpt>
      <trkpt lat="45.51904" lon="5.89352">
        <ele>719.20001220703</ele>
        <time>2011-11-13T09:43:20Z</time>
      </trkpt>
      <trkpt lat="45.51908" lon="5.89357">
        <ele>719.20001220703</ele>
        <time>2011-11-13T09:43:22Z</time>
      </trkpt>
      <trkpt lat="45.51918" lon="5.89365">
        <ele>719.40002441406</ele>
        <time>2011-11-13T09:43:26Z</time>
      </trkpt>
      <trkpt lat="45.51925" lon="5.89373">
        <ele>720.20001220703</ele>
        <time>2011-11-13T09:43:31Z</time>
      </trkpt>
      <trkpt lat="45.51926" lon="5.89376">
        <ele>720.20001220703</ele>
        <time>2011-11-13T09:43:33Z</time>
      </trkpt>
      <trkpt lat="45.51933" lon="5.89381">
        <ele>720.40002441406</ele>
        <time>2011-11-13T09:43:36Z</time>
      </trkpt>
      <trkpt lat="45.51948" lon="5.89392">
        <ele>721.20001220703</ele>
        <time>2011-11-13T09:43:42Z</time>
      </trkpt>
      <trkpt lat="45.5196" lon="5.89398">
        <ele>721.79998779297</ele>
        <time>2011-11-13T09:43:48Z</time>
      </trkpt>
      <trkpt lat="45.51973" lon="5.89403">
        <ele>722.40002441406</ele>
        <time>2011-11-13T09:43:53Z</time>
      </trkpt>
      <trkpt lat="45.51981" lon="5.89411">
        <ele>722.59997558594</ele>
        <time>2011-11-13T09:43:57Z</time>
      </trkpt>
      <trkpt lat="45.5199" lon="5.89416">
        <ele>722.40002441406</ele>
        <time>2011-11-13T09:44:02Z</time>
      </trkpt>
      <trkpt lat="45.51997" lon="5.89418">
        <ele>722</ele>
        <time>2011-11-13T09:44:05Z</time>
      </trkpt>
      <trkpt lat="45.52003" lon="5.89423">
        <ele>721.59997558594</ele>
        <time>2011-11-13T09:44:09Z</time>
      </trkpt>
      <trkpt lat="45.52009" lon="5.89426">
        <ele>720.79998779297</ele>
        <time>2011-11-13T09:44:13Z</time>
      </trkpt>
      <trkpt lat="45.52012" lon="5.89428">
        <ele>720.59997558594</ele>
        <time>2011-11-13T09:44:14Z</time>
      </trkpt>
      <trkpt lat="45.52017" lon="5.8943">
        <ele>720</ele>
        <time>2011-11-13T09:44:17Z</time>
      </trkpt>
      <trkpt lat="45.52024" lon="5.89433">
        <ele>719</ele>
        <time>2011-11-13T09:44:22Z</time>
      </trkpt>
      <trkpt lat="45.52031" lon="5.89436">
        <ele>718</ele>
        <time>2011-11-13T09:44:27Z</time>
      </trkpt>
      <trkpt lat="45.52032" lon="5.89436">
        <ele>717.79998779297</ele>
        <time>2011-11-13T09:44:28Z</time>
      </trkpt>
      <trkpt lat="45.52033" lon="5.89437">
        <ele>717.79998779297</ele>
        <time>2011-11-13T09:44:29Z</time>
      </trkpt>
      <trkpt lat="45.52038" lon="5.89439">
        <ele>716.79998779297</ele>
        <time>2011-11-13T09:44:33Z</time>
      </trkpt>
      <trkpt lat="45.52044" lon="5.89442">
        <ele>715.79998779297</ele>
        <time>2011-11-13T09:44:38Z</time>
      </trkpt>
      <trkpt lat="45.52052" lon="5.89446">
        <ele>715.20001220703</ele>
        <time>2011-11-13T09:44:44Z</time>
      </trkpt>
      <trkpt lat="45.52053" lon="5.89448">
        <ele>715</ele>
        <time>2011-11-13T09:44:45Z</time>
      </trkpt>
      <trkpt lat="45.52059" lon="5.89453">
        <ele>714.79998779297</ele>
        <time>2011-11-13T09:44:48Z</time>
      </trkpt>
      <trkpt lat="45.52073" lon="5.89468">
        <ele>714.59997558594</ele>
        <time>2011-11-13T09:44:56Z</time>
      </trkpt>
      <trkpt lat="45.5208" lon="5.8948">
        <ele>714.59997558594</ele>
        <time>2011-11-13T09:45:01Z</time>
      </trkpt>
      <trkpt lat="45.52083" lon="5.89485">
        <ele>714.59997558594</ele>
        <time>2011-11-13T09:45:03Z</time>
      </trkpt>
      <trkpt lat="45.52092" lon="5.89497">
        <ele>714.40002441406</ele>
        <time>2011-11-13T09:45:08Z</time>
      </trkpt>
      <trkpt lat="45.52094" lon="5.89499">
        <ele>714.40002441406</ele>
        <time>2011-11-13T09:45:09Z</time>
      </trkpt>
      <trkpt lat="45.52103" lon="5.89511">
        <ele>714.40002441406</ele>
        <time>2011-11-13T09:45:14Z</time>
      </trkpt>
      <trkpt lat="45.52116" lon="5.89525">
        <ele>714.40002441406</ele>
        <time>2011-11-13T09:45:20Z</time>
      </trkpt>
      <trkpt lat="45.52125" lon="5.89537">
        <ele>714.40002441406</ele>
        <time>2011-11-13T09:45:25Z</time>
      </trkpt>
      <trkpt lat="45.52138" lon="5.89552">
        <ele>714.40002441406</ele>
        <time>2011-11-13T09:45:31Z</time>
      </trkpt>
      <trkpt lat="45.52147" lon="5.89561">
        <ele>714.40002441406</ele>
        <time>2011-11-13T09:45:34Z</time>
      </trkpt>
      <trkpt lat="45.52151" lon="5.89577">
        <ele>714.40002441406</ele>
        <time>2011-11-13T09:45:38Z</time>
      </trkpt>
      <trkpt lat="45.52146" lon="5.89598">
        <ele>714.40002441406</ele>
        <time>2011-11-13T09:45:44Z</time>
      </trkpt>
      <trkpt lat="45.52137" lon="5.89612">
        <ele>714.40002441406</ele>
        <time>2011-11-13T09:45:48Z</time>
      </trkpt>
      <trkpt lat="45.52129" lon="5.89624">
        <ele>714.40002441406</ele>
        <time>2011-11-13T09:45:52Z</time>
      </trkpt>
      <trkpt lat="45.52122" lon="5.89635">
        <ele>714.40002441406</ele>
        <time>2011-11-13T09:45:56Z</time>
      </trkpt>
      <trkpt lat="45.52115" lon="5.89649">
        <ele>714</ele>
        <time>2011-11-13T09:46:00Z</time>
      </trkpt>
      <trkpt lat="45.52111" lon="5.89661">
        <ele>713.59997558594</ele>
        <time>2011-11-13T09:46:03Z</time>
      </trkpt>
      <trkpt lat="45.52112" lon="5.89664">
        <ele>713.40002441406</ele>
        <time>2011-11-13T09:46:04Z</time>
      </trkpt>
      <trkpt lat="45.52111" lon="5.89678">
        <ele>713</ele>
        <time>2011-11-13T09:46:08Z</time>
      </trkpt>
      <trkpt lat="45.52111" lon="5.89687">
        <ele>712.79998779297</ele>
        <time>2011-11-13T09:46:11Z</time>
      </trkpt>
      <trkpt lat="45.52118" lon="5.8969">
        <ele>712.79998779297</ele>
        <time>2011-11-13T09:46:15Z</time>
      </trkpt>
      <trkpt lat="45.52119" lon="5.89689">
        <ele>712.59997558594</ele>
        <time>2011-11-13T09:46:16Z</time>
      </trkpt>
      <trkpt lat="45.52126" lon="5.89685">
        <ele>712.59997558594</ele>
        <time>2011-11-13T09:46:21Z</time>
      </trkpt>
      <trkpt lat="45.52134" lon="5.89679">
        <ele>712.40002441406</ele>
        <time>2011-11-13T09:46:26Z</time>
      </trkpt>
      <trkpt lat="45.52136" lon="5.89678">
        <ele>712.40002441406</ele>
        <time>2011-11-13T09:46:28Z</time>
      </trkpt>
      <trkpt lat="45.52143" lon="5.89676">
        <ele>712.40002441406</ele>
        <time>2011-11-13T09:46:33Z</time>
      </trkpt>
      <trkpt lat="45.52152" lon="5.89677">
        <ele>712.40002441406</ele>
        <time>2011-11-13T09:46:38Z</time>
      </trkpt>
      <trkpt lat="45.52156" lon="5.89679">
        <ele>712.40002441406</ele>
        <time>2011-11-13T09:46:41Z</time>
      </trkpt>
      <trkpt lat="45.52158" lon="5.89679">
        <ele>712.40002441406</ele>
        <time>2011-11-13T09:46:43Z</time>
      </trkpt>
      <trkpt lat="45.52165" lon="5.89681">
        <ele>711.79998779297</ele>
        <time>2011-11-13T09:46:48Z</time>
      </trkpt>
      <trkpt lat="45.52167" lon="5.89682">
        <ele>711.59997558594</ele>
        <time>2011-11-13T09:46:50Z</time>
      </trkpt>
      <trkpt lat="45.52177" lon="5.89688">
        <ele>711.20001220703</ele>
        <time>2011-11-13T09:46:55Z</time>
      </trkpt>
      <trkpt lat="45.52179" lon="5.8969">
        <ele>711</ele>
        <time>2011-11-13T09:46:56Z</time>
      </trkpt>
      <trkpt lat="45.52181" lon="5.89691">
        <ele>711</ele>
        <time>2011-11-13T09:46:56Z</time>
      </trkpt>
      <trkpt lat="45.52186" lon="5.89698">
        <ele>710.59997558594</ele>
        <time>2011-11-13T09:47:01Z</time>
      </trkpt>
      <trkpt lat="45.52187" lon="5.897">
        <ele>710.59997558594</ele>
        <time>2011-11-13T09:47:03Z</time>
      </trkpt>
      <trkpt lat="45.52192" lon="5.89705">
        <ele>710.20001220703</ele>
        <time>2011-11-13T09:47:07Z</time>
      </trkpt>
      <trkpt lat="45.52195" lon="5.89713">
        <ele>709.40002441406</ele>
        <time>2011-11-13T09:47:12Z</time>
      </trkpt>
      <trkpt lat="45.52196" lon="5.89716">
        <ele>708.79998779297</ele>
        <time>2011-11-13T09:47:13Z</time>
      </trkpt>
      <trkpt lat="45.52199" lon="5.89723">
        <ele>707.79998779297</ele>
        <time>2011-11-13T09:47:17Z</time>
      </trkpt>
      <trkpt lat="45.522" lon="5.89726">
        <ele>707.20001220703</ele>
        <time>2011-11-13T09:47:20Z</time>
      </trkpt>
      <trkpt lat="45.52203" lon="5.8974">
        <ele>705.40002441406</ele>
        <time>2011-11-13T09:47:26Z</time>
      </trkpt>
      <trkpt lat="45.52206" lon="5.89749">
        <ele>704</ele>
        <time>2011-11-13T09:47:32Z</time>
      </trkpt>
      <trkpt lat="45.52207" lon="5.89758">
        <ele>703.20001220703</ele>
        <time>2011-11-13T09:47:35Z</time>
      </trkpt>
      <trkpt lat="45.5221" lon="5.89765">
        <ele>702.59997558594</ele>
        <time>2011-11-13T09:47:40Z</time>
      </trkpt>
      <trkpt lat="45.52213" lon="5.89772">
        <ele>702.40002441406</ele>
        <time>2011-11-13T09:47:45Z</time>
      </trkpt>
      <trkpt lat="45.52213" lon="5.89776">
        <ele>702.20001220703</ele>
        <time>2011-11-13T09:47:46Z</time>
      </trkpt>
      <trkpt lat="45.52217" lon="5.89788">
        <ele>702</ele>
        <time>2011-11-13T09:47:53Z</time>
      </trkpt>
      <trkpt lat="45.52219" lon="5.8979">
        <ele>702</ele>
        <time>2011-11-13T09:47:54Z</time>
      </trkpt>
      <trkpt lat="45.52222" lon="5.898">
        <ele>702.40002441406</ele>
        <time>2011-11-13T09:47:59Z</time>
      </trkpt>
      <trkpt lat="45.52224" lon="5.89812">
        <ele>703.40002441406</ele>
        <time>2011-11-13T09:48:04Z</time>
      </trkpt>
      <trkpt lat="45.52225" lon="5.89823">
        <ele>704.20001220703</ele>
        <time>2011-11-13T09:48:08Z</time>
      </trkpt>
      <trkpt lat="45.52227" lon="5.89832">
        <ele>705</ele>
        <time>2011-11-13T09:48:12Z</time>
      </trkpt>
      <trkpt lat="45.52227" lon="5.89852">
        <ele>706.40002441406</ele>
        <time>2011-11-13T09:48:17Z</time>
      </trkpt>
      <trkpt lat="45.5223" lon="5.89873">
        <ele>707.79998779297</ele>
        <time>2011-11-13T09:48:23Z</time>
      </trkpt>
      <trkpt lat="45.52232" lon="5.89883">
        <ele>708.40002441406</ele>
        <time>2011-11-13T09:48:27Z</time>
      </trkpt>
      <trkpt lat="45.52232" lon="5.89904">
        <ele>709.20001220703</ele>
        <time>2011-11-13T09:48:33Z</time>
      </trkpt>
      <trkpt lat="45.52235" lon="5.89931">
        <ele>710</ele>
        <time>2011-11-13T09:48:40Z</time>
      </trkpt>
      <trkpt lat="45.52237" lon="5.89952">
        <ele>711</ele>
        <time>2011-11-13T09:48:46Z</time>
      </trkpt>
      <trkpt lat="45.52237" lon="5.89971">
        <ele>711.59997558594</ele>
        <time>2011-11-13T09:48:52Z</time>
      </trkpt>
      <trkpt lat="45.52238" lon="5.89992">
        <ele>712.79998779297</ele>
        <time>2011-11-13T09:48:58Z</time>
      </trkpt>
      <trkpt lat="45.52238" lon="5.90008">
        <ele>713.40002441406</ele>
        <time>2011-11-13T09:49:03Z</time>
      </trkpt>
      <trkpt lat="45.52237" lon="5.90028">
        <ele>714.20001220703</ele>
        <time>2011-11-13T09:49:10Z</time>
      </trkpt>
      <trkpt lat="45.52235" lon="5.90049">
        <ele>715.40002441406</ele>
        <time>2011-11-13T09:49:16Z</time>
      </trkpt>
      <trkpt lat="45.52234" lon="5.90052">
        <ele>715.40002441406</ele>
        <time>2011-11-13T09:49:18Z</time>
      </trkpt>
      <trkpt lat="45.52227" lon="5.9005">
        <ele>716.59997558594</ele>
        <time>2011-11-13T09:49:22Z</time>
      </trkpt>
      <trkpt lat="45.52224" lon="5.90047">
        <ele>717.20001220703</ele>
        <time>2011-11-13T09:49:25Z</time>
      </trkpt>
      <trkpt lat="45.5222" lon="5.90038">
        <ele>717.79998779297</ele>
        <time>2011-11-13T09:49:32Z</time>
      </trkpt>
      <trkpt lat="45.52219" lon="5.90031">
        <ele>718.20001220703</ele>
        <time>2011-11-13T09:49:38Z</time>
      </trkpt>
      <trkpt lat="45.52216" lon="5.90027">
        <ele>718.40002441406</ele>
        <time>2011-11-13T09:49:42Z</time>
      </trkpt>
      <trkpt lat="45.52211" lon="5.90021">
        <ele>718.40002441406</ele>
        <time>2011-11-13T09:49:48Z</time>
      </trkpt>
      <trkpt lat="45.52208" lon="5.90018">
        <ele>718</ele>
        <time>2011-11-13T09:49:51Z</time>
      </trkpt>
      <trkpt lat="45.52207" lon="5.90017">
        <ele>717.59997558594</ele>
        <time>2011-11-13T09:49:52Z</time>
      </trkpt>
      <trkpt lat="45.52202" lon="5.90013">
        <ele>717.20001220703</ele>
        <time>2011-11-13T09:49:57Z</time>
      </trkpt>
      <trkpt lat="45.52198" lon="5.9001">
        <ele>717</ele>
        <time>2011-11-13T09:50:02Z</time>
      </trkpt>
      <trkpt lat="45.52197" lon="5.90009">
        <ele>717</ele>
        <time>2011-11-13T09:50:03Z</time>
      </trkpt>
      <trkpt lat="45.52194" lon="5.90007">
        <ele>716.79998779297</ele>
        <time>2011-11-13T09:50:07Z</time>
      </trkpt>
      <trkpt lat="45.52188" lon="5.90003">
        <ele>715.79998779297</ele>
        <time>2011-11-13T09:50:13Z</time>
      </trkpt>
      <trkpt lat="45.52184" lon="5.90002">
        <ele>715.40002441406</ele>
        <time>2011-11-13T09:50:16Z</time>
      </trkpt>
      <trkpt lat="45.5218" lon="5.9">
        <ele>715</ele>
        <time>2011-11-13T09:50:21Z</time>
      </trkpt>
      <trkpt lat="45.52177" lon="5.89998">
        <ele>714.79998779297</ele>
        <time>2011-11-13T09:50:24Z</time>
      </trkpt>
      <trkpt lat="45.52174" lon="5.89997">
        <ele>714.79998779297</ele>
        <time>2011-11-13T09:50:27Z</time>
      </trkpt>
      <trkpt lat="45.52171" lon="5.89995">
        <ele>714.79998779297</ele>
        <time>2011-11-13T09:50:31Z</time>
      </trkpt>
      <trkpt lat="45.52166" lon="5.89992">
        <ele>714.59997558594</ele>
        <time>2011-11-13T09:50:37Z</time>
      </trkpt>
      <trkpt lat="45.52164" lon="5.89991">
        <ele>714.59997558594</ele>
        <time>2011-11-13T09:50:38Z</time>
      </trkpt>
      <trkpt lat="45.52159" lon="5.89985">
        <ele>714.59997558594</ele>
        <time>2011-11-13T09:50:44Z</time>
      </trkpt>
      <trkpt lat="45.52156" lon="5.89984">
        <ele>714.59997558594</ele>
        <time>2011-11-13T09:50:48Z</time>
      </trkpt>
      <trkpt lat="45.52151" lon="5.89981">
        <ele>715.20001220703</ele>
        <time>2011-11-13T09:50:53Z</time>
      </trkpt>
      <trkpt lat="45.5215" lon="5.89981">
        <ele>715.40002441406</ele>
        <time>2011-11-13T09:50:56Z</time>
      </trkpt>
      <trkpt lat="45.52143" lon="5.89978">
        <ele>716</ele>
        <time>2011-11-13T09:51:03Z</time>
      </trkpt>
      <trkpt lat="45.52139" lon="5.89976">
        <ele>717.40002441406</ele>
        <time>2011-11-13T09:51:12Z</time>
      </trkpt>
      <trkpt lat="45.52133" lon="5.89975">
        <ele>718.79998779297</ele>
        <time>2011-11-13T09:51:18Z</time>
      </trkpt>
      <trkpt lat="45.52132" lon="5.89975">
        <ele>719</ele>
        <time>2011-11-13T09:51:20Z</time>
      </trkpt>
      <trkpt lat="45.52129" lon="5.89973">
        <ele>719.59997558594</ele>
        <time>2011-11-13T09:51:23Z</time>
      </trkpt>
      <trkpt lat="45.52127" lon="5.89973">
        <ele>720</ele>
        <time>2011-11-13T09:51:26Z</time>
      </trkpt>
      <trkpt lat="45.52125" lon="5.89972">
        <ele>720.79998779297</ele>
        <time>2011-11-13T09:51:28Z</time>
      </trkpt>
      <trkpt lat="45.52118" lon="5.8997">
        <ele>721.79998779297</ele>
        <time>2011-11-13T09:51:36Z</time>
      </trkpt>
      <trkpt lat="45.52113" lon="5.89968">
        <ele>723.20001220703</ele>
        <time>2011-11-13T09:51:40Z</time>
      </trkpt>
      <trkpt lat="45.5211" lon="5.89967">
        <ele>723.59997558594</ele>
        <time>2011-11-13T09:51:43Z</time>
      </trkpt>
      <trkpt lat="45.52105" lon="5.89963">
        <ele>724.40002441406</ele>
        <time>2011-11-13T09:51:50Z</time>
      </trkpt>
      <trkpt lat="45.52098" lon="5.89962">
        <ele>725.59997558594</ele>
        <time>2011-11-13T09:51:56Z</time>
      </trkpt>
      <trkpt lat="45.52098" lon="5.89962">
        <ele>725.79998779297</ele>
        <time>2011-11-13T09:51:57Z</time>
      </trkpt>
      <trkpt lat="45.52095" lon="5.89961">
        <ele>726.20001220703</ele>
        <time>2011-11-13T09:52:01Z</time>
      </trkpt>
      <trkpt lat="45.52092" lon="5.89958">
        <ele>727</ele>
        <time>2011-11-13T09:52:04Z</time>
      </trkpt>
      <trkpt lat="45.52087" lon="5.89958">
        <ele>727.79998779297</ele>
        <time>2011-11-13T09:52:10Z</time>
      </trkpt>
      <trkpt lat="45.52083" lon="5.89958">
        <ele>729.20001220703</ele>
        <time>2011-11-13T09:52:16Z</time>
      </trkpt>
      <trkpt lat="45.5208" lon="5.89958">
        <ele>730</ele>
        <time>2011-11-13T09:52:20Z</time>
      </trkpt>
      <trkpt lat="45.52075" lon="5.8996">
        <ele>730.79998779297</ele>
        <time>2011-11-13T09:52:23Z</time>
      </trkpt>
      <trkpt lat="45.52069" lon="5.8996">
        <ele>731.79998779297</ele>
        <time>2011-11-13T09:52:28Z</time>
      </trkpt>
      <trkpt lat="45.52068" lon="5.89961">
        <ele>732</ele>
        <time>2011-11-13T09:52:30Z</time>
      </trkpt>
      <trkpt lat="45.52065" lon="5.89962">
        <ele>732.79998779297</ele>
        <time>2011-11-13T09:52:33Z</time>
      </trkpt>
      <trkpt lat="45.52061" lon="5.89964">
        <ele>733.79998779297</ele>
        <time>2011-11-13T09:52:37Z</time>
      </trkpt>
      <trkpt lat="45.52058" lon="5.89966">
        <ele>735</ele>
        <time>2011-11-13T09:52:42Z</time>
      </trkpt>
      <trkpt lat="45.52056" lon="5.89967">
        <ele>735.40002441406</ele>
        <time>2011-11-13T09:52:43Z</time>
      </trkpt>
      <trkpt lat="45.52042" lon="5.8997">
        <ele>738.59997558594</ele>
        <time>2011-11-13T09:52:57Z</time>
      </trkpt>
      <trkpt lat="45.52031" lon="5.89969">
        <ele>740.20001220703</ele>
        <time>2011-11-13T09:53:03Z</time>
      </trkpt>
      <trkpt lat="45.52026" lon="5.89968">
        <ele>741.20001220703</ele>
        <time>2011-11-13T09:53:07Z</time>
      </trkpt>
      <trkpt lat="45.52024" lon="5.89967">
        <ele>741.79998779297</ele>
        <time>2011-11-13T09:53:08Z</time>
      </trkpt>
      <trkpt lat="45.52018" lon="5.89967">
        <ele>742.79998779297</ele>
        <time>2011-11-13T09:53:13Z</time>
      </trkpt>
      <trkpt lat="45.52013" lon="5.89965">
        <ele>743.79998779297</ele>
        <time>2011-11-13T09:53:16Z</time>
      </trkpt>
      <trkpt lat="45.52008" lon="5.89963">
        <ele>744.79998779297</ele>
        <time>2011-11-13T09:53:22Z</time>
      </trkpt>
      <trkpt lat="45.52007" lon="5.89962">
        <ele>745</ele>
        <time>2011-11-13T09:53:23Z</time>
      </trkpt>
      <trkpt lat="45.52001" lon="5.89959">
        <ele>745.59997558594</ele>
        <time>2011-11-13T09:53:28Z</time>
      </trkpt>
      <trkpt lat="45.51993" lon="5.89955">
        <ele>747</ele>
        <time>2011-11-13T09:53:36Z</time>
      </trkpt>
      <trkpt lat="45.51992" lon="5.89954">
        <ele>747</ele>
        <time>2011-11-13T09:53:37Z</time>
      </trkpt>
      <trkpt lat="45.51985" lon="5.89952">
        <ele>748.20001220703</ele>
        <time>2011-11-13T09:53:43Z</time>
      </trkpt>
      <trkpt lat="45.51978" lon="5.89951">
        <ele>749.40002441406</ele>
        <time>2011-11-13T09:53:48Z</time>
      </trkpt>
      <trkpt lat="45.51976" lon="5.89952">
        <ele>750.20001220703</ele>
        <time>2011-11-13T09:53:51Z</time>
      </trkpt>
      <trkpt lat="45.5197" lon="5.89952">
        <ele>751.40002441406</ele>
        <time>2011-11-13T09:53:57Z</time>
      </trkpt>
      <trkpt lat="45.51968" lon="5.89951">
        <ele>751.79998779297</ele>
        <time>2011-11-13T09:53:58Z</time>
      </trkpt>
      <trkpt lat="45.51962" lon="5.89949">
        <ele>752.79998779297</ele>
        <time>2011-11-13T09:54:02Z</time>
      </trkpt>
      <trkpt lat="45.51959" lon="5.89948">
        <ele>753</ele>
        <time>2011-11-13T09:54:03Z</time>
      </trkpt>
      <trkpt lat="45.51957" lon="5.8995">
        <ele>753.59997558594</ele>
        <time>2011-11-13T09:54:06Z</time>
      </trkpt>
      <trkpt lat="45.51942" lon="5.89945">
        <ele>755.20001220703</ele>
        <time>2011-11-13T09:54:13Z</time>
      </trkpt>
      <trkpt lat="45.51938" lon="5.89942">
        <ele>755.59997558594</ele>
        <time>2011-11-13T09:54:15Z</time>
      </trkpt>
      <trkpt lat="45.51934" lon="5.89941">
        <ele>756.20001220703</ele>
        <time>2011-11-13T09:54:16Z</time>
      </trkpt>
      <trkpt lat="45.5193" lon="5.89941">
        <ele>756.79998779297</ele>
        <time>2011-11-13T09:54:20Z</time>
      </trkpt>
      <trkpt lat="45.51926" lon="5.89942">
        <ele>757.40002441406</ele>
        <time>2011-11-13T09:54:22Z</time>
      </trkpt>
      <trkpt lat="45.51915" lon="5.89942">
        <ele>758.59997558594</ele>
        <time>2011-11-13T09:54:28Z</time>
      </trkpt>
      <trkpt lat="45.51906" lon="5.8994">
        <ele>759.40002441406</ele>
        <time>2011-11-13T09:54:33Z</time>
      </trkpt>
      <trkpt lat="45.51897" lon="5.8994">
        <ele>760.59997558594</ele>
        <time>2011-11-13T09:54:38Z</time>
      </trkpt>
      <trkpt lat="45.51896" lon="5.8994">
        <ele>761</ele>
        <time>2011-11-13T09:54:40Z</time>
      </trkpt>
      <trkpt lat="45.51884" lon="5.89937">
        <ele>762.79998779297</ele>
        <time>2011-11-13T09:54:48Z</time>
      </trkpt>
      <trkpt lat="45.5188" lon="5.89936">
        <ele>763.20001220703</ele>
        <time>2011-11-13T09:54:50Z</time>
      </trkpt>
      <trkpt lat="45.51874" lon="5.89935">
        <ele>763.79998779297</ele>
        <time>2011-11-13T09:54:53Z</time>
      </trkpt>
      <trkpt lat="45.51866" lon="5.89931">
        <ele>765</ele>
        <time>2011-11-13T09:54:59Z</time>
      </trkpt>
      <trkpt lat="45.51852" lon="5.8993">
        <ele>765.79998779297</ele>
        <time>2011-11-13T09:55:06Z</time>
      </trkpt>
      <trkpt lat="45.5185" lon="5.8993">
        <ele>766</ele>
        <time>2011-11-13T09:55:07Z</time>
      </trkpt>
      <trkpt lat="45.51841" lon="5.89928">
        <ele>766.20001220703</ele>
        <time>2011-11-13T09:55:10Z</time>
      </trkpt>
      <trkpt lat="45.51837" lon="5.89926">
        <ele>766.40002441406</ele>
        <time>2011-11-13T09:55:13Z</time>
      </trkpt>
      <trkpt lat="45.51828" lon="5.89926">
        <ele>766.59997558594</ele>
        <time>2011-11-13T09:55:18Z</time>
      </trkpt>
      <trkpt lat="45.51825" lon="5.89927">
        <ele>766.59997558594</ele>
        <time>2011-11-13T09:55:20Z</time>
      </trkpt>
      <trkpt lat="45.51812" lon="5.89923">
        <ele>766.79998779297</ele>
        <time>2011-11-13T09:55:24Z</time>
      </trkpt>
      <trkpt lat="45.51804" lon="5.89918">
        <ele>766.79998779297</ele>
        <time>2011-11-13T09:55:28Z</time>
      </trkpt>
      <trkpt lat="45.51795" lon="5.89909">
        <ele>767.40002441406</ele>
        <time>2011-11-13T09:55:33Z</time>
      </trkpt>
      <trkpt lat="45.51794" lon="5.89901">
        <ele>767.79998779297</ele>
        <time>2011-11-13T09:55:37Z</time>
      </trkpt>
      <trkpt lat="45.51793" lon="5.89891">
        <ele>768.20001220703</ele>
        <time>2011-11-13T09:55:42Z</time>
      </trkpt>
      <trkpt lat="45.51792" lon="5.89885">
        <ele>768.40002441406</ele>
        <time>2011-11-13T09:55:45Z</time>
      </trkpt>
      <trkpt lat="45.51791" lon="5.8988">
        <ele>768.59997558594</ele>
        <time>2011-11-13T09:55:46Z</time>
      </trkpt>
      <trkpt lat="45.51786" lon="5.8987">
        <ele>769.59997558594</ele>
        <time>2011-11-13T09:55:52Z</time>
      </trkpt>
      <trkpt lat="45.51785" lon="5.89867">
        <ele>769.79998779297</ele>
        <time>2011-11-13T09:55:53Z</time>
      </trkpt>
      <trkpt lat="45.51779" lon="5.89857">
        <ele>771</ele>
        <time>2011-11-13T09:56:01Z</time>
      </trkpt>
      <trkpt lat="45.51778" lon="5.89856">
        <ele>771.20001220703</ele>
        <time>2011-11-13T09:56:02Z</time>
      </trkpt>
      <trkpt lat="45.51773" lon="5.8985">
        <ele>772</ele>
        <time>2011-11-13T09:56:08Z</time>
      </trkpt>
      <trkpt lat="45.51772" lon="5.89849">
        <ele>772.20001220703</ele>
        <time>2011-11-13T09:56:08Z</time>
      </trkpt>
      <trkpt lat="45.51768" lon="5.89844">
        <ele>772.59997558594</ele>
        <time>2011-11-13T09:56:13Z</time>
      </trkpt>
      <trkpt lat="45.51767" lon="5.89842">
        <ele>772.59997558594</ele>
        <time>2011-11-13T09:56:14Z</time>
      </trkpt>
      <trkpt lat="45.51762" lon="5.89838">
        <ele>772.79998779297</ele>
        <time>2011-11-13T09:56:18Z</time>
      </trkpt>
      <trkpt lat="45.51758" lon="5.89834">
        <ele>773</ele>
        <time>2011-11-13T09:56:23Z</time>
      </trkpt>
      <trkpt lat="45.51754" lon="5.89832">
        <ele>773</ele>
        <time>2011-11-13T09:56:30Z</time>
      </trkpt>
      <trkpt lat="45.51751" lon="5.89831">
        <ele>773</ele>
        <time>2011-11-13T09:56:37Z</time>
      </trkpt>
      <trkpt lat="45.51746" lon="5.89832">
        <ele>773</ele>
        <time>2011-11-13T09:56:43Z</time>
      </trkpt>
      <trkpt lat="45.51744" lon="5.89833">
        <ele>773</ele>
        <time>2011-11-13T09:56:48Z</time>
      </trkpt>
      <trkpt lat="45.51741" lon="5.89834">
        <ele>773</ele>
        <time>2011-11-13T09:56:52Z</time>
      </trkpt>
      <trkpt lat="45.51736" lon="5.89836">
        <ele>773</ele>
        <time>2011-11-13T09:57:01Z</time>
      </trkpt>
      <trkpt lat="45.51733" lon="5.89838">
        <ele>773</ele>
        <time>2011-11-13T09:57:06Z</time>
      </trkpt>
      <trkpt lat="45.5173" lon="5.89837">
        <ele>773</ele>
        <time>2011-11-13T09:57:10Z</time>
      </trkpt>
      <trkpt lat="45.51728" lon="5.89837">
        <ele>773</ele>
        <time>2011-11-13T09:57:13Z</time>
      </trkpt>
      <trkpt lat="45.51714" lon="5.89834">
        <ele>773</ele>
        <time>2011-11-13T09:57:20Z</time>
      </trkpt>
      <trkpt lat="45.51707" lon="5.89831">
        <ele>773</ele>
        <time>2011-11-13T09:57:23Z</time>
      </trkpt>
      <trkpt lat="45.51702" lon="5.89828">
        <ele>773</ele>
        <time>2011-11-13T09:57:26Z</time>
      </trkpt>
      <trkpt lat="45.51687" lon="5.89816">
        <ele>773</ele>
        <time>2011-11-13T09:57:32Z</time>
      </trkpt>
      <trkpt lat="45.51675" lon="5.89807">
        <ele>773</ele>
        <time>2011-11-13T09:57:37Z</time>
      </trkpt>
      <trkpt lat="45.51672" lon="5.89807">
        <ele>773</ele>
        <time>2011-11-13T09:57:38Z</time>
      </trkpt>
      <trkpt lat="45.51664" lon="5.89808">
        <ele>773</ele>
        <time>2011-11-13T09:57:42Z</time>
      </trkpt>
      <trkpt lat="45.51658" lon="5.89808">
        <ele>773</ele>
        <time>2011-11-13T09:57:46Z</time>
      </trkpt>
      <trkpt lat="45.51656" lon="5.89804">
        <ele>773.79998779297</ele>
        <time>2011-11-13T09:57:50Z</time>
      </trkpt>
      <trkpt lat="45.51656" lon="5.89801">
        <ele>774</ele>
        <time>2011-11-13T09:57:52Z</time>
      </trkpt>
      <trkpt lat="45.51658" lon="5.89795">
        <ele>774.79998779297</ele>
        <time>2011-11-13T09:57:54Z</time>
      </trkpt>
      <trkpt lat="45.51659" lon="5.89793">
        <ele>775</ele>
        <time>2011-11-13T09:57:55Z</time>
      </trkpt>
      <trkpt lat="45.51665" lon="5.89787">
        <ele>776.40002441406</ele>
        <time>2011-11-13T09:57:59Z</time>
      </trkpt>
      <trkpt lat="45.51665" lon="5.89786">
        <ele>776.79998779297</ele>
        <time>2011-11-13T09:58:00Z</time>
      </trkpt>
      <trkpt lat="45.51668" lon="5.89783">
        <ele>777.79998779297</ele>
        <time>2011-11-13T09:58:03Z</time>
      </trkpt>
      <trkpt lat="45.51669" lon="5.89773">
        <ele>780.20001220703</ele>
        <time>2011-11-13T09:58:10Z</time>
      </trkpt>
      <trkpt lat="45.51669" lon="5.89772">
        <ele>780.59997558594</ele>
        <time>2011-11-13T09:58:10Z</time>
      </trkpt>
      <trkpt lat="45.51672" lon="5.89764">
        <ele>782.79998779297</ele>
        <time>2011-11-13T09:58:16Z</time>
      </trkpt>
      <trkpt lat="45.51675" lon="5.89759">
        <ele>784.79998779297</ele>
        <time>2011-11-13T09:58:22Z</time>
      </trkpt>
      <trkpt lat="45.51674" lon="5.89755">
        <ele>786</ele>
        <time>2011-11-13T09:58:26Z</time>
      </trkpt>
      <trkpt lat="45.5167" lon="5.8975">
        <ele>787.40002441406</ele>
        <time>2011-11-13T09:58:31Z</time>
      </trkpt>
      <trkpt lat="45.51667" lon="5.89746">
        <ele>789</ele>
        <time>2011-11-13T09:58:36Z</time>
      </trkpt>
      <trkpt lat="45.51663" lon="5.89743">
        <ele>789.79998779297</ele>
        <time>2011-11-13T09:58:40Z</time>
      </trkpt>
      <trkpt lat="45.51661" lon="5.89742">
        <ele>790</ele>
        <time>2011-11-13T09:58:42Z</time>
      </trkpt>
      <trkpt lat="45.51659" lon="5.89741">
        <ele>790.20001220703</ele>
        <time>2011-11-13T09:58:43Z</time>
      </trkpt>
      <trkpt lat="45.51655" lon="5.89739">
        <ele>790.59997558594</ele>
        <time>2011-11-13T09:58:48Z</time>
      </trkpt>
      <trkpt lat="45.51654" lon="5.89737">
        <ele>790.79998779297</ele>
        <time>2011-11-13T09:58:51Z</time>
      </trkpt>
      <trkpt lat="45.51645" lon="5.8973">
        <ele>791.20001220703</ele>
        <time>2011-11-13T09:59:12Z</time>
      </trkpt>
      <trkpt lat="45.51645" lon="5.89726">
        <ele>791.20001220703</ele>
        <time>2011-11-13T09:59:22Z</time>
      </trkpt>
      <trkpt lat="45.51645" lon="5.8972">
        <ele>791.20001220703</ele>
        <time>2011-11-13T09:59:28Z</time>
      </trkpt>
      <trkpt lat="45.51643" lon="5.89716">
        <ele>791.20001220703</ele>
        <time>2011-11-13T09:59:33Z</time>
      </trkpt>
      <trkpt lat="45.51641" lon="5.89711">
        <ele>791.20001220703</ele>
        <time>2011-11-13T09:59:38Z</time>
      </trkpt>
      <trkpt lat="45.5164" lon="5.89702">
        <ele>792.20001220703</ele>
        <time>2011-11-13T09:59:46Z</time>
      </trkpt>
      <trkpt lat="45.51639" lon="5.89698">
        <ele>792.59997558594</ele>
        <time>2011-11-13T09:59:51Z</time>
      </trkpt>
      <trkpt lat="45.51637" lon="5.89692">
        <ele>793</ele>
        <time>2011-11-13T10:00:00Z</time>
      </trkpt>
      <trkpt lat="45.51636" lon="5.89689">
        <ele>794</ele>
        <time>2011-11-13T10:00:06Z</time>
      </trkpt>
      <trkpt lat="45.51636" lon="5.89681">
        <ele>794.59997558594</ele>
        <time>2011-11-13T10:00:13Z</time>
      </trkpt>
      <trkpt lat="45.51637" lon="5.89678">
        <ele>794.79998779297</ele>
        <time>2011-11-13T10:00:16Z</time>
      </trkpt>
      <trkpt lat="45.51636" lon="5.89672">
        <ele>795</ele>
        <time>2011-11-13T10:00:20Z</time>
      </trkpt>
      <trkpt lat="45.51636" lon="5.89669">
        <ele>795</ele>
        <time>2011-11-13T10:00:23Z</time>
      </trkpt>
      <trkpt lat="45.51636" lon="5.89661">
        <ele>796.20001220703</ele>
        <time>2011-11-13T10:00:28Z</time>
      </trkpt>
      <trkpt lat="45.51636" lon="5.89651">
        <ele>796.79998779297</ele>
        <time>2011-11-13T10:00:36Z</time>
      </trkpt>
      <trkpt lat="45.51635" lon="5.89648">
        <ele>796.79998779297</ele>
        <time>2011-11-13T10:00:38Z</time>
      </trkpt>
      <trkpt lat="45.51634" lon="5.89645">
        <ele>797.40002441406</ele>
        <time>2011-11-13T10:00:42Z</time>
      </trkpt>
      <trkpt lat="45.51633" lon="5.89638">
        <ele>798.20001220703</ele>
        <time>2011-11-13T10:00:47Z</time>
      </trkpt>
      <trkpt lat="45.51636" lon="5.89624">
        <ele>798.79998779297</ele>
        <time>2011-11-13T10:00:53Z</time>
      </trkpt>
      <trkpt lat="45.51637" lon="5.8962">
        <ele>798.79998779297</ele>
        <time>2011-11-13T10:00:56Z</time>
      </trkpt>
      <trkpt lat="45.51639" lon="5.89617">
        <ele>799</ele>
        <time>2011-11-13T10:00:58Z</time>
      </trkpt>
      <trkpt lat="45.51641" lon="5.89606">
        <ele>799.59997558594</ele>
        <time>2011-11-13T10:01:02Z</time>
      </trkpt>
      <trkpt lat="45.51642" lon="5.89591">
        <ele>800.40002441406</ele>
        <time>2011-11-13T10:01:07Z</time>
      </trkpt>
      <trkpt lat="45.51646" lon="5.8958">
        <ele>801.20001220703</ele>
        <time>2011-11-13T10:01:11Z</time>
      </trkpt>
      <trkpt lat="45.5165" lon="5.89567">
        <ele>802</ele>
        <time>2011-11-13T10:01:15Z</time>
      </trkpt>
      <trkpt lat="45.51652" lon="5.89553">
        <ele>802.79998779297</ele>
        <time>2011-11-13T10:01:18Z</time>
      </trkpt>
      <trkpt lat="45.51654" lon="5.89531">
        <ele>804.20001220703</ele>
        <time>2011-11-13T10:01:23Z</time>
      </trkpt>
      <trkpt lat="45.51654" lon="5.89527">
        <ele>804.59997558594</ele>
        <time>2011-11-13T10:01:25Z</time>
      </trkpt>
      <trkpt lat="45.51653" lon="5.8951">
        <ele>805.79998779297</ele>
        <time>2011-11-13T10:01:30Z</time>
      </trkpt>
      <trkpt lat="45.51652" lon="5.89506">
        <ele>806</ele>
        <time>2011-11-13T10:01:31Z</time>
      </trkpt>
      <trkpt lat="45.5165" lon="5.8949">
        <ele>806.79998779297</ele>
        <time>2011-11-13T10:01:36Z</time>
      </trkpt>
      <trkpt lat="45.51646" lon="5.89472">
        <ele>807.20001220703</ele>
        <time>2011-11-13T10:01:41Z</time>
      </trkpt>
      <trkpt lat="45.51642" lon="5.8946">
        <ele>807.40002441406</ele>
        <time>2011-11-13T10:01:45Z</time>
      </trkpt>
      <trkpt lat="45.51622" lon="5.89441">
        <ele>807.59997558594</ele>
        <time>2011-11-13T10:01:53Z</time>
      </trkpt>
      <trkpt lat="45.5161" lon="5.89434">
        <ele>807.59997558594</ele>
        <time>2011-11-13T10:01:58Z</time>
      </trkpt>
      <trkpt lat="45.51598" lon="5.89426">
        <ele>807.79998779297</ele>
        <time>2011-11-13T10:02:04Z</time>
      </trkpt>
      <trkpt lat="45.51585" lon="5.89415">
        <ele>807.79998779297</ele>
        <time>2011-11-13T10:02:10Z</time>
      </trkpt>
      <trkpt lat="45.51572" lon="5.89405">
        <ele>806.79998779297</ele>
        <time>2011-11-13T10:02:16Z</time>
      </trkpt>
      <trkpt lat="45.51561" lon="5.894">
        <ele>806.40002441406</ele>
        <time>2011-11-13T10:02:20Z</time>
      </trkpt>
      <trkpt lat="45.51549" lon="5.89393">
        <ele>805.59997558594</ele>
        <time>2011-11-13T10:02:25Z</time>
      </trkpt>
      <trkpt lat="45.51537" lon="5.89384">
        <ele>804.79998779297</ele>
        <time>2011-11-13T10:02:30Z</time>
      </trkpt>
      <trkpt lat="45.51526" lon="5.89378">
        <ele>804.20001220703</ele>
        <time>2011-11-13T10:02:35Z</time>
      </trkpt>
      <trkpt lat="45.51517" lon="5.89371">
        <ele>803.79998779297</ele>
        <time>2011-11-13T10:02:39Z</time>
      </trkpt>
      <trkpt lat="45.51505" lon="5.89365">
        <ele>802.79998779297</ele>
        <time>2011-11-13T10:02:44Z</time>
      </trkpt>
      <trkpt lat="45.515" lon="5.89364">
        <ele>802.59997558594</ele>
        <time>2011-11-13T10:02:46Z</time>
      </trkpt>
      <trkpt lat="45.5149" lon="5.89356">
        <ele>801.79998779297</ele>
        <time>2011-11-13T10:02:51Z</time>
      </trkpt>
      <trkpt lat="45.51474" lon="5.89346">
        <ele>800.59997558594</ele>
        <time>2011-11-13T10:02:57Z</time>
      </trkpt>
      <trkpt lat="45.5146" lon="5.89339">
        <ele>800</ele>
        <time>2011-11-13T10:03:03Z</time>
      </trkpt>
      <trkpt lat="45.51458" lon="5.89339">
        <ele>800</ele>
        <time>2011-11-13T10:03:04Z</time>
      </trkpt>
      <trkpt lat="45.51448" lon="5.89334">
        <ele>799.79998779297</ele>
        <time>2011-11-13T10:03:08Z</time>
      </trkpt>
      <trkpt lat="45.51444" lon="5.89333">
        <ele>799.79998779297</ele>
        <time>2011-11-13T10:03:10Z</time>
      </trkpt>
      <trkpt lat="45.51434" lon="5.89327">
        <ele>799.59997558594</ele>
        <time>2011-11-13T10:03:15Z</time>
      </trkpt>
      <trkpt lat="45.51424" lon="5.89324">
        <ele>799.59997558594</ele>
        <time>2011-11-13T10:03:19Z</time>
      </trkpt>
      <trkpt lat="45.51416" lon="5.89318">
        <ele>799.59997558594</ele>
        <time>2011-11-13T10:03:23Z</time>
      </trkpt>
      <trkpt lat="45.51405" lon="5.89316">
        <ele>799.40002441406</ele>
        <time>2011-11-13T10:03:29Z</time>
      </trkpt>
      <trkpt lat="45.51403" lon="5.89315">
        <ele>799.40002441406</ele>
        <time>2011-11-13T10:03:30Z</time>
      </trkpt>
      <trkpt lat="45.51395" lon="5.89312">
        <ele>799.40002441406</ele>
        <time>2011-11-13T10:03:35Z</time>
      </trkpt>
      <trkpt lat="45.51386" lon="5.89307">
        <ele>799.40002441406</ele>
        <time>2011-11-13T10:03:42Z</time>
      </trkpt>
      <trkpt lat="45.51385" lon="5.89306">
        <ele>799.40002441406</ele>
        <time>2011-11-13T10:03:43Z</time>
      </trkpt>
      <trkpt lat="45.51376" lon="5.89301">
        <ele>799.40002441406</ele>
        <time>2011-11-13T10:03:50Z</time>
      </trkpt>
      <trkpt lat="45.51368" lon="5.89297">
        <ele>800.20001220703</ele>
        <time>2011-11-13T10:03:55Z</time>
      </trkpt>
      <trkpt lat="45.51363" lon="5.89293">
        <ele>800.59997558594</ele>
        <time>2011-11-13T10:04:01Z</time>
      </trkpt>
      <trkpt lat="45.51361" lon="5.89292">
        <ele>801</ele>
        <time>2011-11-13T10:04:02Z</time>
      </trkpt>
      <trkpt lat="45.51358" lon="5.89287">
        <ele>802.20001220703</ele>
        <time>2011-11-13T10:04:08Z</time>
      </trkpt>
      <trkpt lat="45.51355" lon="5.89286">
        <ele>802.79998779297</ele>
        <time>2011-11-13T10:04:12Z</time>
      </trkpt>
      <trkpt lat="45.51353" lon="5.89285">
        <ele>803</ele>
        <time>2011-11-13T10:04:14Z</time>
      </trkpt>
      <trkpt lat="45.51349" lon="5.89283">
        <ele>804</ele>
        <time>2011-11-13T10:04:18Z</time>
      </trkpt>
      <trkpt lat="45.51345" lon="5.8928">
        <ele>804.59997558594</ele>
        <time>2011-11-13T10:04:22Z</time>
      </trkpt>
      <trkpt lat="45.5134" lon="5.89275">
        <ele>805</ele>
        <time>2011-11-13T10:04:27Z</time>
      </trkpt>
      <trkpt lat="45.51339" lon="5.89274">
        <ele>805</ele>
        <time>2011-11-13T10:04:28Z</time>
      </trkpt>
      <trkpt lat="45.51334" lon="5.89272">
        <ele>805.20001220703</ele>
        <time>2011-11-13T10:04:32Z</time>
      </trkpt>
      <trkpt lat="45.51333" lon="5.89273">
        <ele>805.40002441406</ele>
        <time>2011-11-13T10:04:34Z</time>
      </trkpt>
      <trkpt lat="45.51329" lon="5.89273">
        <ele>805.40002441406</ele>
        <time>2011-11-13T10:04:37Z</time>
      </trkpt>
      <trkpt lat="45.51326" lon="5.89271">
        <ele>806</ele>
        <time>2011-11-13T10:04:40Z</time>
      </trkpt>
      <trkpt lat="45.51318" lon="5.8927">
        <ele>806.79998779297</ele>
        <time>2011-11-13T10:04:46Z</time>
      </trkpt>
      <trkpt lat="45.51311" lon="5.8927">
        <ele>807.20001220703</ele>
        <time>2011-11-13T10:04:52Z</time>
      </trkpt>
      <trkpt lat="45.51307" lon="5.89269">
        <ele>807.59997558594</ele>
        <time>2011-11-13T10:04:56Z</time>
      </trkpt>
      <trkpt lat="45.51301" lon="5.89266">
        <ele>808.59997558594</ele>
        <time>2011-11-13T10:05:02Z</time>
      </trkpt>
      <trkpt lat="45.51297" lon="5.89266">
        <ele>809</ele>
        <time>2011-11-13T10:05:06Z</time>
      </trkpt>
      <trkpt lat="45.51289" lon="5.89265">
        <ele>810.20001220703</ele>
        <time>2011-11-13T10:05:14Z</time>
      </trkpt>
      <trkpt lat="45.51288" lon="5.89265">
        <ele>810.40002441406</ele>
        <time>2011-11-13T10:05:15Z</time>
      </trkpt>
      <trkpt lat="45.51287" lon="5.89265">
        <ele>810.59997558594</ele>
        <time>2011-11-13T10:05:16Z</time>
      </trkpt>
      <trkpt lat="45.51284" lon="5.89265">
        <ele>811</ele>
        <time>2011-11-13T10:05:20Z</time>
      </trkpt>
      <trkpt lat="45.51282" lon="5.89264">
        <ele>811.20001220703</ele>
        <time>2011-11-13T10:05:22Z</time>
      </trkpt>
      <trkpt lat="45.51281" lon="5.89265">
        <ele>811.79998779297</ele>
        <time>2011-11-13T10:05:24Z</time>
      </trkpt>
      <trkpt lat="45.51274" lon="5.89274">
        <ele>812.79998779297</ele>
        <time>2011-11-13T10:05:30Z</time>
      </trkpt>
      <trkpt lat="45.51272" lon="5.89275">
        <ele>813</ele>
        <time>2011-11-13T10:05:31Z</time>
      </trkpt>
      <trkpt lat="45.51262" lon="5.89282">
        <ele>814.59997558594</ele>
        <time>2011-11-13T10:05:37Z</time>
      </trkpt>
      <trkpt lat="45.51261" lon="5.89285">
        <ele>814.79998779297</ele>
        <time>2011-11-13T10:05:38Z</time>
      </trkpt>
      <trkpt lat="45.51254" lon="5.89294">
        <ele>815.79998779297</ele>
        <time>2011-11-13T10:05:42Z</time>
      </trkpt>
      <trkpt lat="45.51251" lon="5.89299">
        <ele>816.40002441406</ele>
        <time>2011-11-13T10:05:44Z</time>
      </trkpt>
      <trkpt lat="45.51249" lon="5.89305">
        <ele>816.79998779297</ele>
        <time>2011-11-13T10:05:46Z</time>
      </trkpt>
      <trkpt lat="45.51245" lon="5.89311">
        <ele>818</ele>
        <time>2011-11-13T10:05:50Z</time>
      </trkpt>
      <trkpt lat="45.51238" lon="5.89312">
        <ele>819.20001220703</ele>
        <time>2011-11-13T10:05:54Z</time>
      </trkpt>
      <trkpt lat="45.51238" lon="5.89313">
        <ele>819.59997558594</ele>
        <time>2011-11-13T10:05:55Z</time>
      </trkpt>
      <trkpt lat="45.51234" lon="5.89311">
        <ele>820.59997558594</ele>
        <time>2011-11-13T10:05:58Z</time>
      </trkpt>
      <trkpt lat="45.51235" lon="5.89307">
        <ele>822.40002441406</ele>
        <time>2011-11-13T10:06:04Z</time>
      </trkpt>
      <trkpt lat="45.51233" lon="5.89302">
        <ele>823.79998779297</ele>
        <time>2011-11-13T10:06:09Z</time>
      </trkpt>
      <trkpt lat="45.51232" lon="5.89296">
        <ele>825.20001220703</ele>
        <time>2011-11-13T10:06:14Z</time>
      </trkpt>
      <trkpt lat="45.51232" lon="5.89295">
        <ele>825.40002441406</ele>
        <time>2011-11-13T10:06:15Z</time>
      </trkpt>
      <trkpt lat="45.51231" lon="5.89289">
        <ele>827.20001220703</ele>
        <time>2011-11-13T10:06:21Z</time>
      </trkpt>
      <trkpt lat="45.51231" lon="5.89288">
        <ele>827.40002441406</ele>
        <time>2011-11-13T10:06:22Z</time>
      </trkpt>
      <trkpt lat="45.5123" lon="5.89286">
        <ele>828.20001220703</ele>
        <time>2011-11-13T10:06:27Z</time>
      </trkpt>
      <trkpt lat="45.51225" lon="5.8928">
        <ele>828.59997558594</ele>
        <time>2011-11-13T10:06:32Z</time>
      </trkpt>
      <trkpt lat="45.51223" lon="5.89277">
        <ele>828.59997558594</ele>
        <time>2011-11-13T10:06:34Z</time>
      </trkpt>
      <trkpt lat="45.51218" lon="5.89273">
        <ele>828.79998779297</ele>
        <time>2011-11-13T10:06:39Z</time>
      </trkpt>
      <trkpt lat="45.51213" lon="5.89268">
        <ele>829</ele>
        <time>2011-11-13T10:06:43Z</time>
      </trkpt>
      <trkpt lat="45.51209" lon="5.89266">
        <ele>829</ele>
        <time>2011-11-13T10:06:44Z</time>
      </trkpt>
      <trkpt lat="45.51207" lon="5.89266">
        <ele>829</ele>
        <time>2011-11-13T10:06:45Z</time>
      </trkpt>
      <trkpt lat="45.51204" lon="5.89267">
        <ele>829</ele>
        <time>2011-11-13T10:06:48Z</time>
      </trkpt>
      <trkpt lat="45.51194" lon="5.89264">
        <ele>830.20001220703</ele>
        <time>2011-11-13T10:06:55Z</time>
      </trkpt>
      <trkpt lat="45.51188" lon="5.89263">
        <ele>830.79998779297</ele>
        <time>2011-11-13T10:06:58Z</time>
      </trkpt>
      <trkpt lat="45.51186" lon="5.89253">
        <ele>831.59997558594</ele>
        <time>2011-11-13T10:07:03Z</time>
      </trkpt>
      <trkpt lat="45.51188" lon="5.89242">
        <ele>833</ele>
        <time>2011-11-13T10:07:07Z</time>
      </trkpt>
      <trkpt lat="45.51189" lon="5.8924">
        <ele>833.40002441406</ele>
        <time>2011-11-13T10:07:08Z</time>
      </trkpt>
      <trkpt lat="45.51189" lon="5.89234">
        <ele>834.59997558594</ele>
        <time>2011-11-13T10:07:11Z</time>
      </trkpt>
      <trkpt lat="45.5119" lon="5.89227">
        <ele>836</ele>
        <time>2011-11-13T10:07:14Z</time>
      </trkpt>
      <trkpt lat="45.51191" lon="5.89214">
        <ele>839</ele>
        <time>2011-11-13T10:07:21Z</time>
      </trkpt>
      <trkpt lat="45.51192" lon="5.89207">
        <ele>841.40002441406</ele>
        <time>2011-11-13T10:07:27Z</time>
      </trkpt>
      <trkpt lat="45.51192" lon="5.89206">
        <ele>841.79998779297</ele>
        <time>2011-11-13T10:07:28Z</time>
      </trkpt>
      <trkpt lat="45.51191" lon="5.89199">
        <ele>843</ele>
        <time>2011-11-13T10:07:35Z</time>
      </trkpt>
      <trkpt lat="45.5119" lon="5.89197">
        <ele>843.20001220703</ele>
        <time>2011-11-13T10:07:37Z</time>
      </trkpt>
      <trkpt lat="45.51187" lon="5.89193">
        <ele>843.40002441406</ele>
        <time>2011-11-13T10:07:40Z</time>
      </trkpt>
      <trkpt lat="45.51184" lon="5.89188">
        <ele>843.79998779297</ele>
        <time>2011-11-13T10:07:45Z</time>
      </trkpt>
      <trkpt lat="45.51181" lon="5.89185">
        <ele>844</ele>
        <time>2011-11-13T10:07:49Z</time>
      </trkpt>
      <trkpt lat="45.5118" lon="5.89183">
        <ele>844</ele>
        <time>2011-11-13T10:07:52Z</time>
      </trkpt>
      <trkpt lat="45.51177" lon="5.89178">
        <ele>844.20001220703</ele>
        <time>2011-11-13T10:07:57Z</time>
      </trkpt>
      <trkpt lat="45.51174" lon="5.89174">
        <ele>844.20001220703</ele>
        <time>2011-11-13T10:08:03Z</time>
      </trkpt>
      <trkpt lat="45.51173" lon="5.89163">
        <ele>844.20001220703</ele>
        <time>2011-11-13T10:08:12Z</time>
      </trkpt>
      <trkpt lat="45.51171" lon="5.89155">
        <ele>844.20001220703</ele>
        <time>2011-11-13T10:08:17Z</time>
      </trkpt>
      <trkpt lat="45.51168" lon="5.89144">
        <ele>844.20001220703</ele>
        <time>2011-11-13T10:08:27Z</time>
      </trkpt>
      <trkpt lat="45.51165" lon="5.89137">
        <ele>844.20001220703</ele>
        <time>2011-11-13T10:08:31Z</time>
      </trkpt>
      <trkpt lat="45.51159" lon="5.89129">
        <ele>844.20001220703</ele>
        <time>2011-11-13T10:08:38Z</time>
      </trkpt>
      <trkpt lat="45.51159" lon="5.89128">
        <ele>844.20001220703</ele>
        <time>2011-11-13T10:08:38Z</time>
      </trkpt>
      <trkpt lat="45.51157" lon="5.89121">
        <ele>844.20001220703</ele>
        <time>2011-11-13T10:08:45Z</time>
      </trkpt>
      <trkpt lat="45.51157" lon="5.89121">
        <ele>844.20001220703</ele>
        <time>2011-11-13T10:08:45Z</time>
      </trkpt>
      <trkpt lat="45.51157" lon="5.89119">
        <ele>844.20001220703</ele>
        <time>2011-11-13T10:08:47Z</time>
      </trkpt>
      <trkpt lat="45.51155" lon="5.89117">
        <ele>844.20001220703</ele>
        <time>2011-11-13T10:08:50Z</time>
      </trkpt>
      <trkpt lat="45.51155" lon="5.89114">
        <ele>844.20001220703</ele>
        <time>2011-11-13T10:08:51Z</time>
      </trkpt>
      <trkpt lat="45.51153" lon="5.8911">
        <ele>844.20001220703</ele>
        <time>2011-11-13T10:08:56Z</time>
      </trkpt>
      <trkpt lat="45.51153" lon="5.89109">
        <ele>844.20001220703</ele>
        <time>2011-11-13T10:08:57Z</time>
      </trkpt>
      <trkpt lat="45.51151" lon="5.89103">
        <ele>844.20001220703</ele>
        <time>2011-11-13T10:09:03Z</time>
      </trkpt>
      <trkpt lat="45.51149" lon="5.89097">
        <ele>844.20001220703</ele>
        <time>2011-11-13T10:09:12Z</time>
      </trkpt>
      <trkpt lat="45.51146" lon="5.89092">
        <ele>844.20001220703</ele>
        <time>2011-11-13T10:09:17Z</time>
      </trkpt>
      <trkpt lat="45.51142" lon="5.89088">
        <ele>845</ele>
        <time>2011-11-13T10:09:21Z</time>
      </trkpt>
      <trkpt lat="45.51141" lon="5.89087">
        <ele>845.40002441406</ele>
        <time>2011-11-13T10:09:23Z</time>
      </trkpt>
      <trkpt lat="45.51138" lon="5.89087">
        <ele>845.79998779297</ele>
        <time>2011-11-13T10:09:31Z</time>
      </trkpt>
      <trkpt lat="45.51134" lon="5.89086">
        <ele>846.79998779297</ele>
        <time>2011-11-13T10:09:36Z</time>
      </trkpt>
      <trkpt lat="45.51126" lon="5.89085">
        <ele>847.59997558594</ele>
        <time>2011-11-13T10:09:43Z</time>
      </trkpt>
      <trkpt lat="45.51121" lon="5.89092">
        <ele>849.20001220703</ele>
        <time>2011-11-13T10:09:55Z</time>
      </trkpt>
      <trkpt lat="45.51112" lon="5.89089">
        <ele>849.79998779297</ele>
        <time>2011-11-13T10:10:02Z</time>
      </trkpt>
      <trkpt lat="45.51104" lon="5.89088">
        <ele>850.20001220703</ele>
        <time>2011-11-13T10:10:09Z</time>
      </trkpt>
      <trkpt lat="45.51094" lon="5.89086">
        <ele>850.40002441406</ele>
        <time>2011-11-13T10:10:16Z</time>
      </trkpt>
      <trkpt lat="45.51089" lon="5.89085">
        <ele>850.79998779297</ele>
        <time>2011-11-13T10:10:20Z</time>
      </trkpt>
      <trkpt lat="45.51087" lon="5.89093">
        <ele>851.59997558594</ele>
        <time>2011-11-13T10:10:25Z</time>
      </trkpt>
      <trkpt lat="45.51086" lon="5.89101">
        <ele>852.20001220703</ele>
        <time>2011-11-13T10:10:30Z</time>
      </trkpt>
      <trkpt lat="45.51087" lon="5.89102">
        <ele>852.40002441406</ele>
        <time>2011-11-13T10:10:31Z</time>
      </trkpt>
      <trkpt lat="45.51086" lon="5.89106">
        <ele>853.20001220703</ele>
        <time>2011-11-13T10:10:35Z</time>
      </trkpt>
      <trkpt lat="45.51082" lon="5.89108">
        <ele>854</ele>
        <time>2011-11-13T10:10:40Z</time>
      </trkpt>
      <trkpt lat="45.51081" lon="5.89107">
        <ele>855.20001220703</ele>
        <time>2011-11-13T10:10:45Z</time>
      </trkpt>
      <trkpt lat="45.51078" lon="5.89104">
        <ele>856.59997558594</ele>
        <time>2011-11-13T10:10:50Z</time>
      </trkpt>
      <trkpt lat="45.51078" lon="5.89103">
        <ele>857</ele>
        <time>2011-11-13T10:10:52Z</time>
      </trkpt>
      <trkpt lat="45.51077" lon="5.89097">
        <ele>859.79998779297</ele>
        <time>2011-11-13T10:11:00Z</time>
      </trkpt>
      <trkpt lat="45.51077" lon="5.89091">
        <ele>862.59997558594</ele>
        <time>2011-11-13T10:11:08Z</time>
      </trkpt>
      <trkpt lat="45.51075" lon="5.89083">
        <ele>864.79998779297</ele>
        <time>2011-11-13T10:11:13Z</time>
      </trkpt>
      <trkpt lat="45.51075" lon="5.89079">
        <ele>866.59997558594</ele>
        <time>2011-11-13T10:11:17Z</time>
      </trkpt>
      <trkpt lat="45.51071" lon="5.89076">
        <ele>869.40002441406</ele>
        <time>2011-11-13T10:11:26Z</time>
      </trkpt>
      <trkpt lat="45.51067" lon="5.89075">
        <ele>872</ele>
        <time>2011-11-13T10:11:33Z</time>
      </trkpt>
      <trkpt lat="45.51063" lon="5.89075">
        <ele>873.79998779297</ele>
        <time>2011-11-13T10:11:39Z</time>
      </trkpt>
      <trkpt lat="45.5106" lon="5.89077">
        <ele>874.79998779297</ele>
        <time>2011-11-13T10:11:45Z</time>
      </trkpt>
      <trkpt lat="45.51057" lon="5.89081">
        <ele>876.40002441406</ele>
        <time>2011-11-13T10:11:51Z</time>
      </trkpt>
      <trkpt lat="45.51055" lon="5.8908">
        <ele>877.40002441406</ele>
        <time>2011-11-13T10:11:57Z</time>
      </trkpt>
      <trkpt lat="45.51052" lon="5.89081">
        <ele>878</ele>
        <time>2011-11-13T10:12:03Z</time>
      </trkpt>
      <trkpt lat="45.51048" lon="5.89085">
        <ele>879.20001220703</ele>
        <time>2011-11-13T10:12:10Z</time>
      </trkpt>
      <trkpt lat="45.51046" lon="5.89087">
        <ele>879.59997558594</ele>
        <time>2011-11-13T10:12:13Z</time>
      </trkpt>
      <trkpt lat="45.51044" lon="5.89087">
        <ele>879.59997558594</ele>
        <time>2011-11-13T10:12:15Z</time>
      </trkpt>
      <trkpt lat="45.51038" lon="5.89089">
        <ele>881.20001220703</ele>
        <time>2011-11-13T10:12:21Z</time>
      </trkpt>
      <trkpt lat="45.51029" lon="5.89091">
        <ele>882.40002441406</ele>
        <time>2011-11-13T10:12:30Z</time>
      </trkpt>
      <trkpt lat="45.5102" lon="5.8909">
        <ele>883.79998779297</ele>
        <time>2011-11-13T10:12:38Z</time>
      </trkpt>
      <trkpt lat="45.51018" lon="5.8909">
        <ele>884.20001220703</ele>
        <time>2011-11-13T10:12:38Z</time>
      </trkpt>
      <trkpt lat="45.51013" lon="5.89092">
        <ele>885.20001220703</ele>
        <time>2011-11-13T10:12:43Z</time>
      </trkpt>
      <trkpt lat="45.51011" lon="5.89093">
        <ele>886</ele>
        <time>2011-11-13T10:12:45Z</time>
      </trkpt>
      <trkpt lat="45.51009" lon="5.89093">
        <ele>886.79998779297</ele>
        <time>2011-11-13T10:12:48Z</time>
      </trkpt>
      <trkpt lat="45.51001" lon="5.89097">
        <ele>888.20001220703</ele>
        <time>2011-11-13T10:12:56Z</time>
      </trkpt>
      <trkpt lat="45.50995" lon="5.89099">
        <ele>889.59997558594</ele>
        <time>2011-11-13T10:13:01Z</time>
      </trkpt>
      <trkpt lat="45.50994" lon="5.89099">
        <ele>889.59997558594</ele>
        <time>2011-11-13T10:13:03Z</time>
      </trkpt>
      <trkpt lat="45.5099" lon="5.89102">
        <ele>890.59997558594</ele>
        <time>2011-11-13T10:13:07Z</time>
      </trkpt>
      <trkpt lat="45.50985" lon="5.89105">
        <ele>891.59997558594</ele>
        <time>2011-11-13T10:13:12Z</time>
      </trkpt>
      <trkpt lat="45.5098" lon="5.89112">
        <ele>892.40002441406</ele>
        <time>2011-11-13T10:13:17Z</time>
      </trkpt>
      <trkpt lat="45.50979" lon="5.89115">
        <ele>892.79998779297</ele>
        <time>2011-11-13T10:13:20Z</time>
      </trkpt>
      <trkpt lat="45.50975" lon="5.89123">
        <ele>894</ele>
        <time>2011-11-13T10:13:26Z</time>
      </trkpt>
      <trkpt lat="45.50972" lon="5.89127">
        <ele>894.40002441406</ele>
        <time>2011-11-13T10:13:28Z</time>
      </trkpt>
      <trkpt lat="45.50971" lon="5.89129">
        <ele>894.40002441406</ele>
        <time>2011-11-13T10:13:30Z</time>
      </trkpt>
      <trkpt lat="45.5097" lon="5.89139">
        <ele>894.79998779297</ele>
        <time>2011-11-13T10:13:37Z</time>
      </trkpt>
      <trkpt lat="45.5097" lon="5.89147">
        <ele>895</ele>
        <time>2011-11-13T10:13:42Z</time>
      </trkpt>
      <trkpt lat="45.50972" lon="5.89154">
        <ele>895</ele>
        <time>2011-11-13T10:13:45Z</time>
      </trkpt>
      <trkpt lat="45.50974" lon="5.89163">
        <ele>895.20001220703</ele>
        <time>2011-11-13T10:13:51Z</time>
      </trkpt>
      <trkpt lat="45.50976" lon="5.8917">
        <ele>895.20001220703</ele>
        <time>2011-11-13T10:13:56Z</time>
      </trkpt>
      <trkpt lat="45.50979" lon="5.89177">
        <ele>895.79998779297</ele>
        <time>2011-11-13T10:14:02Z</time>
      </trkpt>
      <trkpt lat="45.5098" lon="5.89183">
        <ele>896.40002441406</ele>
        <time>2011-11-13T10:14:06Z</time>
      </trkpt>
      <trkpt lat="45.50982" lon="5.89192">
        <ele>896.79998779297</ele>
        <time>2011-11-13T10:14:12Z</time>
      </trkpt>
      <trkpt lat="45.50982" lon="5.89201">
        <ele>897</ele>
        <time>2011-11-13T10:14:15Z</time>
      </trkpt>
      <trkpt lat="45.50982" lon="5.89206">
        <ele>897.59997558594</ele>
        <time>2011-11-13T10:14:18Z</time>
      </trkpt>
      <trkpt lat="45.50983" lon="5.89211">
        <ele>898</ele>
        <time>2011-11-13T10:14:21Z</time>
      </trkpt>
      <trkpt lat="45.50984" lon="5.89224">
        <ele>898.59997558594</ele>
        <time>2011-11-13T10:14:27Z</time>
      </trkpt>
      <trkpt lat="45.50984" lon="5.8923">
        <ele>898.79998779297</ele>
        <time>2011-11-13T10:14:28Z</time>
      </trkpt>
      <trkpt lat="45.50983" lon="5.89235">
        <ele>899</ele>
        <time>2011-11-13T10:14:31Z</time>
      </trkpt>
      <trkpt lat="45.50984" lon="5.8924">
        <ele>899.59997558594</ele>
        <time>2011-11-13T10:14:33Z</time>
      </trkpt>
      <trkpt lat="45.50986" lon="5.89252">
        <ele>900.40002441406</ele>
        <time>2011-11-13T10:14:38Z</time>
      </trkpt>
      <trkpt lat="45.50989" lon="5.89263">
        <ele>901</ele>
        <time>2011-11-13T10:14:42Z</time>
      </trkpt>
      <trkpt lat="45.50991" lon="5.89266">
        <ele>901.20001220703</ele>
        <time>2011-11-13T10:14:43Z</time>
      </trkpt>
      <trkpt lat="45.50992" lon="5.89272">
        <ele>901.79998779297</ele>
        <time>2011-11-13T10:14:45Z</time>
      </trkpt>
      <trkpt lat="45.50993" lon="5.89283">
        <ele>902.40002441406</ele>
        <time>2011-11-13T10:14:48Z</time>
      </trkpt>
      <trkpt lat="45.50998" lon="5.89298">
        <ele>902.79998779297</ele>
        <time>2011-11-13T10:14:53Z</time>
      </trkpt>
      <trkpt lat="45.51002" lon="5.89312">
        <ele>903.79998779297</ele>
        <time>2011-11-13T10:14:57Z</time>
      </trkpt>
      <trkpt lat="45.51003" lon="5.89326">
        <ele>904.40002441406</ele>
        <time>2011-11-13T10:15:02Z</time>
      </trkpt>
      <trkpt lat="45.51004" lon="5.89342">
        <ele>905</ele>
        <time>2011-11-13T10:15:06Z</time>
      </trkpt>
      <trkpt lat="45.51002" lon="5.89358">
        <ele>905.20001220703</ele>
        <time>2011-11-13T10:15:10Z</time>
      </trkpt>
      <trkpt lat="45.50998" lon="5.89374">
        <ele>905.40002441406</ele>
        <time>2011-11-13T10:15:13Z</time>
      </trkpt>
      <trkpt lat="45.50993" lon="5.89383">
        <ele>905</ele>
        <time>2011-11-13T10:15:17Z</time>
      </trkpt>
      <trkpt lat="45.50992" lon="5.89387">
        <ele>905</ele>
        <time>2011-11-13T10:15:18Z</time>
      </trkpt>
      <trkpt lat="45.5099" lon="5.89388">
        <ele>904.79998779297</ele>
        <time>2011-11-13T10:15:18Z</time>
      </trkpt>
      <trkpt lat="45.50991" lon="5.89394">
        <ele>904.59997558594</ele>
        <time>2011-11-13T10:15:21Z</time>
      </trkpt>
      <trkpt lat="45.50991" lon="5.89396">
        <ele>904.59997558594</ele>
        <time>2011-11-13T10:15:21Z</time>
      </trkpt>
      <trkpt lat="45.50991" lon="5.89397">
        <ele>904.40002441406</ele>
        <time>2011-11-13T10:15:23Z</time>
      </trkpt>
      <trkpt lat="45.50993" lon="5.89402">
        <ele>904.20001220703</ele>
        <time>2011-11-13T10:15:26Z</time>
      </trkpt>
      <trkpt lat="45.50993" lon="5.89405">
        <ele>904.20001220703</ele>
        <time>2011-11-13T10:15:27Z</time>
      </trkpt>
      <trkpt lat="45.50994" lon="5.89407">
        <ele>904</ele>
        <time>2011-11-13T10:15:30Z</time>
      </trkpt>
      <trkpt lat="45.50999" lon="5.89414">
        <ele>903.79998779297</ele>
        <time>2011-11-13T10:15:35Z</time>
      </trkpt>
      <trkpt lat="45.51" lon="5.89415">
        <ele>903.79998779297</ele>
        <time>2011-11-13T10:15:36Z</time>
      </trkpt>
      <trkpt lat="45.51002" lon="5.89415">
        <ele>903.79998779297</ele>
        <time>2011-11-13T10:15:37Z</time>
      </trkpt>
      <trkpt lat="45.51006" lon="5.89417">
        <ele>903.79998779297</ele>
        <time>2011-11-13T10:15:38Z</time>
      </trkpt>
      <trkpt lat="45.51024" lon="5.89426">
        <ele>904.40002441406</ele>
        <time>2011-11-13T10:15:45Z</time>
      </trkpt>
      <trkpt lat="45.51027" lon="5.89427">
        <ele>904.59997558594</ele>
        <time>2011-11-13T10:15:45Z</time>
      </trkpt>
      <trkpt lat="45.51036" lon="5.89431">
        <ele>905</ele>
        <time>2011-11-13T10:15:48Z</time>
      </trkpt>
      <trkpt lat="45.51046" lon="5.89435">
        <ele>905.79998779297</ele>
        <time>2011-11-13T10:15:51Z</time>
      </trkpt>
      <trkpt lat="45.51054" lon="5.89441">
        <ele>906.59997558594</ele>
        <time>2011-11-13T10:15:56Z</time>
      </trkpt>
      <trkpt lat="45.51064" lon="5.89446">
        <ele>907.79998779297</ele>
        <time>2011-11-13T10:16:01Z</time>
      </trkpt>
      <trkpt lat="45.51065" lon="5.89447">
        <ele>908</ele>
        <time>2011-11-13T10:16:02Z</time>
      </trkpt>
      <trkpt lat="45.51076" lon="5.89452">
        <ele>908.79998779297</ele>
        <time>2011-11-13T10:16:07Z</time>
      </trkpt>
      <trkpt lat="45.51082" lon="5.89456">
        <ele>909.20001220703</ele>
        <time>2011-11-13T10:16:09Z</time>
      </trkpt>
      <trkpt lat="45.51096" lon="5.89468">
        <ele>909.59997558594</ele>
        <time>2011-11-13T10:16:15Z</time>
      </trkpt>
      <trkpt lat="45.51099" lon="5.89473">
        <ele>909.59997558594</ele>
        <time>2011-11-13T10:16:18Z</time>
      </trkpt>
      <trkpt lat="45.51102" lon="5.8948">
        <ele>909.79998779297</ele>
        <time>2011-11-13T10:16:20Z</time>
      </trkpt>
      <trkpt lat="45.5111" lon="5.89495">
        <ele>909.20001220703</ele>
        <time>2011-11-13T10:16:23Z</time>
      </trkpt>
      <trkpt lat="45.51112" lon="5.89504">
        <ele>908.79998779297</ele>
        <time>2011-11-13T10:16:26Z</time>
      </trkpt>
      <trkpt lat="45.51107" lon="5.89515">
        <ele>907.79998779297</ele>
        <time>2011-11-13T10:16:30Z</time>
      </trkpt>
      <trkpt lat="45.51107" lon="5.89524">
        <ele>907</ele>
        <time>2011-11-13T10:16:33Z</time>
      </trkpt>
      <trkpt lat="45.51109" lon="5.89525">
        <ele>906.79998779297</ele>
        <time>2011-11-13T10:16:35Z</time>
      </trkpt>
      <trkpt lat="45.51113" lon="5.89524">
        <ele>906.59997558594</ele>
        <time>2011-11-13T10:16:37Z</time>
      </trkpt>
      <trkpt lat="45.51115" lon="5.89523">
        <ele>906.40002441406</ele>
        <time>2011-11-13T10:16:38Z</time>
      </trkpt>
      <trkpt lat="45.51124" lon="5.89521">
        <ele>906.20001220703</ele>
        <time>2011-11-13T10:16:41Z</time>
      </trkpt>
      <trkpt lat="45.51136" lon="5.89517">
        <ele>905.79998779297</ele>
        <time>2011-11-13T10:16:45Z</time>
      </trkpt>
      <trkpt lat="45.51149" lon="5.89515">
        <ele>905.59997558594</ele>
        <time>2011-11-13T10:16:50Z</time>
      </trkpt>
      <trkpt lat="45.51151" lon="5.89515">
        <ele>905.59997558594</ele>
        <time>2011-11-13T10:16:52Z</time>
      </trkpt>
      <trkpt lat="45.51154" lon="5.89515">
        <ele>905.59997558594</ele>
        <time>2011-11-13T10:16:54Z</time>
      </trkpt>
      <trkpt lat="45.5116" lon="5.89516">
        <ele>905.59997558594</ele>
        <time>2011-11-13T10:17:00Z</time>
      </trkpt>
      <trkpt lat="45.51162" lon="5.89516">
        <ele>905.59997558594</ele>
        <time>2011-11-13T10:17:01Z</time>
      </trkpt>
      <trkpt lat="45.51167" lon="5.89517">
        <ele>905.59997558594</ele>
        <time>2011-11-13T10:17:05Z</time>
      </trkpt>
      <trkpt lat="45.51171" lon="5.89516">
        <ele>905.40002441406</ele>
        <time>2011-11-13T10:17:11Z</time>
      </trkpt>
      <trkpt lat="45.51176" lon="5.89521">
        <ele>905.40002441406</ele>
        <time>2011-11-13T10:17:15Z</time>
      </trkpt>
      <trkpt lat="45.51183" lon="5.89527">
        <ele>905.40002441406</ele>
        <time>2011-11-13T10:17:20Z</time>
      </trkpt>
      <trkpt lat="45.51186" lon="5.89529">
        <ele>905.40002441406</ele>
        <time>2011-11-13T10:17:21Z</time>
      </trkpt>
      <trkpt lat="45.51197" lon="5.89534">
        <ele>905.40002441406</ele>
        <time>2011-11-13T10:17:27Z</time>
      </trkpt>
      <trkpt lat="45.51205" lon="5.89539">
        <ele>905.40002441406</ele>
        <time>2011-11-13T10:17:31Z</time>
      </trkpt>
      <trkpt lat="45.51216" lon="5.89544">
        <ele>905.40002441406</ele>
        <time>2011-11-13T10:17:36Z</time>
      </trkpt>
      <trkpt lat="45.51223" lon="5.89548">
        <ele>905.40002441406</ele>
        <time>2011-11-13T10:17:39Z</time>
      </trkpt>
      <trkpt lat="45.51226" lon="5.89549">
        <ele>905.40002441406</ele>
        <time>2011-11-13T10:17:41Z</time>
      </trkpt>
      <trkpt lat="45.51236" lon="5.89553">
        <ele>904.79998779297</ele>
        <time>2011-11-13T10:17:45Z</time>
      </trkpt>
      <trkpt lat="45.51244" lon="5.89558">
        <ele>904.40002441406</ele>
        <time>2011-11-13T10:17:50Z</time>
      </trkpt>
      <trkpt lat="45.51247" lon="5.89559">
        <ele>904.20001220703</ele>
        <time>2011-11-13T10:17:51Z</time>
      </trkpt>
      <trkpt lat="45.51262" lon="5.89574">
        <ele>903</ele>
        <time>2011-11-13T10:17:57Z</time>
      </trkpt>
      <trkpt lat="45.5127" lon="5.89581">
        <ele>902.20001220703</ele>
        <time>2011-11-13T10:18:00Z</time>
      </trkpt>
      <trkpt lat="45.51279" lon="5.89596">
        <ele>901</ele>
        <time>2011-11-13T10:18:05Z</time>
      </trkpt>
      <trkpt lat="45.51286" lon="5.8961">
        <ele>899.59997558594</ele>
        <time>2011-11-13T10:18:08Z</time>
      </trkpt>
      <trkpt lat="45.51287" lon="5.89624">
        <ele>898.40002441406</ele>
        <time>2011-11-13T10:18:13Z</time>
      </trkpt>
      <trkpt lat="45.51287" lon="5.89633">
        <ele>897.59997558594</ele>
        <time>2011-11-13T10:18:15Z</time>
      </trkpt>
      <trkpt lat="45.51287" lon="5.89653">
        <ele>896.20001220703</ele>
        <time>2011-11-13T10:18:21Z</time>
      </trkpt>
      <trkpt lat="45.51287" lon="5.89657">
        <ele>895.79998779297</ele>
        <time>2011-11-13T10:18:21Z</time>
      </trkpt>
      <trkpt lat="45.51287" lon="5.8967">
        <ele>894.79998779297</ele>
        <time>2011-11-13T10:18:26Z</time>
      </trkpt>
      <trkpt lat="45.51284" lon="5.89683">
        <ele>894.40002441406</ele>
        <time>2011-11-13T10:18:28Z</time>
      </trkpt>
      <trkpt lat="45.51285" lon="5.89698">
        <ele>893.40002441406</ele>
        <time>2011-11-13T10:18:33Z</time>
      </trkpt>
      <trkpt lat="45.51283" lon="5.8971">
        <ele>892.59997558594</ele>
        <time>2011-11-13T10:18:37Z</time>
      </trkpt>
      <trkpt lat="45.51282" lon="5.89714">
        <ele>892.40002441406</ele>
        <time>2011-11-13T10:18:38Z</time>
      </trkpt>
      <trkpt lat="45.51279" lon="5.89721">
        <ele>892.20001220703</ele>
        <time>2011-11-13T10:18:40Z</time>
      </trkpt>
      <trkpt lat="45.51276" lon="5.89738">
        <ele>890.79998779297</ele>
        <time>2011-11-13T10:18:45Z</time>
      </trkpt>
      <trkpt lat="45.51274" lon="5.89752">
        <ele>890</ele>
        <time>2011-11-13T10:18:48Z</time>
      </trkpt>
      <trkpt lat="45.51274" lon="5.89757">
        <ele>889.59997558594</ele>
        <time>2011-11-13T10:18:48Z</time>
      </trkpt>
      <trkpt lat="45.51269" lon="5.89772">
        <ele>888.79998779297</ele>
        <time>2011-11-13T10:18:52Z</time>
      </trkpt>
      <trkpt lat="45.51269" lon="5.89773">
        <ele>888.59997558594</ele>
        <time>2011-11-13T10:18:52Z</time>
      </trkpt>
      <trkpt lat="45.51267" lon="5.89781">
        <ele>887.79998779297</ele>
        <time>2011-11-13T10:18:55Z</time>
      </trkpt>
      <trkpt lat="45.51262" lon="5.89798">
        <ele>886.40002441406</ele>
        <time>2011-11-13T10:18:59Z</time>
      </trkpt>
      <trkpt lat="45.51261" lon="5.89803">
        <ele>886</ele>
        <time>2011-11-13T10:19:01Z</time>
      </trkpt>
      <trkpt lat="45.51261" lon="5.89819">
        <ele>884.59997558594</ele>
        <time>2011-11-13T10:19:05Z</time>
      </trkpt>
      <trkpt lat="45.51258" lon="5.89839">
        <ele>883</ele>
        <time>2011-11-13T10:19:08Z</time>
      </trkpt>
      <trkpt lat="45.51257" lon="5.89859">
        <ele>881.20001220703</ele>
        <time>2011-11-13T10:19:14Z</time>
      </trkpt>
      <trkpt lat="45.51255" lon="5.89873">
        <ele>879.59997558594</ele>
        <time>2011-11-13T10:19:18Z</time>
      </trkpt>
      <trkpt lat="45.51255" lon="5.89891">
        <ele>877.40002441406</ele>
        <time>2011-11-13T10:19:23Z</time>
      </trkpt>
      <trkpt lat="45.51257" lon="5.89894">
        <ele>877.20001220703</ele>
        <time>2011-11-13T10:19:24Z</time>
      </trkpt>
      <trkpt lat="45.51257" lon="5.89897">
        <ele>876.79998779297</ele>
        <time>2011-11-13T10:19:25Z</time>
      </trkpt>
      <trkpt lat="45.51262" lon="5.89909">
        <ele>875.40002441406</ele>
        <time>2011-11-13T10:19:29Z</time>
      </trkpt>
      <trkpt lat="45.51272" lon="5.89925">
        <ele>873.59997558594</ele>
        <time>2011-11-13T10:19:33Z</time>
      </trkpt>
      <trkpt lat="45.51274" lon="5.89926">
        <ele>873.20001220703</ele>
        <time>2011-11-13T10:19:35Z</time>
      </trkpt>
      <trkpt lat="45.51282" lon="5.89933">
        <ele>871.40002441406</ele>
        <time>2011-11-13T10:19:40Z</time>
      </trkpt>
      <trkpt lat="45.51286" lon="5.89939">
        <ele>870.59997558594</ele>
        <time>2011-11-13T10:19:42Z</time>
      </trkpt>
      <trkpt lat="45.51295" lon="5.89954">
        <ele>869.20001220703</ele>
        <time>2011-11-13T10:19:47Z</time>
      </trkpt>
      <trkpt lat="45.51299" lon="5.8996">
        <ele>868.59997558594</ele>
        <time>2011-11-13T10:19:49Z</time>
      </trkpt>
      <trkpt lat="45.5131" lon="5.89973">
        <ele>867.20001220703</ele>
        <time>2011-11-13T10:19:54Z</time>
      </trkpt>
      <trkpt lat="45.51323" lon="5.89985">
        <ele>866.40002441406</ele>
        <time>2011-11-13T10:19:58Z</time>
      </trkpt>
      <trkpt lat="45.51328" lon="5.89992">
        <ele>865.40002441406</ele>
        <time>2011-11-13T10:20:02Z</time>
      </trkpt>
      <trkpt lat="45.51339" lon="5.90002">
        <ele>864.20001220703</ele>
        <time>2011-11-13T10:20:07Z</time>
      </trkpt>
      <trkpt lat="45.51353" lon="5.90007">
        <ele>863</ele>
        <time>2011-11-13T10:20:11Z</time>
      </trkpt>
      <trkpt lat="45.51355" lon="5.90007">
        <ele>862.79998779297</ele>
        <time>2011-11-13T10:20:12Z</time>
      </trkpt>
      <trkpt lat="45.51368" lon="5.9001">
        <ele>861.40002441406</ele>
        <time>2011-11-13T10:20:17Z</time>
      </trkpt>
      <trkpt lat="45.51379" lon="5.90014">
        <ele>860.40002441406</ele>
        <time>2011-11-13T10:20:22Z</time>
      </trkpt>
      <trkpt lat="45.51387" lon="5.90019">
        <ele>859.59997558594</ele>
        <time>2011-11-13T10:20:25Z</time>
      </trkpt>
      <trkpt lat="45.51397" lon="5.90022">
        <ele>858.59997558594</ele>
        <time>2011-11-13T10:20:29Z</time>
      </trkpt>
      <trkpt lat="45.51413" lon="5.90029">
        <ele>856.59997558594</ele>
        <time>2011-11-13T10:20:35Z</time>
      </trkpt>
      <trkpt lat="45.51428" lon="5.90034">
        <ele>855</ele>
        <time>2011-11-13T10:20:40Z</time>
      </trkpt>
      <trkpt lat="45.51442" lon="5.90039">
        <ele>853.40002441406</ele>
        <time>2011-11-13T10:20:45Z</time>
      </trkpt>
      <trkpt lat="45.51456" lon="5.90047">
        <ele>852.20001220703</ele>
        <time>2011-11-13T10:20:50Z</time>
      </trkpt>
      <trkpt lat="45.51465" lon="5.90052">
        <ele>850.79998779297</ele>
        <time>2011-11-13T10:20:53Z</time>
      </trkpt>
      <trkpt lat="45.51474" lon="5.90057">
        <ele>850.20001220703</ele>
        <time>2011-11-13T10:20:57Z</time>
      </trkpt>
      <trkpt lat="45.51484" lon="5.90062">
        <ele>849</ele>
        <time>2011-11-13T10:21:00Z</time>
      </trkpt>
      <trkpt lat="45.515" lon="5.90069">
        <ele>847.40002441406</ele>
        <time>2011-11-13T10:21:07Z</time>
      </trkpt>
      <trkpt lat="45.51517" lon="5.90077">
        <ele>846</ele>
        <time>2011-11-13T10:21:13Z</time>
      </trkpt>
      <trkpt lat="45.51527" lon="5.90086">
        <ele>844.79998779297</ele>
        <time>2011-11-13T10:21:17Z</time>
      </trkpt>
      <trkpt lat="45.51529" lon="5.90089">
        <ele>844.40002441406</ele>
        <time>2011-11-13T10:21:18Z</time>
      </trkpt>
      <trkpt lat="45.51532" lon="5.90115">
        <ele>842.79998779297</ele>
        <time>2011-11-13T10:21:23Z</time>
      </trkpt>
      <trkpt lat="45.51539" lon="5.90142">
        <ele>841.40002441406</ele>
        <time>2011-11-13T10:21:30Z</time>
      </trkpt>
      <trkpt lat="45.51548" lon="5.9016">
        <ele>839.79998779297</ele>
        <time>2011-11-13T10:21:35Z</time>
      </trkpt>
      <trkpt lat="45.51554" lon="5.90171">
        <ele>839.40002441406</ele>
        <time>2011-11-13T10:21:38Z</time>
      </trkpt>
      <trkpt lat="45.51549" lon="5.90183">
        <ele>838</ele>
        <time>2011-11-13T10:21:43Z</time>
      </trkpt>
      <trkpt lat="45.51545" lon="5.90188">
        <ele>837.20001220703</ele>
        <time>2011-11-13T10:21:47Z</time>
      </trkpt>
      <trkpt lat="45.51535" lon="5.902">
        <ele>835.59997558594</ele>
        <time>2011-11-13T10:21:56Z</time>
      </trkpt>
      <trkpt lat="45.51529" lon="5.90207">
        <ele>834.79998779297</ele>
        <time>2011-11-13T10:22:01Z</time>
      </trkpt>
      <trkpt lat="45.51519" lon="5.90217">
        <ele>833.79998779297</ele>
        <time>2011-11-13T10:22:09Z</time>
      </trkpt>
      <trkpt lat="45.51509" lon="5.90226">
        <ele>832.59997558594</ele>
        <time>2011-11-13T10:22:16Z</time>
      </trkpt>
      <trkpt lat="45.51503" lon="5.90232">
        <ele>831.59997558594</ele>
        <time>2011-11-13T10:22:21Z</time>
      </trkpt>
      <trkpt lat="45.51496" lon="5.90241">
        <ele>830.59997558594</ele>
        <time>2011-11-13T10:22:27Z</time>
      </trkpt>
      <trkpt lat="45.51487" lon="5.90248">
        <ele>829.79998779297</ele>
        <time>2011-11-13T10:22:35Z</time>
      </trkpt>
      <trkpt lat="45.51477" lon="5.90251">
        <ele>829.40002441406</ele>
        <time>2011-11-13T10:22:43Z</time>
      </trkpt>
      <trkpt lat="45.51469" lon="5.9025">
        <ele>829.40002441406</ele>
        <time>2011-11-13T10:22:50Z</time>
      </trkpt>
      <trkpt lat="45.51458" lon="5.90249">
        <ele>829.40002441406</ele>
        <time>2011-11-13T10:22:57Z</time>
      </trkpt>
      <trkpt lat="45.5145" lon="5.9025">
        <ele>829.20001220703</ele>
        <time>2011-11-13T10:23:05Z</time>
      </trkpt>
      <trkpt lat="45.51448" lon="5.9025">
        <ele>829.20001220703</ele>
        <time>2011-11-13T10:23:06Z</time>
      </trkpt>
      <trkpt lat="45.51444" lon="5.90252">
        <ele>829.20001220703</ele>
        <time>2011-11-13T10:23:10Z</time>
      </trkpt>
      <trkpt lat="45.5144" lon="5.90255">
        <ele>829.20001220703</ele>
        <time>2011-11-13T10:23:14Z</time>
      </trkpt>
      <trkpt lat="45.51436" lon="5.90265">
        <ele>830.20001220703</ele>
        <time>2011-11-13T10:23:20Z</time>
      </trkpt>
      <trkpt lat="45.51436" lon="5.9028">
        <ele>830.79998779297</ele>
        <time>2011-11-13T10:23:25Z</time>
      </trkpt>
      <trkpt lat="45.51437" lon="5.90285">
        <ele>831.40002441406</ele>
        <time>2011-11-13T10:23:27Z</time>
      </trkpt>
      <trkpt lat="45.51439" lon="5.90297">
        <ele>832.20001220703</ele>
        <time>2011-11-13T10:23:32Z</time>
      </trkpt>
      <trkpt lat="45.5144" lon="5.90307">
        <ele>833.40002441406</ele>
        <time>2011-11-13T10:23:36Z</time>
      </trkpt>
      <trkpt lat="45.51442" lon="5.90311">
        <ele>833.79998779297</ele>
        <time>2011-11-13T10:23:38Z</time>
      </trkpt>
      <trkpt lat="45.51443" lon="5.90315">
        <ele>834.20001220703</ele>
        <time>2011-11-13T10:23:40Z</time>
      </trkpt>
      <trkpt lat="45.51449" lon="5.90325">
        <ele>835.79998779297</ele>
        <time>2011-11-13T10:23:46Z</time>
      </trkpt>
      <trkpt lat="45.51454" lon="5.90331">
        <ele>836.59997558594</ele>
        <time>2011-11-13T10:23:50Z</time>
      </trkpt>
      <trkpt lat="45.51455" lon="5.90331">
        <ele>837</ele>
        <time>2011-11-13T10:23:51Z</time>
      </trkpt>
      <trkpt lat="45.51459" lon="5.90335">
        <ele>838</ele>
        <time>2011-11-13T10:23:55Z</time>
      </trkpt>
      <trkpt lat="45.51474" lon="5.90345">
        <ele>840.40002441406</ele>
        <time>2011-11-13T10:24:06Z</time>
      </trkpt>
      <trkpt lat="45.51481" lon="5.90351">
        <ele>841.20001220703</ele>
        <time>2011-11-13T10:24:12Z</time>
      </trkpt>
      <trkpt lat="45.51482" lon="5.90352">
        <ele>841.59997558594</ele>
        <time>2011-11-13T10:24:13Z</time>
      </trkpt>
      <trkpt lat="45.51487" lon="5.90355">
        <ele>842.59997558594</ele>
        <time>2011-11-13T10:24:18Z</time>
      </trkpt>
      <trkpt lat="45.51495" lon="5.9036">
        <ele>843.20001220703</ele>
        <time>2011-11-13T10:24:23Z</time>
      </trkpt>
      <trkpt lat="45.51502" lon="5.90364">
        <ele>844.20001220703</ele>
        <time>2011-11-13T10:24:28Z</time>
      </trkpt>
      <trkpt lat="45.51514" lon="5.90379">
        <ele>845.20001220703</ele>
        <time>2011-11-13T10:24:35Z</time>
      </trkpt>
      <trkpt lat="45.51519" lon="5.90394">
        <ele>845.40002441406</ele>
        <time>2011-11-13T10:24:40Z</time>
      </trkpt>
      <trkpt lat="45.51519" lon="5.90396">
        <ele>845.59997558594</ele>
        <time>2011-11-13T10:24:41Z</time>
      </trkpt>
      <trkpt lat="45.51519" lon="5.90422">
        <ele>846.20001220703</ele>
        <time>2011-11-13T10:24:52Z</time>
      </trkpt>
      <trkpt lat="45.51516" lon="5.90435">
        <ele>847.20001220703</ele>
        <time>2011-11-13T10:25:01Z</time>
      </trkpt>
      <trkpt lat="45.51515" lon="5.90436">
        <ele>847.40002441406</ele>
        <time>2011-11-13T10:25:02Z</time>
      </trkpt>
      <trkpt lat="45.51506" lon="5.90436">
        <ele>847.59997558594</ele>
        <time>2011-11-13T10:25:09Z</time>
      </trkpt>
      <trkpt lat="45.51497" lon="5.90435">
        <ele>847.79998779297</ele>
        <time>2011-11-13T10:25:17Z</time>
      </trkpt>
      <trkpt lat="45.51489" lon="5.90434">
        <ele>848.59997558594</ele>
        <time>2011-11-13T10:25:25Z</time>
      </trkpt>
      <trkpt lat="45.51484" lon="5.90434">
        <ele>849.20001220703</ele>
        <time>2011-11-13T10:25:31Z</time>
      </trkpt>
      <trkpt lat="45.51483" lon="5.90433">
        <ele>849.40002441406</ele>
        <time>2011-11-13T10:25:32Z</time>
      </trkpt>
      <trkpt lat="45.51477" lon="5.90432">
        <ele>850</ele>
        <time>2011-11-13T10:25:38Z</time>
      </trkpt>
      <trkpt lat="45.51469" lon="5.90431">
        <ele>851.20001220703</ele>
        <time>2011-11-13T10:25:46Z</time>
      </trkpt>
      <trkpt lat="45.51467" lon="5.90431">
        <ele>851.20001220703</ele>
        <time>2011-11-13T10:25:47Z</time>
      </trkpt>
      <trkpt lat="45.51463" lon="5.90431">
        <ele>851.59997558594</ele>
        <time>2011-11-13T10:25:51Z</time>
      </trkpt>
      <trkpt lat="45.51459" lon="5.90432">
        <ele>852</ele>
        <time>2011-11-13T10:25:54Z</time>
      </trkpt>
      <trkpt lat="45.51452" lon="5.90435">
        <ele>853.20001220703</ele>
        <time>2011-11-13T10:26:01Z</time>
      </trkpt>
      <trkpt lat="45.51445" lon="5.90441">
        <ele>854.20001220703</ele>
        <time>2011-11-13T10:26:09Z</time>
      </trkpt>
      <trkpt lat="45.51443" lon="5.90441">
        <ele>854.40002441406</ele>
        <time>2011-11-13T10:26:10Z</time>
      </trkpt>
      <trkpt lat="45.51435" lon="5.90444">
        <ele>855.20001220703</ele>
        <time>2011-11-13T10:26:14Z</time>
      </trkpt>
      <trkpt lat="45.51429" lon="5.90444">
        <ele>855.59997558594</ele>
        <time>2011-11-13T10:26:18Z</time>
      </trkpt>
      <trkpt lat="45.51428" lon="5.90444">
        <ele>855.59997558594</ele>
        <time>2011-11-13T10:26:19Z</time>
      </trkpt>
      <trkpt lat="45.51416" lon="5.90437">
        <ele>857.40002441406</ele>
        <time>2011-11-13T10:26:28Z</time>
      </trkpt>
      <trkpt lat="45.51411" lon="5.90435">
        <ele>858.20001220703</ele>
        <time>2011-11-13T10:26:32Z</time>
      </trkpt>
      <trkpt lat="45.5141" lon="5.90436">
        <ele>858.40002441406</ele>
        <time>2011-11-13T10:26:32Z</time>
      </trkpt>
      <trkpt lat="45.51401" lon="5.90437">
        <ele>859.40002441406</ele>
        <time>2011-11-13T10:26:38Z</time>
      </trkpt>
      <trkpt lat="45.51399" lon="5.90437">
        <ele>859.40002441406</ele>
        <time>2011-11-13T10:26:39Z</time>
      </trkpt>
      <trkpt lat="45.5139" lon="5.9044">
        <ele>859.79998779297</ele>
        <time>2011-11-13T10:26:43Z</time>
      </trkpt>
      <trkpt lat="45.51381" lon="5.9044">
        <ele>860.59997558594</ele>
        <time>2011-11-13T10:26:47Z</time>
      </trkpt>
      <trkpt lat="45.51372" lon="5.90442">
        <ele>861.40002441406</ele>
        <time>2011-11-13T10:26:51Z</time>
      </trkpt>
      <trkpt lat="45.51357" lon="5.90442">
        <ele>862.79998779297</ele>
        <time>2011-11-13T10:27:00Z</time>
      </trkpt>
      <trkpt lat="45.51346" lon="5.90438">
        <ele>863.79998779297</ele>
        <time>2011-11-13T10:27:07Z</time>
      </trkpt>
      <trkpt lat="45.51339" lon="5.90438">
        <ele>865</ele>
        <time>2011-11-13T10:27:12Z</time>
      </trkpt>
      <trkpt lat="45.51329" lon="5.90439">
        <ele>866</ele>
        <time>2011-11-13T10:27:20Z</time>
      </trkpt>
      <trkpt lat="45.51328" lon="5.90439">
        <ele>866.20001220703</ele>
        <time>2011-11-13T10:27:22Z</time>
      </trkpt>
      <trkpt lat="45.51321" lon="5.90439">
        <ele>866.40002441406</ele>
        <time>2011-11-13T10:27:28Z</time>
      </trkpt>
      <trkpt lat="45.51319" lon="5.90438">
        <ele>867</ele>
        <time>2011-11-13T10:27:32Z</time>
      </trkpt>
      <trkpt lat="45.51315" lon="5.90437">
        <ele>867.59997558594</ele>
        <time>2011-11-13T10:27:36Z</time>
      </trkpt>
      <trkpt lat="45.51313" lon="5.90438">
        <ele>868</ele>
        <time>2011-11-13T10:27:39Z</time>
      </trkpt>
      <trkpt lat="45.51309" lon="5.90441">
        <ele>868.40002441406</ele>
        <time>2011-11-13T10:27:47Z</time>
      </trkpt>
      <trkpt lat="45.51307" lon="5.90442">
        <ele>869</ele>
        <time>2011-11-13T10:27:50Z</time>
      </trkpt>
      <trkpt lat="45.51292" lon="5.90447">
        <ele>869.79998779297</ele>
        <time>2011-11-13T10:27:55Z</time>
      </trkpt>
      <trkpt lat="45.51289" lon="5.90451">
        <ele>870</ele>
        <time>2011-11-13T10:27:57Z</time>
      </trkpt>
      <trkpt lat="45.51286" lon="5.90457">
        <ele>870.40002441406</ele>
        <time>2011-11-13T10:27:59Z</time>
      </trkpt>
      <trkpt lat="45.51283" lon="5.90463">
        <ele>871</ele>
        <time>2011-11-13T10:28:02Z</time>
      </trkpt>
      <trkpt lat="45.51275" lon="5.90469">
        <ele>872</ele>
        <time>2011-11-13T10:28:08Z</time>
      </trkpt>
      <trkpt lat="45.51274" lon="5.90469">
        <ele>872</ele>
        <time>2011-11-13T10:28:09Z</time>
      </trkpt>
      <trkpt lat="45.51272" lon="5.90469">
        <ele>872.20001220703</ele>
        <time>2011-11-13T10:28:11Z</time>
      </trkpt>
      <trkpt lat="45.51267" lon="5.9047">
        <ele>873.20001220703</ele>
        <time>2011-11-13T10:28:15Z</time>
      </trkpt>
      <trkpt lat="45.51263" lon="5.90473">
        <ele>873.79998779297</ele>
        <time>2011-11-13T10:28:19Z</time>
      </trkpt>
      <trkpt lat="45.51258" lon="5.90474">
        <ele>874.20001220703</ele>
        <time>2011-11-13T10:28:23Z</time>
      </trkpt>
      <trkpt lat="45.51256" lon="5.90475">
        <ele>874.59997558594</ele>
        <time>2011-11-13T10:28:26Z</time>
      </trkpt>
      <trkpt lat="45.5125" lon="5.90475">
        <ele>876.40002441406</ele>
        <time>2011-11-13T10:28:34Z</time>
      </trkpt>
      <trkpt lat="45.51245" lon="5.90475">
        <ele>877.40002441406</ele>
        <time>2011-11-13T10:28:38Z</time>
      </trkpt>
      <trkpt lat="45.51244" lon="5.90475">
        <ele>877.59997558594</ele>
        <time>2011-11-13T10:28:39Z</time>
      </trkpt>
      <trkpt lat="45.51238" lon="5.90474">
        <ele>878.59997558594</ele>
        <time>2011-11-13T10:28:44Z</time>
      </trkpt>
      <trkpt lat="45.51231" lon="5.90474">
        <ele>880.20001220703</ele>
        <time>2011-11-13T10:28:51Z</time>
      </trkpt>
      <trkpt lat="45.51229" lon="5.90475">
        <ele>880.59997558594</ele>
        <time>2011-11-13T10:28:52Z</time>
      </trkpt>
      <trkpt lat="45.51228" lon="5.90475">
        <ele>881.20001220703</ele>
        <time>2011-11-13T10:28:54Z</time>
      </trkpt>
      <trkpt lat="45.51221" lon="5.90479">
        <ele>882.20001220703</ele>
        <time>2011-11-13T10:28:59Z</time>
      </trkpt>
      <trkpt lat="45.51213" lon="5.90482">
        <ele>883.40002441406</ele>
        <time>2011-11-13T10:29:03Z</time>
      </trkpt>
      <trkpt lat="45.51212" lon="5.90483">
        <ele>883.59997558594</ele>
        <time>2011-11-13T10:29:04Z</time>
      </trkpt>
      <trkpt lat="45.51211" lon="5.90485">
        <ele>883.79998779297</ele>
        <time>2011-11-13T10:29:05Z</time>
      </trkpt>
      <trkpt lat="45.51202" lon="5.90488">
        <ele>885.59997558594</ele>
        <time>2011-11-13T10:29:12Z</time>
      </trkpt>
      <trkpt lat="45.512" lon="5.90488">
        <ele>885.79998779297</ele>
        <time>2011-11-13T10:29:13Z</time>
      </trkpt>
      <trkpt lat="45.51193" lon="5.90489">
        <ele>886.79998779297</ele>
        <time>2011-11-13T10:29:18Z</time>
      </trkpt>
      <trkpt lat="45.51187" lon="5.90489">
        <ele>887.79998779297</ele>
        <time>2011-11-13T10:29:22Z</time>
      </trkpt>
      <trkpt lat="45.51184" lon="5.90489">
        <ele>888.20001220703</ele>
        <time>2011-11-13T10:29:24Z</time>
      </trkpt>
      <trkpt lat="45.51181" lon="5.90488">
        <ele>888.59997558594</ele>
        <time>2011-11-13T10:29:27Z</time>
      </trkpt>
      <trkpt lat="45.51176" lon="5.90488">
        <ele>889.20001220703</ele>
        <time>2011-11-13T10:29:31Z</time>
      </trkpt>
      <trkpt lat="45.51173" lon="5.90488">
        <ele>889.59997558594</ele>
        <time>2011-11-13T10:29:33Z</time>
      </trkpt>
      <trkpt lat="45.51167" lon="5.90489">
        <ele>890.59997558594</ele>
        <time>2011-11-13T10:29:38Z</time>
      </trkpt>
      <trkpt lat="45.51165" lon="5.90491">
        <ele>891.59997558594</ele>
        <time>2011-11-13T10:29:42Z</time>
      </trkpt>
      <trkpt lat="45.51159" lon="5.90493">
        <ele>892.40002441406</ele>
        <time>2011-11-13T10:29:47Z</time>
      </trkpt>
      <trkpt lat="45.51157" lon="5.90494">
        <ele>893</ele>
        <time>2011-11-13T10:29:49Z</time>
      </trkpt>
      <trkpt lat="45.51148" lon="5.90496">
        <ele>894.59997558594</ele>
        <time>2011-11-13T10:29:57Z</time>
      </trkpt>
      <trkpt lat="45.51143" lon="5.90498">
        <ele>895.59997558594</ele>
        <time>2011-11-13T10:30:04Z</time>
      </trkpt>
      <trkpt lat="45.51143" lon="5.90499">
        <ele>895.79998779297</ele>
        <time>2011-11-13T10:30:05Z</time>
      </trkpt>
      <trkpt lat="45.51139" lon="5.90502">
        <ele>896.59997558594</ele>
        <time>2011-11-13T10:30:09Z</time>
      </trkpt>
      <trkpt lat="45.51138" lon="5.90504">
        <ele>897</ele>
        <time>2011-11-13T10:30:11Z</time>
      </trkpt>
      <trkpt lat="45.51133" lon="5.90507">
        <ele>898.40002441406</ele>
        <time>2011-11-13T10:30:18Z</time>
      </trkpt>
      <trkpt lat="45.5113" lon="5.9051">
        <ele>899.20001220703</ele>
        <time>2011-11-13T10:30:23Z</time>
      </trkpt>
      <trkpt lat="45.51126" lon="5.90511">
        <ele>900.40002441406</ele>
        <time>2011-11-13T10:30:28Z</time>
      </trkpt>
      <trkpt lat="45.51122" lon="5.90512">
        <ele>901.59997558594</ele>
        <time>2011-11-13T10:30:34Z</time>
      </trkpt>
      <trkpt lat="45.51117" lon="5.90513">
        <ele>902.79998779297</ele>
        <time>2011-11-13T10:30:40Z</time>
      </trkpt>
      <trkpt lat="45.51114" lon="5.90515">
        <ele>903.59997558594</ele>
        <time>2011-11-13T10:30:44Z</time>
      </trkpt>
      <trkpt lat="45.51112" lon="5.90514">
        <ele>904</ele>
        <time>2011-11-13T10:30:46Z</time>
      </trkpt>
      <trkpt lat="45.51109" lon="5.90515">
        <ele>905</ele>
        <time>2011-11-13T10:30:50Z</time>
      </trkpt>
      <trkpt lat="45.51107" lon="5.90517">
        <ele>906.20001220703</ele>
        <time>2011-11-13T10:30:55Z</time>
      </trkpt>
      <trkpt lat="45.51107" lon="5.90517">
        <ele>907</ele>
        <time>2011-11-13T10:30:59Z</time>
      </trkpt>
      <trkpt lat="45.51102" lon="5.90518">
        <ele>908.79998779297</ele>
        <time>2011-11-13T10:31:06Z</time>
      </trkpt>
      <trkpt lat="45.51096" lon="5.90519">
        <ele>910.79998779297</ele>
        <time>2011-11-13T10:31:14Z</time>
      </trkpt>
      <trkpt lat="45.51088" lon="5.90522">
        <ele>913.59997558594</ele>
        <time>2011-11-13T10:31:27Z</time>
      </trkpt>
      <trkpt lat="45.51085" lon="5.90525">
        <ele>914.59997558594</ele>
        <time>2011-11-13T10:31:33Z</time>
      </trkpt>
      <trkpt lat="45.51081" lon="5.90526">
        <ele>915.79998779297</ele>
        <time>2011-11-13T10:31:39Z</time>
      </trkpt>
      <trkpt lat="45.51079" lon="5.90527">
        <ele>916.59997558594</ele>
        <time>2011-11-13T10:31:43Z</time>
      </trkpt>
      <trkpt lat="45.51075" lon="5.90528">
        <ele>917.79998779297</ele>
        <time>2011-11-13T10:31:49Z</time>
      </trkpt>
      <trkpt lat="45.51072" lon="5.90532">
        <ele>918.40002441406</ele>
        <time>2011-11-13T10:31:54Z</time>
      </trkpt>
      <trkpt lat="45.5107" lon="5.90533">
        <ele>918.79998779297</ele>
        <time>2011-11-13T10:31:59Z</time>
      </trkpt>
      <trkpt lat="45.51068" lon="5.90536">
        <ele>919.79998779297</ele>
        <time>2011-11-13T10:32:04Z</time>
      </trkpt>
      <trkpt lat="45.51066" lon="5.90539">
        <ele>920.59997558594</ele>
        <time>2011-11-13T10:32:10Z</time>
      </trkpt>
      <trkpt lat="45.51063" lon="5.90545">
        <ele>921</ele>
        <time>2011-11-13T10:32:17Z</time>
      </trkpt>
      <trkpt lat="45.51058" lon="5.90548">
        <ele>921.20001220703</ele>
        <time>2011-11-13T10:32:21Z</time>
      </trkpt>
      <trkpt lat="45.51058" lon="5.9055">
        <ele>921.20001220703</ele>
        <time>2011-11-13T10:32:22Z</time>
      </trkpt>
      <trkpt lat="45.51051" lon="5.90559">
        <ele>921.20001220703</ele>
        <time>2011-11-13T10:32:26Z</time>
      </trkpt>
      <trkpt lat="45.51045" lon="5.90565">
        <ele>921.20001220703</ele>
        <time>2011-11-13T10:32:30Z</time>
      </trkpt>
      <trkpt lat="45.51041" lon="5.90569">
        <ele>921.40002441406</ele>
        <time>2011-11-13T10:32:32Z</time>
      </trkpt>
      <trkpt lat="45.5104" lon="5.90573">
        <ele>921.40002441406</ele>
        <time>2011-11-13T10:32:34Z</time>
      </trkpt>
      <trkpt lat="45.51035" lon="5.90582">
        <ele>921.40002441406</ele>
        <time>2011-11-13T10:32:38Z</time>
      </trkpt>
      <trkpt lat="45.51033" lon="5.90584">
        <ele>921.40002441406</ele>
        <time>2011-11-13T10:32:39Z</time>
      </trkpt>
      <trkpt lat="45.51031" lon="5.90585">
        <ele>921.40002441406</ele>
        <time>2011-11-13T10:32:40Z</time>
      </trkpt>
      <trkpt lat="45.51027" lon="5.90592">
        <ele>922</ele>
        <time>2011-11-13T10:32:44Z</time>
      </trkpt>
      <trkpt lat="45.51026" lon="5.90594">
        <ele>922.20001220703</ele>
        <time>2011-11-13T10:32:45Z</time>
      </trkpt>
      <trkpt lat="45.51025" lon="5.90598">
        <ele>922.59997558594</ele>
        <time>2011-11-13T10:32:48Z</time>
      </trkpt>
      <trkpt lat="45.51019" lon="5.90607">
        <ele>923.59997558594</ele>
        <time>2011-11-13T10:32:55Z</time>
      </trkpt>
      <trkpt lat="45.51017" lon="5.90607">
        <ele>923.79998779297</ele>
        <time>2011-11-13T10:32:56Z</time>
      </trkpt>
      <trkpt lat="45.51017" lon="5.90609">
        <ele>924</ele>
        <time>2011-11-13T10:32:57Z</time>
      </trkpt>
      <trkpt lat="45.51013" lon="5.90612">
        <ele>924.40002441406</ele>
        <time>2011-11-13T10:33:01Z</time>
      </trkpt>
      <trkpt lat="45.51007" lon="5.9062">
        <ele>926</ele>
        <time>2011-11-13T10:33:09Z</time>
      </trkpt>
      <trkpt lat="45.51007" lon="5.9062">
        <ele>926.20001220703</ele>
        <time>2011-11-13T10:33:10Z</time>
      </trkpt>
      <trkpt lat="45.51003" lon="5.90624">
        <ele>927</ele>
        <time>2011-11-13T10:33:15Z</time>
      </trkpt>
      <trkpt lat="45.50998" lon="5.9063">
        <ele>928.40002441406</ele>
        <time>2011-11-13T10:33:22Z</time>
      </trkpt>
      <trkpt lat="45.50997" lon="5.90632">
        <ele>928.59997558594</ele>
        <time>2011-11-13T10:33:23Z</time>
      </trkpt>
      <trkpt lat="45.50994" lon="5.90636">
        <ele>929.20001220703</ele>
        <time>2011-11-13T10:33:27Z</time>
      </trkpt>
      <trkpt lat="45.50991" lon="5.90639">
        <ele>930.20001220703</ele>
        <time>2011-11-13T10:33:31Z</time>
      </trkpt>
      <trkpt lat="45.50988" lon="5.90641">
        <ele>930.40002441406</ele>
        <time>2011-11-13T10:33:33Z</time>
      </trkpt>
      <trkpt lat="45.50983" lon="5.90643">
        <ele>931.59997558594</ele>
        <time>2011-11-13T10:33:38Z</time>
      </trkpt>
      <trkpt lat="45.50976" lon="5.90648">
        <ele>932.59997558594</ele>
        <time>2011-11-13T10:33:44Z</time>
      </trkpt>
      <trkpt lat="45.50975" lon="5.90648">
        <ele>933</ele>
        <time>2011-11-13T10:33:45Z</time>
      </trkpt>
      <trkpt lat="45.50967" lon="5.90643">
        <ele>934.59997558594</ele>
        <time>2011-11-13T10:33:52Z</time>
      </trkpt>
      <trkpt lat="45.50967" lon="5.90643">
        <ele>934.79998779297</ele>
        <time>2011-11-13T10:33:53Z</time>
      </trkpt>
      <trkpt lat="45.50964" lon="5.90639">
        <ele>936</ele>
        <time>2011-11-13T10:33:59Z</time>
      </trkpt>
      <trkpt lat="45.50961" lon="5.90633">
        <ele>936.79998779297</ele>
        <time>2011-11-13T10:34:04Z</time>
      </trkpt>
      <trkpt lat="45.50959" lon="5.90628">
        <ele>937.20001220703</ele>
        <time>2011-11-13T10:34:07Z</time>
      </trkpt>
      <trkpt lat="45.5095" lon="5.90626">
        <ele>938.40002441406</ele>
        <time>2011-11-13T10:34:12Z</time>
      </trkpt>
      <trkpt lat="45.50945" lon="5.90626">
        <ele>938.79998779297</ele>
        <time>2011-11-13T10:34:15Z</time>
      </trkpt>
      <trkpt lat="45.50936" lon="5.90627">
        <ele>939.40002441406</ele>
        <time>2011-11-13T10:34:20Z</time>
      </trkpt>
      <trkpt lat="45.50932" lon="5.90629">
        <ele>939.59997558594</ele>
        <time>2011-11-13T10:34:23Z</time>
      </trkpt>
      <trkpt lat="45.50929" lon="5.90629">
        <ele>939.79998779297</ele>
        <time>2011-11-13T10:34:25Z</time>
      </trkpt>
      <trkpt lat="45.50923" lon="5.90638">
        <ele>940</ele>
        <time>2011-11-13T10:34:30Z</time>
      </trkpt>
      <trkpt lat="45.50915" lon="5.90641">
        <ele>940</ele>
        <time>2011-11-13T10:34:34Z</time>
      </trkpt>
      <trkpt lat="45.50908" lon="5.90644">
        <ele>940.20001220703</ele>
        <time>2011-11-13T10:34:38Z</time>
      </trkpt>
      <trkpt lat="45.50898" lon="5.90646">
        <ele>940.40002441406</ele>
        <time>2011-11-13T10:34:43Z</time>
      </trkpt>
      <trkpt lat="45.50894" lon="5.90647">
        <ele>940.79998779297</ele>
        <time>2011-11-13T10:34:45Z</time>
      </trkpt>
      <trkpt lat="45.50887" lon="5.90654">
        <ele>941.20001220703</ele>
        <time>2011-11-13T10:34:48Z</time>
      </trkpt>
      <trkpt lat="45.5088" lon="5.90664">
        <ele>941.59997558594</ele>
        <time>2011-11-13T10:34:53Z</time>
      </trkpt>
      <trkpt lat="45.50877" lon="5.90673">
        <ele>942</ele>
        <time>2011-11-13T10:34:57Z</time>
      </trkpt>
      <trkpt lat="45.50874" lon="5.9068">
        <ele>942</ele>
        <time>2011-11-13T10:35:01Z</time>
      </trkpt>
      <trkpt lat="45.50872" lon="5.9069">
        <ele>942.20001220703</ele>
        <time>2011-11-13T10:35:05Z</time>
      </trkpt>
      <trkpt lat="45.50867" lon="5.90708">
        <ele>942.20001220703</ele>
        <time>2011-11-13T10:35:10Z</time>
      </trkpt>
      <trkpt lat="45.50868" lon="5.9071">
        <ele>942.20001220703</ele>
        <time>2011-11-13T10:35:11Z</time>
      </trkpt>
      <trkpt lat="45.50866" lon="5.90711">
        <ele>942.20001220703</ele>
        <time>2011-11-13T10:35:12Z</time>
      </trkpt>
      <trkpt lat="45.50864" lon="5.90724">
        <ele>942.40002441406</ele>
        <time>2011-11-13T10:35:16Z</time>
      </trkpt>
      <trkpt lat="45.50863" lon="5.90729">
        <ele>942.40002441406</ele>
        <time>2011-11-13T10:35:18Z</time>
      </trkpt>
      <trkpt lat="45.50863" lon="5.90736">
        <ele>942.40002441406</ele>
        <time>2011-11-13T10:35:20Z</time>
      </trkpt>
      <trkpt lat="45.5086" lon="5.9076">
        <ele>942.40002441406</ele>
        <time>2011-11-13T10:35:25Z</time>
      </trkpt>
      <trkpt lat="45.50856" lon="5.90762">
        <ele>942.20001220703</ele>
        <time>2011-11-13T10:35:26Z</time>
      </trkpt>
      <trkpt lat="45.50843" lon="5.90773">
        <ele>941.59997558594</ele>
        <time>2011-11-13T10:35:30Z</time>
      </trkpt>
      <trkpt lat="45.50838" lon="5.9079">
        <ele>941</ele>
        <time>2011-11-13T10:35:35Z</time>
      </trkpt>
      <trkpt lat="45.50834" lon="5.90808">
        <ele>940.40002441406</ele>
        <time>2011-11-13T10:35:39Z</time>
      </trkpt>
      <trkpt lat="45.50838" lon="5.90825">
        <ele>939.59997558594</ele>
        <time>2011-11-13T10:35:44Z</time>
      </trkpt>
      <trkpt lat="45.5084" lon="5.90831">
        <ele>939.20001220703</ele>
        <time>2011-11-13T10:35:46Z</time>
      </trkpt>
      <trkpt lat="45.50846" lon="5.90841">
        <ele>938.79998779297</ele>
        <time>2011-11-13T10:35:51Z</time>
      </trkpt>
      <trkpt lat="45.50851" lon="5.90846">
        <ele>938.59997558594</ele>
        <time>2011-11-13T10:35:53Z</time>
      </trkpt>
      <trkpt lat="45.50856" lon="5.90852">
        <ele>938</ele>
        <time>2011-11-13T10:35:56Z</time>
      </trkpt>
      <trkpt lat="45.50864" lon="5.90858">
        <ele>937.40002441406</ele>
        <time>2011-11-13T10:35:59Z</time>
      </trkpt>
      <trkpt lat="45.50873" lon="5.90879">
        <ele>936.40002441406</ele>
        <time>2011-11-13T10:36:04Z</time>
      </trkpt>
      <trkpt lat="45.50874" lon="5.90882">
        <ele>936.20001220703</ele>
        <time>2011-11-13T10:36:05Z</time>
      </trkpt>
      <trkpt lat="45.50879" lon="5.909">
        <ele>934.59997558594</ele>
        <time>2011-11-13T10:36:10Z</time>
      </trkpt>
      <trkpt lat="45.50878" lon="5.90903">
        <ele>934.20001220703</ele>
        <time>2011-11-13T10:36:11Z</time>
      </trkpt>
      <trkpt lat="45.50879" lon="5.90918">
        <ele>932.59997558594</ele>
        <time>2011-11-13T10:36:15Z</time>
      </trkpt>
      <trkpt lat="45.50879" lon="5.90922">
        <ele>932.40002441406</ele>
        <time>2011-11-13T10:36:16Z</time>
      </trkpt>
      <trkpt lat="45.5088" lon="5.90933">
        <ele>930.79998779297</ele>
        <time>2011-11-13T10:36:19Z</time>
      </trkpt>
      <trkpt lat="45.50883" lon="5.90948">
        <ele>928.40002441406</ele>
        <time>2011-11-13T10:36:24Z</time>
      </trkpt>
      <trkpt lat="45.50888" lon="5.90956">
        <ele>925.79998779297</ele>
        <time>2011-11-13T10:36:30Z</time>
      </trkpt>
      <trkpt lat="45.50889" lon="5.90957">
        <ele>925.40002441406</ele>
        <time>2011-11-13T10:36:31Z</time>
      </trkpt>
      <trkpt lat="45.50891" lon="5.90958">
        <ele>925</ele>
        <time>2011-11-13T10:36:32Z</time>
      </trkpt>
      <trkpt lat="45.50898" lon="5.90964">
        <ele>923.40002441406</ele>
        <time>2011-11-13T10:36:36Z</time>
      </trkpt>
      <trkpt lat="45.5091" lon="5.90977">
        <ele>920.79998779297</ele>
        <time>2011-11-13T10:36:42Z</time>
      </trkpt>
      <trkpt lat="45.50916" lon="5.90983">
        <ele>919</ele>
        <time>2011-11-13T10:36:46Z</time>
      </trkpt>
      <trkpt lat="45.50917" lon="5.90983">
        <ele>918.59997558594</ele>
        <time>2011-11-13T10:36:47Z</time>
      </trkpt>
      <trkpt lat="45.50918" lon="5.90985">
        <ele>918</ele>
        <time>2011-11-13T10:36:48Z</time>
      </trkpt>
      <trkpt lat="45.5093" lon="5.90994">
        <ele>916.20001220703</ele>
        <time>2011-11-13T10:36:52Z</time>
      </trkpt>
      <trkpt lat="45.50945" lon="5.90994">
        <ele>914.59997558594</ele>
        <time>2011-11-13T10:36:56Z</time>
      </trkpt>
      <trkpt lat="45.50949" lon="5.90994">
        <ele>914.20001220703</ele>
        <time>2011-11-13T10:36:57Z</time>
      </trkpt>
      <trkpt lat="45.50951" lon="5.90992">
        <ele>913.79998779297</ele>
        <time>2011-11-13T10:36:58Z</time>
      </trkpt>
      <trkpt lat="45.50954" lon="5.9099">
        <ele>913.20001220703</ele>
        <time>2011-11-13T10:37:00Z</time>
      </trkpt>
      <trkpt lat="45.50969" lon="5.90991">
        <ele>911.40002441406</ele>
        <time>2011-11-13T10:37:05Z</time>
      </trkpt>
      <trkpt lat="45.50985" lon="5.90989">
        <ele>909.59997558594</ele>
        <time>2011-11-13T10:37:10Z</time>
      </trkpt>
      <trkpt lat="45.50996" lon="5.90977">
        <ele>908.40002441406</ele>
        <time>2011-11-13T10:37:14Z</time>
      </trkpt>
      <trkpt lat="45.50998" lon="5.90973">
        <ele>908</ele>
        <time>2011-11-13T10:37:15Z</time>
      </trkpt>
      <trkpt lat="45.51003" lon="5.90968">
        <ele>907.20001220703</ele>
        <time>2011-11-13T10:37:17Z</time>
      </trkpt>
      <trkpt lat="45.51017" lon="5.90965">
        <ele>905.40002441406</ele>
        <time>2011-11-13T10:37:22Z</time>
      </trkpt>
      <trkpt lat="45.51028" lon="5.9096">
        <ele>903.59997558594</ele>
        <time>2011-11-13T10:37:26Z</time>
      </trkpt>
      <trkpt lat="45.51037" lon="5.90952">
        <ele>902</ele>
        <time>2011-11-13T10:37:30Z</time>
      </trkpt>
      <trkpt lat="45.51047" lon="5.90944">
        <ele>900.20001220703</ele>
        <time>2011-11-13T10:37:34Z</time>
      </trkpt>
      <trkpt lat="45.51057" lon="5.90937">
        <ele>898.40002441406</ele>
        <time>2011-11-13T10:37:37Z</time>
      </trkpt>
      <trkpt lat="45.51068" lon="5.90932">
        <ele>896.40002441406</ele>
        <time>2011-11-13T10:37:42Z</time>
      </trkpt>
      <trkpt lat="45.51073" lon="5.90923">
        <ele>894.59997558594</ele>
        <time>2011-11-13T10:37:46Z</time>
      </trkpt>
      <trkpt lat="45.51085" lon="5.90918">
        <ele>892.79998779297</ele>
        <time>2011-11-13T10:37:50Z</time>
      </trkpt>
      <trkpt lat="45.51093" lon="5.90921">
        <ele>891.40002441406</ele>
        <time>2011-11-13T10:37:53Z</time>
      </trkpt>
      <trkpt lat="45.51097" lon="5.90925">
        <ele>890.40002441406</ele>
        <time>2011-11-13T10:37:55Z</time>
      </trkpt>
      <trkpt lat="45.51107" lon="5.90932">
        <ele>888.59997558594</ele>
        <time>2011-11-13T10:37:59Z</time>
      </trkpt>
      <trkpt lat="45.5113" lon="5.90945">
        <ele>885.59997558594</ele>
        <time>2011-11-13T10:38:05Z</time>
      </trkpt>
      <trkpt lat="45.51142" lon="5.90956">
        <ele>883.40002441406</ele>
        <time>2011-11-13T10:38:09Z</time>
      </trkpt>
      <trkpt lat="45.5115" lon="5.90959">
        <ele>881.59997558594</ele>
        <time>2011-11-13T10:38:12Z</time>
      </trkpt>
      <trkpt lat="45.51166" lon="5.90959">
        <ele>879.20001220703</ele>
        <time>2011-11-13T10:38:16Z</time>
      </trkpt>
      <trkpt lat="45.51187" lon="5.90961">
        <ele>876.40002441406</ele>
        <time>2011-11-13T10:38:21Z</time>
      </trkpt>
      <trkpt lat="45.51201" lon="5.9096">
        <ele>873.79998779297</ele>
        <time>2011-11-13T10:38:25Z</time>
      </trkpt>
      <trkpt lat="45.51205" lon="5.90958">
        <ele>873.20001220703</ele>
        <time>2011-11-13T10:38:26Z</time>
      </trkpt>
      <trkpt lat="45.51207" lon="5.90957">
        <ele>872.59997558594</ele>
        <time>2011-11-13T10:38:27Z</time>
      </trkpt>
      <trkpt lat="45.51211" lon="5.90957">
        <ele>872</ele>
        <time>2011-11-13T10:38:28Z</time>
      </trkpt>
      <trkpt lat="45.51221" lon="5.90947">
        <ele>869.59997558594</ele>
        <time>2011-11-13T10:38:32Z</time>
      </trkpt>
      <trkpt lat="45.51235" lon="5.90937">
        <ele>867.20001220703</ele>
        <time>2011-11-13T10:38:36Z</time>
      </trkpt>
      <trkpt lat="45.51245" lon="5.90933">
        <ele>865.40002441406</ele>
        <time>2011-11-13T10:38:39Z</time>
      </trkpt>
      <trkpt lat="45.51249" lon="5.90932">
        <ele>864.79998779297</ele>
        <time>2011-11-13T10:38:40Z</time>
      </trkpt>
      <trkpt lat="45.5126" lon="5.90929">
        <ele>862.40002441406</ele>
        <time>2011-11-13T10:38:44Z</time>
      </trkpt>
      <trkpt lat="45.51273" lon="5.90927">
        <ele>860.40002441406</ele>
        <time>2011-11-13T10:38:48Z</time>
      </trkpt>
      <trkpt lat="45.51288" lon="5.90925">
        <ele>858.20001220703</ele>
        <time>2011-11-13T10:38:52Z</time>
      </trkpt>
      <trkpt lat="45.51292" lon="5.90924">
        <ele>857.79998779297</ele>
        <time>2011-11-13T10:38:53Z</time>
      </trkpt>
      <trkpt lat="45.51294" lon="5.90922">
        <ele>857.20001220703</ele>
        <time>2011-11-13T10:38:54Z</time>
      </trkpt>
      <trkpt lat="45.51307" lon="5.9092">
        <ele>855</ele>
        <time>2011-11-13T10:38:58Z</time>
      </trkpt>
      <trkpt lat="45.5132" lon="5.9092">
        <ele>852.59997558594</ele>
        <time>2011-11-13T10:39:03Z</time>
      </trkpt>
      <trkpt lat="45.51321" lon="5.9092">
        <ele>851.79998779297</ele>
        <time>2011-11-13T10:39:04Z</time>
      </trkpt>
      <trkpt lat="45.5133" lon="5.90922">
        <ele>850.40002441406</ele>
        <time>2011-11-13T10:39:07Z</time>
      </trkpt>
      <trkpt lat="45.51336" lon="5.90925">
        <ele>849.20001220703</ele>
        <time>2011-11-13T10:39:09Z</time>
      </trkpt>
      <trkpt lat="45.51345" lon="5.90938">
        <ele>847</ele>
        <time>2011-11-13T10:39:13Z</time>
      </trkpt>
      <trkpt lat="45.51348" lon="5.90959">
        <ele>843.59997558594</ele>
        <time>2011-11-13T10:39:19Z</time>
      </trkpt>
      <trkpt lat="45.5135" lon="5.90974">
        <ele>841.40002441406</ele>
        <time>2011-11-13T10:39:23Z</time>
      </trkpt>
      <trkpt lat="45.51356" lon="5.90993">
        <ele>839</ele>
        <time>2011-11-13T10:39:28Z</time>
      </trkpt>
      <trkpt lat="45.51359" lon="5.90997">
        <ele>838.40002441406</ele>
        <time>2011-11-13T10:39:29Z</time>
      </trkpt>
      <trkpt lat="45.5137" lon="5.91017">
        <ele>835.40002441406</ele>
        <time>2011-11-13T10:39:35Z</time>
      </trkpt>
      <trkpt lat="45.51376" lon="5.91032">
        <ele>833</ele>
        <time>2011-11-13T10:39:40Z</time>
      </trkpt>
      <trkpt lat="45.51378" lon="5.91035">
        <ele>832.59997558594</ele>
        <time>2011-11-13T10:39:41Z</time>
      </trkpt>
      <trkpt lat="45.51383" lon="5.91045">
        <ele>831.20001220703</ele>
        <time>2011-11-13T10:39:44Z</time>
      </trkpt>
      <trkpt lat="45.51389" lon="5.91048">
        <ele>830.20001220703</ele>
        <time>2011-11-13T10:39:46Z</time>
      </trkpt>
      <trkpt lat="45.51393" lon="5.9105">
        <ele>829.59997558594</ele>
        <time>2011-11-13T10:39:47Z</time>
      </trkpt>
      <trkpt lat="45.51404" lon="5.91052">
        <ele>828.20001220703</ele>
        <time>2011-11-13T10:39:50Z</time>
      </trkpt>
      <trkpt lat="45.51421" lon="5.91049">
        <ele>825.59997558594</ele>
        <time>2011-11-13T10:39:55Z</time>
      </trkpt>
      <trkpt lat="45.5143" lon="5.91045">
        <ele>824.20001220703</ele>
        <time>2011-11-13T10:39:58Z</time>
      </trkpt>
      <trkpt lat="45.51445" lon="5.91041">
        <ele>821.59997558594</ele>
        <time>2011-11-13T10:40:03Z</time>
      </trkpt>
      <trkpt lat="45.51461" lon="5.91041">
        <ele>819.59997558594</ele>
        <time>2011-11-13T10:40:07Z</time>
      </trkpt>
      <trkpt lat="45.51469" lon="5.91037">
        <ele>818.20001220703</ele>
        <time>2011-11-13T10:40:10Z</time>
      </trkpt>
      <trkpt lat="45.51484" lon="5.91039">
        <ele>815.79998779297</ele>
        <time>2011-11-13T10:40:15Z</time>
      </trkpt>
      <trkpt lat="45.51497" lon="5.91044">
        <ele>814.20001220703</ele>
        <time>2011-11-13T10:40:18Z</time>
      </trkpt>
      <trkpt lat="45.51516" lon="5.91047">
        <ele>811.79998779297</ele>
        <time>2011-11-13T10:40:23Z</time>
      </trkpt>
      <trkpt lat="45.51534" lon="5.91043">
        <ele>809.20001220703</ele>
        <time>2011-11-13T10:40:28Z</time>
      </trkpt>
      <trkpt lat="45.51552" lon="5.91041">
        <ele>806.40002441406</ele>
        <time>2011-11-13T10:40:33Z</time>
      </trkpt>
      <trkpt lat="45.51567" lon="5.91041">
        <ele>804</ele>
        <time>2011-11-13T10:40:38Z</time>
      </trkpt>
      <trkpt lat="45.51583" lon="5.91045">
        <ele>801.59997558594</ele>
        <time>2011-11-13T10:40:43Z</time>
      </trkpt>
      <trkpt lat="45.51593" lon="5.91044">
        <ele>799.79998779297</ele>
        <time>2011-11-13T10:40:47Z</time>
      </trkpt>
      <trkpt lat="45.51614" lon="5.91042">
        <ele>797</ele>
        <time>2011-11-13T10:40:53Z</time>
      </trkpt>
      <trkpt lat="45.51634" lon="5.91041">
        <ele>795</ele>
        <time>2011-11-13T10:40:58Z</time>
      </trkpt>
      <trkpt lat="45.51649" lon="5.91039">
        <ele>792.79998779297</ele>
        <time>2011-11-13T10:41:02Z</time>
      </trkpt>
      <trkpt lat="45.51668" lon="5.91042">
        <ele>790.79998779297</ele>
        <time>2011-11-13T10:41:08Z</time>
      </trkpt>
      <trkpt lat="45.51676" lon="5.91048">
        <ele>789.59997558594</ele>
        <time>2011-11-13T10:41:11Z</time>
      </trkpt>
      <trkpt lat="45.51688" lon="5.91055">
        <ele>787.79998779297</ele>
        <time>2011-11-13T10:41:16Z</time>
      </trkpt>
      <trkpt lat="45.51698" lon="5.91062">
        <ele>785.79998779297</ele>
        <time>2011-11-13T10:41:21Z</time>
      </trkpt>
      <trkpt lat="45.51705" lon="5.91067">
        <ele>784.59997558594</ele>
        <time>2011-11-13T10:41:24Z</time>
      </trkpt>
      <trkpt lat="45.51722" lon="5.91067">
        <ele>782.40002441406</ele>
        <time>2011-11-13T10:41:29Z</time>
      </trkpt>
      <trkpt lat="45.51739" lon="5.91065">
        <ele>780.40002441406</ele>
        <time>2011-11-13T10:41:34Z</time>
      </trkpt>
      <trkpt lat="45.51755" lon="5.91065">
        <ele>778.79998779297</ele>
        <time>2011-11-13T10:41:38Z</time>
      </trkpt>
      <trkpt lat="45.51765" lon="5.91063">
        <ele>777.79998779297</ele>
        <time>2011-11-13T10:41:41Z</time>
      </trkpt>
      <trkpt lat="45.51767" lon="5.91062">
        <ele>777.59997558594</ele>
        <time>2011-11-13T10:41:42Z</time>
      </trkpt>
      <trkpt lat="45.51775" lon="5.91061">
        <ele>776.20001220703</ele>
        <time>2011-11-13T10:41:46Z</time>
      </trkpt>
      <trkpt lat="45.51787" lon="5.91062">
        <ele>774.79998779297</ele>
        <time>2011-11-13T10:41:50Z</time>
      </trkpt>
      <trkpt lat="45.51803" lon="5.91063">
        <ele>774.20001220703</ele>
        <time>2011-11-13T10:41:55Z</time>
      </trkpt>
      <trkpt lat="45.51816" lon="5.91072">
        <ele>772.79998779297</ele>
        <time>2011-11-13T10:42:00Z</time>
      </trkpt>
      <trkpt lat="45.5182" lon="5.91078">
        <ele>772.40002441406</ele>
        <time>2011-11-13T10:42:02Z</time>
      </trkpt>
      <trkpt lat="45.51837" lon="5.91085">
        <ele>771.59997558594</ele>
        <time>2011-11-13T10:42:07Z</time>
      </trkpt>
      <trkpt lat="45.51846" lon="5.91095">
        <ele>770.59997558594</ele>
        <time>2011-11-13T10:42:11Z</time>
      </trkpt>
      <trkpt lat="45.51858" lon="5.91109">
        <ele>769.79998779297</ele>
        <time>2011-11-13T10:42:15Z</time>
      </trkpt>
      <trkpt lat="45.51865" lon="5.91117">
        <ele>769</ele>
        <time>2011-11-13T10:42:18Z</time>
      </trkpt>
      <trkpt lat="45.51872" lon="5.91127">
        <ele>767.79998779297</ele>
        <time>2011-11-13T10:42:22Z</time>
      </trkpt>
      <trkpt lat="45.51881" lon="5.91139">
        <ele>766.40002441406</ele>
        <time>2011-11-13T10:42:26Z</time>
      </trkpt>
      <trkpt lat="45.51885" lon="5.91155">
        <ele>764.79998779297</ele>
        <time>2011-11-13T10:42:30Z</time>
      </trkpt>
      <trkpt lat="45.51888" lon="5.9117">
        <ele>763.20001220703</ele>
        <time>2011-11-13T10:42:33Z</time>
      </trkpt>
      <trkpt lat="45.51894" lon="5.91185">
        <ele>761.40002441406</ele>
        <time>2011-11-13T10:42:36Z</time>
      </trkpt>
      <trkpt lat="45.51907" lon="5.91209">
        <ele>757.40002441406</ele>
        <time>2011-11-13T10:42:42Z</time>
      </trkpt>
      <trkpt lat="45.51924" lon="5.91223">
        <ele>753.59997558594</ele>
        <time>2011-11-13T10:42:48Z</time>
      </trkpt>
      <trkpt lat="45.51941" lon="5.91226">
        <ele>750.79998779297</ele>
        <time>2011-11-13T10:42:53Z</time>
      </trkpt>
      <trkpt lat="45.51954" lon="5.91222">
        <ele>748.59997558594</ele>
        <time>2011-11-13T10:42:57Z</time>
      </trkpt>
      <trkpt lat="45.51972" lon="5.91215">
        <ele>746.20001220703</ele>
        <time>2011-11-13T10:43:02Z</time>
      </trkpt>
      <trkpt lat="45.51989" lon="5.91212">
        <ele>744</ele>
        <time>2011-11-13T10:43:07Z</time>
      </trkpt>
      <trkpt lat="45.52009" lon="5.91214">
        <ele>741.40002441406</ele>
        <time>2011-11-13T10:43:13Z</time>
      </trkpt>
      <trkpt lat="45.52026" lon="5.91218">
        <ele>739.40002441406</ele>
        <time>2011-11-13T10:43:18Z</time>
      </trkpt>
      <trkpt lat="45.52047" lon="5.91225">
        <ele>736.79998779297</ele>
        <time>2011-11-13T10:43:24Z</time>
      </trkpt>
      <trkpt lat="45.52064" lon="5.91228">
        <ele>734.79998779297</ele>
        <time>2011-11-13T10:43:29Z</time>
      </trkpt>
      <trkpt lat="45.52084" lon="5.91229">
        <ele>732.59997558594</ele>
        <time>2011-11-13T10:43:34Z</time>
      </trkpt>
      <trkpt lat="45.52097" lon="5.9123">
        <ele>731.40002441406</ele>
        <time>2011-11-13T10:43:38Z</time>
      </trkpt>
      <trkpt lat="45.5211" lon="5.91232">
        <ele>729.79998779297</ele>
        <time>2011-11-13T10:43:42Z</time>
      </trkpt>
      <trkpt lat="45.52129" lon="5.91241">
        <ele>728.20001220703</ele>
        <time>2011-11-13T10:43:47Z</time>
      </trkpt>
      <trkpt lat="45.52139" lon="5.91246">
        <ele>726.79998779297</ele>
        <time>2011-11-13T10:43:50Z</time>
      </trkpt>
      <trkpt lat="45.52156" lon="5.91256">
        <ele>725</ele>
        <time>2011-11-13T10:43:56Z</time>
      </trkpt>
      <trkpt lat="45.52175" lon="5.91255">
        <ele>723</ele>
        <time>2011-11-13T10:44:01Z</time>
      </trkpt>
      <trkpt lat="45.52192" lon="5.91259">
        <ele>721</ele>
        <time>2011-11-13T10:44:06Z</time>
      </trkpt>
      <trkpt lat="45.52206" lon="5.91261">
        <ele>719.40002441406</ele>
        <time>2011-11-13T10:44:10Z</time>
      </trkpt>
      <trkpt lat="45.52222" lon="5.91263">
        <ele>717.40002441406</ele>
        <time>2011-11-13T10:44:14Z</time>
      </trkpt>
      <trkpt lat="45.52227" lon="5.91263">
        <ele>717.20001220703</ele>
        <time>2011-11-13T10:44:15Z</time>
      </trkpt>
      <trkpt lat="45.52232" lon="5.91263">
        <ele>716.59997558594</ele>
        <time>2011-11-13T10:44:16Z</time>
      </trkpt>
      <trkpt lat="45.52244" lon="5.91261">
        <ele>715.20001220703</ele>
        <time>2011-11-13T10:44:19Z</time>
      </trkpt>
      <trkpt lat="45.52267" lon="5.91252">
        <ele>712.79998779297</ele>
        <time>2011-11-13T10:44:25Z</time>
      </trkpt>
      <trkpt lat="45.52282" lon="5.91247">
        <ele>711</ele>
        <time>2011-11-13T10:44:29Z</time>
      </trkpt>
      <trkpt lat="45.52299" lon="5.91239">
        <ele>709</ele>
        <time>2011-11-13T10:44:34Z</time>
      </trkpt>
      <trkpt lat="45.52316" lon="5.91227">
        <ele>706.59997558594</ele>
        <time>2011-11-13T10:44:40Z</time>
      </trkpt>
      <trkpt lat="45.52321" lon="5.91221">
        <ele>706</ele>
        <time>2011-11-13T10:44:42Z</time>
      </trkpt>
      <trkpt lat="45.52334" lon="5.91233">
        <ele>704.40002441406</ele>
        <time>2011-11-13T10:44:46Z</time>
      </trkpt>
      <trkpt lat="45.52343" lon="5.9125">
        <ele>702.59997558594</ele>
        <time>2011-11-13T10:44:50Z</time>
      </trkpt>
      <trkpt lat="45.52354" lon="5.91253">
        <ele>700.59997558594</ele>
        <time>2011-11-13T10:44:54Z</time>
      </trkpt>
      <trkpt lat="45.5237" lon="5.91242">
        <ele>698.20001220703</ele>
        <time>2011-11-13T10:44:59Z</time>
      </trkpt>
      <trkpt lat="45.52388" lon="5.91228">
        <ele>695.40002441406</ele>
        <time>2011-11-13T10:45:05Z</time>
      </trkpt>
      <trkpt lat="45.52405" lon="5.91218">
        <ele>693.20001220703</ele>
        <time>2011-11-13T10:45:10Z</time>
      </trkpt>
      <trkpt lat="45.52422" lon="5.91206">
        <ele>691</ele>
        <time>2011-11-13T10:45:15Z</time>
      </trkpt>
      <trkpt lat="45.52435" lon="5.91199">
        <ele>689.20001220703</ele>
        <time>2011-11-13T10:45:19Z</time>
      </trkpt>
      <trkpt lat="45.52446" lon="5.91191">
        <ele>687.59997558594</ele>
        <time>2011-11-13T10:45:23Z</time>
      </trkpt>
      <trkpt lat="45.52467" lon="5.91182">
        <ele>685.59997558594</ele>
        <time>2011-11-13T10:45:29Z</time>
      </trkpt>
      <trkpt lat="45.52481" lon="5.91172">
        <ele>683.40002441406</ele>
        <time>2011-11-13T10:45:35Z</time>
      </trkpt>
      <trkpt lat="45.52488" lon="5.91159">
        <ele>681.59997558594</ele>
        <time>2011-11-13T10:45:40Z</time>
      </trkpt>
      <trkpt lat="45.52488" lon="5.91155">
        <ele>681.40002441406</ele>
        <time>2011-11-13T10:45:41Z</time>
      </trkpt>
      <trkpt lat="45.52491" lon="5.91148">
        <ele>680.59997558594</ele>
        <time>2011-11-13T10:45:44Z</time>
      </trkpt>
      <trkpt lat="45.52494" lon="5.91136">
        <ele>679</ele>
        <time>2011-11-13T10:45:49Z</time>
      </trkpt>
      <trkpt lat="45.52498" lon="5.91125">
        <ele>678.20001220703</ele>
        <time>2011-11-13T10:45:53Z</time>
      </trkpt>
      <trkpt lat="45.52501" lon="5.91115">
        <ele>677</ele>
        <time>2011-11-13T10:45:58Z</time>
      </trkpt>
      <trkpt lat="45.52509" lon="5.91103">
        <ele>675.79998779297</ele>
        <time>2011-11-13T10:46:05Z</time>
      </trkpt>
      <trkpt lat="45.5251" lon="5.91099">
        <ele>675.59997558594</ele>
        <time>2011-11-13T10:46:07Z</time>
      </trkpt>
      <trkpt lat="45.52512" lon="5.91096">
        <ele>675</ele>
        <time>2011-11-13T10:46:09Z</time>
      </trkpt>
      <trkpt lat="45.52519" lon="5.91085">
        <ele>673.79998779297</ele>
        <time>2011-11-13T10:46:16Z</time>
      </trkpt>
      <trkpt lat="45.5252" lon="5.91083">
        <ele>673.59997558594</ele>
        <time>2011-11-13T10:46:17Z</time>
      </trkpt>
      <trkpt lat="45.5252" lon="5.91082">
        <ele>673.59997558594</ele>
        <time>2011-11-13T10:46:18Z</time>
      </trkpt>
      <trkpt lat="45.52528" lon="5.91075">
        <ele>672.59997558594</ele>
        <time>2011-11-13T10:46:23Z</time>
      </trkpt>
      <trkpt lat="45.52538" lon="5.91064">
        <ele>671.79998779297</ele>
        <time>2011-11-13T10:46:28Z</time>
      </trkpt>
      <trkpt lat="45.52558" lon="5.91055">
        <ele>670.79998779297</ele>
        <time>2011-11-13T10:46:34Z</time>
      </trkpt>
      <trkpt lat="45.52575" lon="5.91043">
        <ele>669.59997558594</ele>
        <time>2011-11-13T10:46:40Z</time>
      </trkpt>
      <trkpt lat="45.5259" lon="5.91028">
        <ele>668.59997558594</ele>
        <time>2011-11-13T10:46:46Z</time>
      </trkpt>
      <trkpt lat="45.52607" lon="5.91017">
        <ele>667.59997558594</ele>
        <time>2011-11-13T10:46:52Z</time>
      </trkpt>
      <trkpt lat="45.52615" lon="5.9101">
        <ele>667.20001220703</ele>
        <time>2011-11-13T10:46:55Z</time>
      </trkpt>
      <trkpt lat="45.52633" lon="5.91004">
        <ele>666.40002441406</ele>
        <time>2011-11-13T10:47:01Z</time>
      </trkpt>
      <trkpt lat="45.52647" lon="5.90996">
        <ele>665.40002441406</ele>
        <time>2011-11-13T10:47:06Z</time>
      </trkpt>
      <trkpt lat="45.52663" lon="5.90986">
        <ele>664.20001220703</ele>
        <time>2011-11-13T10:47:12Z</time>
      </trkpt>
      <trkpt lat="45.52681" lon="5.90977">
        <ele>663</ele>
        <time>2011-11-13T10:47:19Z</time>
      </trkpt>
      <trkpt lat="45.52699" lon="5.90969">
        <ele>661.40002441406</ele>
        <time>2011-11-13T10:47:25Z</time>
      </trkpt>
      <trkpt lat="45.52715" lon="5.90962">
        <ele>660</ele>
        <time>2011-11-13T10:47:30Z</time>
      </trkpt>
      <trkpt lat="45.52727" lon="5.90954">
        <ele>658.79998779297</ele>
        <time>2011-11-13T10:47:35Z</time>
      </trkpt>
      <trkpt lat="45.52739" lon="5.90942">
        <ele>657.40002441406</ele>
        <time>2011-11-13T10:47:40Z</time>
      </trkpt>
      <trkpt lat="45.5275" lon="5.90933">
        <ele>656</ele>
        <time>2011-11-13T10:47:44Z</time>
      </trkpt>
      <trkpt lat="45.52768" lon="5.90928">
        <ele>654.20001220703</ele>
        <time>2011-11-13T10:47:49Z</time>
      </trkpt>
      <trkpt lat="45.52789" lon="5.90923">
        <ele>652.20001220703</ele>
        <time>2011-11-13T10:47:55Z</time>
      </trkpt>
      <trkpt lat="45.52809" lon="5.90919">
        <ele>650.20001220703</ele>
        <time>2011-11-13T10:48:01Z</time>
      </trkpt>
      <trkpt lat="45.52823" lon="5.9091">
        <ele>648.79998779297</ele>
        <time>2011-11-13T10:48:06Z</time>
      </trkpt>
      <trkpt lat="45.52837" lon="5.90897">
        <ele>647.20001220703</ele>
        <time>2011-11-13T10:48:12Z</time>
      </trkpt>
      <trkpt lat="45.52847" lon="5.90883">
        <ele>646.20001220703</ele>
        <time>2011-11-13T10:48:17Z</time>
      </trkpt>
      <trkpt lat="45.52861" lon="5.90873">
        <ele>645.40002441406</ele>
        <time>2011-11-13T10:48:23Z</time>
      </trkpt>
      <trkpt lat="45.52869" lon="5.90866">
        <ele>645.20001220703</ele>
        <time>2011-11-13T10:48:28Z</time>
      </trkpt>
      <trkpt lat="45.52874" lon="5.90863">
        <ele>645</ele>
        <time>2011-11-13T10:48:30Z</time>
      </trkpt>
      <trkpt lat="45.52884" lon="5.90861">
        <ele>644.79998779297</ele>
        <time>2011-11-13T10:48:34Z</time>
      </trkpt>
      <trkpt lat="45.52905" lon="5.90849">
        <ele>643.79998779297</ele>
        <time>2011-11-13T10:48:41Z</time>
      </trkpt>
      <trkpt lat="45.52924" lon="5.90839">
        <ele>643</ele>
        <time>2011-11-13T10:48:47Z</time>
      </trkpt>
      <trkpt lat="45.52942" lon="5.90829">
        <ele>641.79998779297</ele>
        <time>2011-11-13T10:48:53Z</time>
      </trkpt>
      <trkpt lat="45.52956" lon="5.90818">
        <ele>640.40002441406</ele>
        <time>2011-11-13T10:48:58Z</time>
      </trkpt>
      <trkpt lat="45.52971" lon="5.90802">
        <ele>638.59997558594</ele>
        <time>2011-11-13T10:49:03Z</time>
      </trkpt>
      <trkpt lat="45.52985" lon="5.90782">
        <ele>636.79998779297</ele>
        <time>2011-11-13T10:49:09Z</time>
      </trkpt>
      <trkpt lat="45.52997" lon="5.90764">
        <ele>634.79998779297</ele>
        <time>2011-11-13T10:49:14Z</time>
      </trkpt>
      <trkpt lat="45.53016" lon="5.90753">
        <ele>631.79998779297</ele>
        <time>2011-11-13T10:49:20Z</time>
      </trkpt>
      <trkpt lat="45.53036" lon="5.90746">
        <ele>629.20001220703</ele>
        <time>2011-11-13T10:49:26Z</time>
      </trkpt>
      <trkpt lat="45.53056" lon="5.90741">
        <ele>626.40002441406</ele>
        <time>2011-11-13T10:49:32Z</time>
      </trkpt>
      <trkpt lat="45.53076" lon="5.90735">
        <ele>624.20001220703</ele>
        <time>2011-11-13T10:49:38Z</time>
      </trkpt>
      <trkpt lat="45.53097" lon="5.9073">
        <ele>622</ele>
        <time>2011-11-13T10:49:44Z</time>
      </trkpt>
      <trkpt lat="45.53117" lon="5.90726">
        <ele>619.79998779297</ele>
        <time>2011-11-13T10:49:50Z</time>
      </trkpt>
      <trkpt lat="45.53135" lon="5.90723">
        <ele>617.79998779297</ele>
        <time>2011-11-13T10:49:56Z</time>
      </trkpt>
      <trkpt lat="45.53138" lon="5.90722">
        <ele>617.40002441406</ele>
        <time>2011-11-13T10:49:57Z</time>
      </trkpt>
      <trkpt lat="45.53144" lon="5.90698">
        <ele>615.59997558594</ele>
        <time>2011-11-13T10:50:02Z</time>
      </trkpt>
      <trkpt lat="45.53145" lon="5.90695">
        <ele>615.20001220703</ele>
        <time>2011-11-13T10:50:03Z</time>
      </trkpt>
      <trkpt lat="45.5315" lon="5.90672">
        <ele>613.79998779297</ele>
        <time>2011-11-13T10:50:08Z</time>
      </trkpt>
      <trkpt lat="45.53152" lon="5.90665">
        <ele>613</ele>
        <time>2011-11-13T10:50:10Z</time>
      </trkpt>
      <trkpt lat="45.53163" lon="5.90659">
        <ele>611.79998779297</ele>
        <time>2011-11-13T10:50:14Z</time>
      </trkpt>
      <trkpt lat="45.53181" lon="5.90671">
        <ele>609.79998779297</ele>
        <time>2011-11-13T10:50:20Z</time>
      </trkpt>
      <trkpt lat="45.53197" lon="5.90685">
        <ele>607.79998779297</ele>
        <time>2011-11-13T10:50:26Z</time>
      </trkpt>
      <trkpt lat="45.53215" lon="5.90698">
        <ele>605.79998779297</ele>
        <time>2011-11-13T10:50:32Z</time>
      </trkpt>
      <trkpt lat="45.53232" lon="5.90712">
        <ele>604.20001220703</ele>
        <time>2011-11-13T10:50:38Z</time>
      </trkpt>
      <trkpt lat="45.53247" lon="5.90729">
        <ele>602.40002441406</ele>
        <time>2011-11-13T10:50:44Z</time>
      </trkpt>
      <trkpt lat="45.53259" lon="5.90746">
        <ele>600.79998779297</ele>
        <time>2011-11-13T10:50:49Z</time>
      </trkpt>
      <trkpt lat="45.53268" lon="5.90769">
        <ele>598.79998779297</ele>
        <time>2011-11-13T10:50:55Z</time>
      </trkpt>
      <trkpt lat="45.53279" lon="5.90791">
        <ele>597.59997558594</ele>
        <time>2011-11-13T10:51:01Z</time>
      </trkpt>
      <trkpt lat="45.53291" lon="5.90804">
        <ele>596.20001220703</ele>
        <time>2011-11-13T10:51:06Z</time>
      </trkpt>
      <trkpt lat="45.53308" lon="5.90812">
        <ele>595.20001220703</ele>
        <time>2011-11-13T10:51:12Z</time>
      </trkpt>
      <trkpt lat="45.53311" lon="5.90813">
        <ele>595</ele>
        <time>2011-11-13T10:51:13Z</time>
      </trkpt>
      <trkpt lat="45.53323" lon="5.90809">
        <ele>594</ele>
        <time>2011-11-13T10:51:17Z</time>
      </trkpt>
      <trkpt lat="45.53339" lon="5.90803">
        <ele>593</ele>
        <time>2011-11-13T10:51:23Z</time>
      </trkpt>
      <trkpt lat="45.53354" lon="5.90797">
        <ele>592.59997558594</ele>
        <time>2011-11-13T10:51:28Z</time>
      </trkpt>
      <trkpt lat="45.53372" lon="5.9079">
        <ele>592.40002441406</ele>
        <time>2011-11-13T10:51:34Z</time>
      </trkpt>
      <trkpt lat="45.53391" lon="5.90786">
        <ele>591.59997558594</ele>
        <time>2011-11-13T10:51:40Z</time>
      </trkpt>
      <trkpt lat="45.53408" lon="5.90787">
        <ele>591</ele>
        <time>2011-11-13T10:51:46Z</time>
      </trkpt>
      <trkpt lat="45.53423" lon="5.90784">
        <ele>590.59997558594</ele>
        <time>2011-11-13T10:51:51Z</time>
      </trkpt>
      <trkpt lat="45.53442" lon="5.90781">
        <ele>589.20001220703</ele>
        <time>2011-11-13T10:51:58Z</time>
      </trkpt>
      <trkpt lat="45.53459" lon="5.90777">
        <ele>588.59997558594</ele>
        <time>2011-11-13T10:52:04Z</time>
      </trkpt>
      <trkpt lat="45.53476" lon="5.90774">
        <ele>587.40002441406</ele>
        <time>2011-11-13T10:52:10Z</time>
      </trkpt>
      <trkpt lat="45.53496" lon="5.90768">
        <ele>586.59997558594</ele>
        <time>2011-11-13T10:52:17Z</time>
      </trkpt>
      <trkpt lat="45.53511" lon="5.9076">
        <ele>586</ele>
        <time>2011-11-13T10:52:23Z</time>
      </trkpt>
      <trkpt lat="45.53528" lon="5.90753">
        <ele>585</ele>
        <time>2011-11-13T10:52:29Z</time>
      </trkpt>
      <trkpt lat="45.53541" lon="5.90749">
        <ele>584.59997558594</ele>
        <time>2011-11-13T10:52:34Z</time>
      </trkpt>
      <trkpt lat="45.53553" lon="5.90747">
        <ele>584.40002441406</ele>
        <time>2011-11-13T10:52:38Z</time>
      </trkpt>
      <trkpt lat="45.53569" lon="5.90749">
        <ele>584.20001220703</ele>
        <time>2011-11-13T10:52:44Z</time>
      </trkpt>
      <trkpt lat="45.53584" lon="5.90753">
        <ele>584</ele>
        <time>2011-11-13T10:52:49Z</time>
      </trkpt>
      <trkpt lat="45.53596" lon="5.90762">
        <ele>584</ele>
        <time>2011-11-13T10:52:54Z</time>
      </trkpt>
      <trkpt lat="45.53611" lon="5.90772">
        <ele>584</ele>
        <time>2011-11-13T10:52:59Z</time>
      </trkpt>
      <trkpt lat="45.53625" lon="5.90788">
        <ele>583.59997558594</ele>
        <time>2011-11-13T10:53:05Z</time>
      </trkpt>
      <trkpt lat="45.53637" lon="5.908">
        <ele>582.79998779297</ele>
        <time>2011-11-13T10:53:10Z</time>
      </trkpt>
      <trkpt lat="45.53651" lon="5.90818">
        <ele>582.40002441406</ele>
        <time>2011-11-13T10:53:16Z</time>
      </trkpt>
      <trkpt lat="45.53664" lon="5.9083">
        <ele>582.20001220703</ele>
        <time>2011-11-13T10:53:21Z</time>
      </trkpt>
      <trkpt lat="45.53678" lon="5.90846">
        <ele>581</ele>
        <time>2011-11-13T10:53:27Z</time>
      </trkpt>
      <trkpt lat="45.53689" lon="5.90857">
        <ele>580.59997558594</ele>
        <time>2011-11-13T10:53:32Z</time>
      </trkpt>
      <trkpt lat="45.53701" lon="5.90855">
        <ele>580.20001220703</ele>
        <time>2011-11-13T10:53:36Z</time>
      </trkpt>
      <trkpt lat="45.53712" lon="5.9084">
        <ele>579.20001220703</ele>
        <time>2011-11-13T10:53:41Z</time>
      </trkpt>
      <trkpt lat="45.53724" lon="5.90832">
        <ele>578.79998779297</ele>
        <time>2011-11-13T10:53:45Z</time>
      </trkpt>
      <trkpt lat="45.5374" lon="5.90832">
        <ele>578</ele>
        <time>2011-11-13T10:53:50Z</time>
      </trkpt>
      <trkpt lat="45.53759" lon="5.90835">
        <ele>577</ele>
        <time>2011-11-13T10:53:55Z</time>
      </trkpt>
      <trkpt lat="45.53773" lon="5.90825">
        <ele>575.79998779297</ele>
        <time>2011-11-13T10:54:00Z</time>
      </trkpt>
      <trkpt lat="45.53779" lon="5.9082">
        <ele>575.40002441406</ele>
        <time>2011-11-13T10:54:02Z</time>
      </trkpt>
      <trkpt lat="45.53793" lon="5.9082">
        <ele>574.59997558594</ele>
        <time>2011-11-13T10:54:07Z</time>
      </trkpt>
      <trkpt lat="45.53798" lon="5.90826">
        <ele>574</ele>
        <time>2011-11-13T10:54:09Z</time>
      </trkpt>
      <trkpt lat="45.53812" lon="5.90839">
        <ele>573</ele>
        <time>2011-11-13T10:54:14Z</time>
      </trkpt>
      <trkpt lat="45.53827" lon="5.90842">
        <ele>571.59997558594</ele>
        <time>2011-11-13T10:54:18Z</time>
      </trkpt>
      <trkpt lat="45.53843" lon="5.90841">
        <ele>570.20001220703</ele>
        <time>2011-11-13T10:54:23Z</time>
      </trkpt>
      <trkpt lat="45.53856" lon="5.90846">
        <ele>569.20001220703</ele>
        <time>2011-11-13T10:54:27Z</time>
      </trkpt>
      <trkpt lat="45.53868" lon="5.90851">
        <ele>567.79998779297</ele>
        <time>2011-11-13T10:54:31Z</time>
      </trkpt>
      <trkpt lat="45.53889" lon="5.90853">
        <ele>566.40002441406</ele>
        <time>2011-11-13T10:54:37Z</time>
      </trkpt>
      <trkpt lat="45.53904" lon="5.90857">
        <ele>564.79998779297</ele>
        <time>2011-11-13T10:54:42Z</time>
      </trkpt>
      <trkpt lat="45.53917" lon="5.90862">
        <ele>563.79998779297</ele>
        <time>2011-11-13T10:54:47Z</time>
      </trkpt>
      <trkpt lat="45.53918" lon="5.90862">
        <ele>562.20001220703</ele>
        <time>2011-11-13T10:54:53Z</time>
      </trkpt>
      <trkpt lat="45.53918" lon="5.90863">
        <ele>561</ele>
        <time>2011-11-13T10:55:00Z</time>
      </trkpt>
      <trkpt lat="45.5392" lon="5.90863">
        <ele>559.79998779297</ele>
        <time>2011-11-13T10:55:07Z</time>
      </trkpt>
      <trkpt lat="45.5392" lon="5.90863">
        <ele>558.79998779297</ele>
        <time>2011-11-13T10:55:21Z</time>
      </trkpt>
      <trkpt lat="45.53923" lon="5.90866">
        <ele>558.40002441406</ele>
        <time>2011-11-13T10:55:30Z</time>
      </trkpt>
      <trkpt lat="45.53924" lon="5.90867">
        <ele>557.40002441406</ele>
        <time>2011-11-13T10:55:36Z</time>
      </trkpt>
      <trkpt lat="45.53925" lon="5.90868">
        <ele>557</ele>
        <time>2011-11-13T10:55:41Z</time>
      </trkpt>
      <trkpt lat="45.53925" lon="5.90872">
        <ele>556.79998779297</ele>
        <time>2011-11-13T10:55:46Z</time>
      </trkpt>
      <trkpt lat="45.5393" lon="5.9087">
        <ele>556.59997558594</ele>
        <time>2011-11-13T10:55:52Z</time>
      </trkpt>
    </trkseg>
  </trk>
</gpx>